<?xml version="1.0" encoding="UTF-8" standalone="no" ?>
<gpx xmlns="http://www.topografix.com/GPX/1/1" xmlns:xsi="http://www.w3.org/2001/XMLSchema-instance" xsi:schemaLocation="http://www.topografix.com/GPX/1/1 http://www.topografix.com/GPX/1/1/gpx.xsd" version="1.1" creator="VisuGPX - https://www.visugpx.com">
  <metadata>
    <name>Rocles ( Palheres) 34km</name>
    <desc><![CDATA[fait le 24/07/2025 au départ du Relais de Palheres via Auroux - Le cellier et le Lac de Naussac  ( a ne pas faire )]]></desc>
  </metadata>
  <wpt lat="44.736" lon="3.77861">
    <ele>1030.2</ele>
    <cmt><![CDATA[1 les ecuries de palhere]]></cmt>
    <extensions>
      <visugpx:TrackPointExtension xmlns:visugpx="https://www.visugpx.com/editgpx/">
        <visugpx:dec>-72,-102</visugpx:dec>
      </visugpx:TrackPointExtension>
    </extensions>
  </wpt>
  <wpt lat="44.58821" lon="3.63854">
    <ele>1240.1</ele>
    <cmt><![CDATA[2 gite du giraldes]]></cmt>
    <extensions>
      <visugpx:TrackPointExtension xmlns:visugpx="https://www.visugpx.com/editgpx/">
        <visugpx:dec>0,0</visugpx:dec>
      </visugpx:TrackPointExtension>
    </extensions>
  </wpt>
  <wpt lat="44.66444" lon="3.63004">
    <ele>1295</ele>
    <cmt><![CDATA[3]]></cmt>
    <extensions>
      <visugpx:TrackPointExtension xmlns:visugpx="https://www.visugpx.com/editgpx/">
        <visugpx:dec>0,0</visugpx:dec>
      </visugpx:TrackPointExtension>
    </extensions>
  </wpt>
  <wpt lat="44.73916" lon="3.79632">
    <ele>945.9</ele>
    <cmt><![CDATA[n'avons pas réussi a garder le chemin , nous avons du franchir une clôture en barbelé pour sortie de ce merdier.]]></cmt>
    <type><![CDATA[danger]]></type>
    <extensions>
      <visugpx:TrackPointExtension xmlns:visugpx="https://www.visugpx.com/editgpx/">
        <visugpx:dec>186,-146</visugpx:dec>
      </visugpx:TrackPointExtension>
    </extensions>
  </wpt>
  <trk>
    <name><![CDATA[2025-07-24 19:45:26]]></name>
    <extensions>
      <line xmlns="http://www.topografix.com/GPX/gpx_style/0/2">
        <color>ff1900</color>
        <opacity>1</opacity>
        <width>4</width>
      </line>
    </extensions>
    <trkseg>
      <trkpt lat="44.73257" lon="3.78113">
        <ele>1049.9</ele>
        <time>2025-07-14T15:02:30Z</time>
      </trkpt>
      <trkpt lat="44.73258" lon="3.78114">
        <ele>1052.78</ele>
        <time>2025-07-14T15:02:50Z</time>
      </trkpt>
      <trkpt lat="44.7325" lon="3.78097">
        <ele>1053.26</ele>
        <time>2025-07-24T08:29:43Z</time>
      </trkpt>
      <trkpt lat="44.73252" lon="3.78113">
        <ele>1056.15</ele>
        <time>2025-07-24T08:29:52Z</time>
      </trkpt>
      <trkpt lat="44.73259" lon="3.78116">
        <ele>1053.74</ele>
        <time>2025-07-24T08:30:04Z</time>
      </trkpt>
      <trkpt lat="44.73261" lon="3.7812">
        <ele>1050.86</ele>
        <time>2025-07-24T08:30:29Z</time>
      </trkpt>
      <trkpt lat="44.73261" lon="3.7812">
        <ele>1051.34</ele>
        <time>2025-07-24T08:30:50Z</time>
      </trkpt>
      <trkpt lat="44.7326" lon="3.7812">
        <ele>1050.86</ele>
        <time>2025-07-24T08:31:07Z</time>
      </trkpt>
      <trkpt lat="44.73259" lon="3.7812">
        <ele>1051.34</ele>
        <time>2025-07-24T08:31:32Z</time>
      </trkpt>
      <trkpt lat="44.7326" lon="3.7812">
        <ele>1051.82</ele>
        <time>2025-07-24T08:31:55Z</time>
      </trkpt>
      <trkpt lat="44.73259" lon="3.78117">
        <ele>1051.34</ele>
        <time>2025-07-24T08:32:13Z</time>
      </trkpt>
      <trkpt lat="44.73257" lon="3.78118">
        <ele>1051.34</ele>
        <time>2025-07-24T08:32:32Z</time>
      </trkpt>
      <trkpt lat="44.7325" lon="3.78116">
        <ele>1052.78</ele>
        <time>2025-07-24T08:32:51Z</time>
      </trkpt>
      <trkpt lat="44.73243" lon="3.78121">
        <ele>1049.42</ele>
        <time>2025-07-24T08:33:03Z</time>
      </trkpt>
      <trkpt lat="44.73225" lon="3.78112">
        <ele>1047.49</ele>
        <time>2025-07-24T08:33:16Z</time>
      </trkpt>
      <trkpt lat="44.73218" lon="3.78093">
        <ele>1049.9</ele>
        <time>2025-07-24T08:33:30Z</time>
      </trkpt>
      <trkpt lat="44.73216" lon="3.78089">
        <ele>1050.38</ele>
        <time>2025-07-24T08:33:35Z</time>
      </trkpt>
      <trkpt lat="44.73218" lon="3.78082">
        <ele>1050.86</ele>
        <time>2025-07-24T08:33:39Z</time>
      </trkpt>
      <trkpt lat="44.73226" lon="3.78072">
        <ele>1052.3</ele>
        <time>2025-07-24T08:33:52Z</time>
      </trkpt>
      <trkpt lat="44.73229" lon="3.78064">
        <ele>1054.7</ele>
        <time>2025-07-24T08:34:04Z</time>
      </trkpt>
      <trkpt lat="44.73237" lon="3.78047">
        <ele>1060.47</ele>
        <time>2025-07-24T08:34:19Z</time>
      </trkpt>
      <trkpt lat="44.73247" lon="3.78016">
        <ele>1060.95</ele>
        <time>2025-07-24T08:34:31Z</time>
      </trkpt>
      <trkpt lat="44.7325" lon="3.77994">
        <ele>1060.95</ele>
        <time>2025-07-24T08:34:44Z</time>
      </trkpt>
      <trkpt lat="44.7325" lon="3.77978">
        <ele>1059.03</ele>
        <time>2025-07-24T08:35:00Z</time>
      </trkpt>
      <trkpt lat="44.7325" lon="3.77963">
        <ele>1059.03</ele>
        <time>2025-07-24T08:35:12Z</time>
      </trkpt>
      <trkpt lat="44.73255" lon="3.77929">
        <ele>1057.11</ele>
        <time>2025-07-24T08:35:28Z</time>
      </trkpt>
      <trkpt lat="44.73257" lon="3.77925">
        <ele>1056.15</ele>
        <time>2025-07-24T08:35:40Z</time>
      </trkpt>
      <trkpt lat="44.73258" lon="3.7792">
        <ele>1054.22</ele>
        <time>2025-07-24T08:35:56Z</time>
      </trkpt>
      <trkpt lat="44.73259" lon="3.77918">
        <ele>1052.78</ele>
        <time>2025-07-24T08:36:14Z</time>
      </trkpt>
      <trkpt lat="44.73261" lon="3.77923">
        <ele>1051.82</ele>
        <time>2025-07-24T08:36:28Z</time>
      </trkpt>
      <trkpt lat="44.73261" lon="3.7792">
        <ele>1051.34</ele>
        <time>2025-07-24T08:36:41Z</time>
      </trkpt>
      <trkpt lat="44.73263" lon="3.77907">
        <ele>1053.26</ele>
        <time>2025-07-24T08:36:56Z</time>
      </trkpt>
      <trkpt lat="44.73268" lon="3.7788">
        <ele>1053.26</ele>
        <time>2025-07-24T08:37:13Z</time>
      </trkpt>
      <trkpt lat="44.73268" lon="3.77879">
        <ele>1053.26</ele>
        <time>2025-07-24T08:37:14Z</time>
      </trkpt>
      <trkpt lat="44.73275" lon="3.77852">
        <ele>1052.3</ele>
        <time>2025-07-24T08:37:29Z</time>
      </trkpt>
      <trkpt lat="44.73278" lon="3.77842">
        <ele>1052.78</ele>
        <time>2025-07-24T08:37:35Z</time>
      </trkpt>
      <trkpt lat="44.73279" lon="3.77839">
        <ele>1052.78</ele>
        <time>2025-07-24T08:37:37Z</time>
      </trkpt>
      <trkpt lat="44.73288" lon="3.7781">
        <ele>1052.78</ele>
        <time>2025-07-24T08:37:54Z</time>
      </trkpt>
      <trkpt lat="44.73295" lon="3.77796">
        <ele>1052.78</ele>
        <time>2025-07-24T08:38:10Z</time>
      </trkpt>
      <trkpt lat="44.73303" lon="3.77775">
        <ele>1050.86</ele>
        <time>2025-07-24T08:38:25Z</time>
      </trkpt>
      <trkpt lat="44.73316" lon="3.77745">
        <ele>1046.05</ele>
        <time>2025-07-24T08:38:43Z</time>
      </trkpt>
      <trkpt lat="44.73328" lon="3.77712">
        <ele>1046.53</ele>
        <time>2025-07-24T08:39:00Z</time>
      </trkpt>
      <trkpt lat="44.73338" lon="3.77679">
        <ele>1047.49</ele>
        <time>2025-07-24T08:39:17Z</time>
      </trkpt>
      <trkpt lat="44.73348" lon="3.77649">
        <ele>1047.97</ele>
        <time>2025-07-24T08:39:35Z</time>
      </trkpt>
      <trkpt lat="44.73362" lon="3.77614">
        <ele>1048.45</ele>
        <time>2025-07-24T08:39:54Z</time>
      </trkpt>
      <trkpt lat="44.73373" lon="3.77576">
        <ele>1048.45</ele>
        <time>2025-07-24T08:40:13Z</time>
      </trkpt>
      <trkpt lat="44.73382" lon="3.77541">
        <ele>1048.45</ele>
        <time>2025-07-24T08:40:30Z</time>
      </trkpt>
      <trkpt lat="44.73394" lon="3.77506">
        <ele>1049.9</ele>
        <time>2025-07-24T08:40:50Z</time>
      </trkpt>
      <trkpt lat="44.73406" lon="3.77472">
        <ele>1049.9</ele>
        <time>2025-07-24T08:41:09Z</time>
      </trkpt>
      <trkpt lat="44.73414" lon="3.77449">
        <ele>1049.42</ele>
        <time>2025-07-24T08:41:22Z</time>
      </trkpt>
      <trkpt lat="44.73427" lon="3.77418">
        <ele>1048.94</ele>
        <time>2025-07-24T08:41:40Z</time>
      </trkpt>
      <trkpt lat="44.73435" lon="3.77377">
        <ele>1046.05</ele>
        <time>2025-07-24T08:42:00Z</time>
      </trkpt>
      <trkpt lat="44.73449" lon="3.77344">
        <ele>1045.09</ele>
        <time>2025-07-24T08:42:18Z</time>
      </trkpt>
      <trkpt lat="44.73467" lon="3.77311">
        <ele>1043.17</ele>
        <time>2025-07-24T08:42:37Z</time>
      </trkpt>
      <trkpt lat="44.73484" lon="3.77273">
        <ele>1040.28</ele>
        <time>2025-07-24T08:42:58Z</time>
      </trkpt>
      <trkpt lat="44.73502" lon="3.77241">
        <ele>1042.21</ele>
        <time>2025-07-24T08:43:18Z</time>
      </trkpt>
      <trkpt lat="44.73516" lon="3.77216">
        <ele>1042.21</ele>
        <time>2025-07-24T08:43:33Z</time>
      </trkpt>
      <trkpt lat="44.73538" lon="3.7718">
        <ele>1039.8</ele>
        <time>2025-07-24T08:43:54Z</time>
      </trkpt>
      <trkpt lat="44.73557" lon="3.77154">
        <ele>1038.36</ele>
        <time>2025-07-24T08:44:11Z</time>
      </trkpt>
      <trkpt lat="44.73577" lon="3.77131">
        <ele>1037.4</ele>
        <time>2025-07-24T08:44:28Z</time>
      </trkpt>
      <trkpt lat="44.73611" lon="3.771">
        <ele>1035</ele>
        <time>2025-07-24T08:44:54Z</time>
      </trkpt>
      <trkpt lat="44.73638" lon="3.77081">
        <ele>1032.11</ele>
        <time>2025-07-24T08:45:13Z</time>
      </trkpt>
      <trkpt lat="44.73664" lon="3.77062">
        <ele>1033.07</ele>
        <time>2025-07-24T08:45:32Z</time>
      </trkpt>
      <trkpt lat="44.73691" lon="3.77037">
        <ele>1032.59</ele>
        <time>2025-07-24T08:45:53Z</time>
      </trkpt>
      <trkpt lat="44.7372" lon="3.7701">
        <ele>1032.11</ele>
        <time>2025-07-24T08:46:15Z</time>
      </trkpt>
      <trkpt lat="44.73741" lon="3.76993">
        <ele>1031.15</ele>
        <time>2025-07-24T08:46:32Z</time>
      </trkpt>
      <trkpt lat="44.7376" lon="3.76977">
        <ele>1031.15</ele>
        <time>2025-07-24T08:46:48Z</time>
      </trkpt>
      <trkpt lat="44.73783" lon="3.76959">
        <ele>1030.67</ele>
        <time>2025-07-24T08:47:07Z</time>
      </trkpt>
      <trkpt lat="44.73798" lon="3.76936">
        <ele>1030.67</ele>
        <time>2025-07-24T08:47:23Z</time>
      </trkpt>
      <trkpt lat="44.738" lon="3.76931">
        <ele>1031.15</ele>
        <time>2025-07-24T08:47:26Z</time>
      </trkpt>
      <trkpt lat="44.73791" lon="3.76903">
        <ele>1031.63</ele>
        <time>2025-07-24T08:47:43Z</time>
      </trkpt>
      <trkpt lat="44.7378" lon="3.76876">
        <ele>1031.63</ele>
        <time>2025-07-24T08:48:01Z</time>
      </trkpt>
      <trkpt lat="44.73771" lon="3.76852">
        <ele>1029.71</ele>
        <time>2025-07-24T08:48:15Z</time>
      </trkpt>
      <trkpt lat="44.7377" lon="3.76827">
        <ele>1027.31</ele>
        <time>2025-07-24T08:48:30Z</time>
      </trkpt>
      <trkpt lat="44.73768" lon="3.76811">
        <ele>1022.98</ele>
        <time>2025-07-24T08:48:40Z</time>
      </trkpt>
      <trkpt lat="44.73765" lon="3.76804">
        <ele>1021.06</ele>
        <time>2025-07-24T08:48:45Z</time>
      </trkpt>
      <trkpt lat="44.7376" lon="3.76783">
        <ele>1020.1</ele>
        <time>2025-07-24T08:49:01Z</time>
      </trkpt>
      <trkpt lat="44.73761" lon="3.76776">
        <ele>1019.13</ele>
        <time>2025-07-24T08:49:18Z</time>
      </trkpt>
      <trkpt lat="44.73759" lon="3.76777">
        <ele>1019.62</ele>
        <time>2025-07-24T08:49:33Z</time>
      </trkpt>
      <trkpt lat="44.73749" lon="3.76764">
        <ele>1017.69</ele>
        <time>2025-07-24T08:49:47Z</time>
      </trkpt>
      <trkpt lat="44.73733" lon="3.76747">
        <ele>1018.17</ele>
        <time>2025-07-24T08:50:05Z</time>
      </trkpt>
      <trkpt lat="44.73718" lon="3.76721">
        <ele>1017.69</ele>
        <time>2025-07-24T08:50:22Z</time>
      </trkpt>
      <trkpt lat="44.73702" lon="3.76693">
        <ele>1015.29</ele>
        <time>2025-07-24T08:50:40Z</time>
      </trkpt>
      <trkpt lat="44.73682" lon="3.7667">
        <ele>1013.85</ele>
        <time>2025-07-24T08:51:00Z</time>
      </trkpt>
      <trkpt lat="44.73661" lon="3.76639">
        <ele>1010.96</ele>
        <time>2025-07-24T08:51:20Z</time>
      </trkpt>
      <trkpt lat="44.73646" lon="3.76621">
        <ele>1011.93</ele>
        <time>2025-07-24T08:51:36Z</time>
      </trkpt>
      <trkpt lat="44.73634" lon="3.76592">
        <ele>1013.85</ele>
        <time>2025-07-24T08:51:51Z</time>
      </trkpt>
      <trkpt lat="44.73624" lon="3.76558">
        <ele>1013.85</ele>
        <time>2025-07-24T08:52:07Z</time>
      </trkpt>
      <trkpt lat="44.73618" lon="3.76531">
        <ele>1013.37</ele>
        <time>2025-07-24T08:52:20Z</time>
      </trkpt>
      <trkpt lat="44.73614" lon="3.76487">
        <ele>1009.04</ele>
        <time>2025-07-24T08:52:40Z</time>
      </trkpt>
      <trkpt lat="44.73604" lon="3.76462">
        <ele>1007.6</ele>
        <time>2025-07-24T08:52:54Z</time>
      </trkpt>
      <trkpt lat="44.73584" lon="3.7644">
        <ele>1007.12</ele>
        <time>2025-07-24T08:53:12Z</time>
      </trkpt>
      <trkpt lat="44.73569" lon="3.76422">
        <ele>1007.6</ele>
        <time>2025-07-24T08:53:27Z</time>
      </trkpt>
      <trkpt lat="44.73553" lon="3.76389">
        <ele>1009.52</ele>
        <time>2025-07-24T08:53:43Z</time>
      </trkpt>
      <trkpt lat="44.73532" lon="3.76364">
        <ele>1011.44</ele>
        <time>2025-07-24T08:53:58Z</time>
      </trkpt>
      <trkpt lat="44.73518" lon="3.7635">
        <ele>1014.81</ele>
        <time>2025-07-24T08:54:10Z</time>
      </trkpt>
      <trkpt lat="44.73518" lon="3.76348">
        <ele>1014.81</ele>
        <time>2025-07-24T08:54:11Z</time>
      </trkpt>
      <trkpt lat="44.73504" lon="3.76324">
        <ele>1018.65</ele>
        <time>2025-07-24T08:54:27Z</time>
      </trkpt>
      <trkpt lat="44.7349" lon="3.76297">
        <ele>1023.94</ele>
        <time>2025-07-24T08:54:45Z</time>
      </trkpt>
      <trkpt lat="44.73478" lon="3.76269">
        <ele>1029.23</ele>
        <time>2025-07-24T08:55:03Z</time>
      </trkpt>
      <trkpt lat="44.73463" lon="3.76243">
        <ele>1034.52</ele>
        <time>2025-07-24T08:55:21Z</time>
      </trkpt>
      <trkpt lat="44.73448" lon="3.76213">
        <ele>1036.92</ele>
        <time>2025-07-24T08:55:40Z</time>
      </trkpt>
      <trkpt lat="44.73434" lon="3.76183">
        <ele>1039.32</ele>
        <time>2025-07-24T08:55:56Z</time>
      </trkpt>
      <trkpt lat="44.73423" lon="3.76154">
        <ele>1040.76</ele>
        <time>2025-07-24T08:56:11Z</time>
      </trkpt>
      <trkpt lat="44.7341" lon="3.76123">
        <ele>1043.17</ele>
        <time>2025-07-24T08:56:25Z</time>
      </trkpt>
      <trkpt lat="44.73399" lon="3.76096">
        <ele>1047.01</ele>
        <time>2025-07-24T08:56:42Z</time>
      </trkpt>
      <trkpt lat="44.73387" lon="3.76056">
        <ele>1046.05</ele>
        <time>2025-07-24T08:57:03Z</time>
      </trkpt>
      <trkpt lat="44.73377" lon="3.7603">
        <ele>1046.05</ele>
        <time>2025-07-24T08:57:18Z</time>
      </trkpt>
      <trkpt lat="44.73368" lon="3.76">
        <ele>1047.49</ele>
        <time>2025-07-24T08:57:36Z</time>
      </trkpt>
      <trkpt lat="44.73357" lon="3.75975">
        <ele>1049.42</ele>
        <time>2025-07-24T08:57:50Z</time>
      </trkpt>
      <trkpt lat="44.73346" lon="3.75946">
        <ele>1052.78</ele>
        <time>2025-07-24T08:58:07Z</time>
      </trkpt>
      <trkpt lat="44.73342" lon="3.75915">
        <ele>1054.22</ele>
        <time>2025-07-24T08:58:22Z</time>
      </trkpt>
      <trkpt lat="44.73331" lon="3.75889">
        <ele>1056.63</ele>
        <time>2025-07-24T08:58:39Z</time>
      </trkpt>
      <trkpt lat="44.73314" lon="3.75873">
        <ele>1058.55</ele>
        <time>2025-07-24T08:58:55Z</time>
      </trkpt>
      <trkpt lat="44.73297" lon="3.75863">
        <ele>1060.95</ele>
        <time>2025-07-24T08:59:06Z</time>
      </trkpt>
      <trkpt lat="44.73274" lon="3.75846">
        <ele>1063.84</ele>
        <time>2025-07-24T08:59:28Z</time>
      </trkpt>
      <trkpt lat="44.73268" lon="3.75836">
        <ele>1064.8</ele>
        <time>2025-07-24T08:59:35Z</time>
      </trkpt>
      <trkpt lat="44.73267" lon="3.75835">
        <ele>1064.8</ele>
        <time>2025-07-24T08:59:36Z</time>
      </trkpt>
      <trkpt lat="44.73255" lon="3.75796">
        <ele>1067.2</ele>
        <time>2025-07-24T08:59:58Z</time>
      </trkpt>
      <trkpt lat="44.73245" lon="3.75769">
        <ele>1068.64</ele>
        <time>2025-07-24T09:00:14Z</time>
      </trkpt>
      <trkpt lat="44.73225" lon="3.75749">
        <ele>1070.57</ele>
        <time>2025-07-24T09:00:34Z</time>
      </trkpt>
      <trkpt lat="44.73201" lon="3.75742">
        <ele>1071.53</ele>
        <time>2025-07-24T09:00:51Z</time>
      </trkpt>
      <trkpt lat="44.7317" lon="3.75737">
        <ele>1072.01</ele>
        <time>2025-07-24T09:01:10Z</time>
      </trkpt>
      <trkpt lat="44.73148" lon="3.75726">
        <ele>1073.93</ele>
        <time>2025-07-24T09:01:24Z</time>
      </trkpt>
      <trkpt lat="44.73126" lon="3.75714">
        <ele>1074.41</ele>
        <time>2025-07-24T09:01:39Z</time>
      </trkpt>
      <trkpt lat="44.73101" lon="3.75699">
        <ele>1075.85</ele>
        <time>2025-07-24T09:02:00Z</time>
      </trkpt>
      <trkpt lat="44.73075" lon="3.75685">
        <ele>1077.29</ele>
        <time>2025-07-24T09:02:15Z</time>
      </trkpt>
      <trkpt lat="44.73052" lon="3.75671">
        <ele>1079.22</ele>
        <time>2025-07-24T09:02:35Z</time>
      </trkpt>
      <trkpt lat="44.73033" lon="3.75662">
        <ele>1081.62</ele>
        <time>2025-07-24T09:02:49Z</time>
      </trkpt>
      <trkpt lat="44.73018" lon="3.75654">
        <ele>1082.1</ele>
        <time>2025-07-24T09:03:02Z</time>
      </trkpt>
      <trkpt lat="44.72995" lon="3.75638">
        <ele>1084.5</ele>
        <time>2025-07-24T09:03:17Z</time>
      </trkpt>
      <trkpt lat="44.72996" lon="3.75636">
        <ele>1084.5</ele>
        <time>2025-07-24T09:03:18Z</time>
      </trkpt>
      <trkpt lat="44.72996" lon="3.75634">
        <ele>1084.99</ele>
        <time>2025-07-24T09:03:19Z</time>
      </trkpt>
      <trkpt lat="44.72997" lon="3.75633">
        <ele>1084.99</ele>
        <time>2025-07-24T09:03:20Z</time>
      </trkpt>
      <trkpt lat="44.72998" lon="3.75631">
        <ele>1084.99</ele>
        <time>2025-07-24T09:03:21Z</time>
      </trkpt>
      <trkpt lat="44.73" lon="3.7563">
        <ele>1085.47</ele>
        <time>2025-07-24T09:03:22Z</time>
      </trkpt>
      <trkpt lat="44.73018" lon="3.75611">
        <ele>1084.02</ele>
        <time>2025-07-24T09:03:38Z</time>
      </trkpt>
      <trkpt lat="44.73044" lon="3.75586">
        <ele>1083.06</ele>
        <time>2025-07-24T09:03:59Z</time>
      </trkpt>
      <trkpt lat="44.73062" lon="3.75566">
        <ele>1082.58</ele>
        <time>2025-07-24T09:04:15Z</time>
      </trkpt>
      <trkpt lat="44.73084" lon="3.75547">
        <ele>1083.54</ele>
        <time>2025-07-24T09:04:34Z</time>
      </trkpt>
      <trkpt lat="44.73105" lon="3.75522">
        <ele>1084.5</ele>
        <time>2025-07-24T09:04:49Z</time>
      </trkpt>
      <trkpt lat="44.73127" lon="3.75497">
        <ele>1085.95</ele>
        <time>2025-07-24T09:05:05Z</time>
      </trkpt>
      <trkpt lat="44.73144" lon="3.75477">
        <ele>1085.95</ele>
        <time>2025-07-24T09:05:18Z</time>
      </trkpt>
      <trkpt lat="44.73166" lon="3.75457">
        <ele>1085.47</ele>
        <time>2025-07-24T09:05:36Z</time>
      </trkpt>
      <trkpt lat="44.73192" lon="3.75444">
        <ele>1085.47</ele>
        <time>2025-07-24T09:05:52Z</time>
      </trkpt>
      <trkpt lat="44.73211" lon="3.75435">
        <ele>1085.47</ele>
        <time>2025-07-24T09:06:05Z</time>
      </trkpt>
      <trkpt lat="44.7324" lon="3.7542">
        <ele>1084.5</ele>
        <time>2025-07-24T09:06:24Z</time>
      </trkpt>
      <trkpt lat="44.73264" lon="3.754">
        <ele>1082.1</ele>
        <time>2025-07-24T09:06:42Z</time>
      </trkpt>
      <trkpt lat="44.73287" lon="3.75385">
        <ele>1080.66</ele>
        <time>2025-07-24T09:07:00Z</time>
      </trkpt>
      <trkpt lat="44.73309" lon="3.75364">
        <ele>1080.18</ele>
        <time>2025-07-24T09:07:18Z</time>
      </trkpt>
      <trkpt lat="44.73333" lon="3.75343">
        <ele>1079.22</ele>
        <time>2025-07-24T09:07:37Z</time>
      </trkpt>
      <trkpt lat="44.73344" lon="3.75332">
        <ele>1079.22</ele>
        <time>2025-07-24T09:07:47Z</time>
      </trkpt>
      <trkpt lat="44.73346" lon="3.75331">
        <ele>1079.22</ele>
        <time>2025-07-24T09:07:49Z</time>
      </trkpt>
      <trkpt lat="44.73347" lon="3.7533">
        <ele>1079.22</ele>
        <time>2025-07-24T09:07:50Z</time>
      </trkpt>
      <trkpt lat="44.73348" lon="3.75328">
        <ele>1079.22</ele>
        <time>2025-07-24T09:07:51Z</time>
      </trkpt>
      <trkpt lat="44.73349" lon="3.75327">
        <ele>1079.22</ele>
        <time>2025-07-24T09:07:52Z</time>
      </trkpt>
      <trkpt lat="44.73351" lon="3.75326">
        <ele>1079.22</ele>
        <time>2025-07-24T09:07:53Z</time>
      </trkpt>
      <trkpt lat="44.73368" lon="3.75312">
        <ele>1081.14</ele>
        <time>2025-07-24T09:08:05Z</time>
      </trkpt>
      <trkpt lat="44.73384" lon="3.75296">
        <ele>1082.58</ele>
        <time>2025-07-24T09:08:18Z</time>
      </trkpt>
      <trkpt lat="44.7341" lon="3.75273">
        <ele>1081.62</ele>
        <time>2025-07-24T09:08:37Z</time>
      </trkpt>
      <trkpt lat="44.73437" lon="3.75259">
        <ele>1080.18</ele>
        <time>2025-07-24T09:08:57Z</time>
      </trkpt>
      <trkpt lat="44.73465" lon="3.75249">
        <ele>1079.22</ele>
        <time>2025-07-24T09:09:16Z</time>
      </trkpt>
      <trkpt lat="44.73491" lon="3.75229">
        <ele>1078.74</ele>
        <time>2025-07-24T09:09:37Z</time>
      </trkpt>
      <trkpt lat="44.73514" lon="3.75207">
        <ele>1081.14</ele>
        <time>2025-07-24T09:09:54Z</time>
      </trkpt>
      <trkpt lat="44.73536" lon="3.7519">
        <ele>1081.14</ele>
        <time>2025-07-24T09:10:09Z</time>
      </trkpt>
      <trkpt lat="44.73556" lon="3.75175">
        <ele>1081.14</ele>
        <time>2025-07-24T09:10:24Z</time>
      </trkpt>
      <trkpt lat="44.73578" lon="3.75158">
        <ele>1082.58</ele>
        <time>2025-07-24T09:10:41Z</time>
      </trkpt>
      <trkpt lat="44.73596" lon="3.75143">
        <ele>1083.54</ele>
        <time>2025-07-24T09:10:56Z</time>
      </trkpt>
      <trkpt lat="44.73621" lon="3.75133">
        <ele>1084.02</ele>
        <time>2025-07-24T09:11:13Z</time>
      </trkpt>
      <trkpt lat="44.73646" lon="3.75119">
        <ele>1084.5</ele>
        <time>2025-07-24T09:11:32Z</time>
      </trkpt>
      <trkpt lat="44.73671" lon="3.75097">
        <ele>1083.54</ele>
        <time>2025-07-24T09:11:52Z</time>
      </trkpt>
      <trkpt lat="44.73679" lon="3.75088">
        <ele>1083.54</ele>
        <time>2025-07-24T09:11:59Z</time>
      </trkpt>
      <trkpt lat="44.73702" lon="3.75068">
        <ele>1081.62</ele>
        <time>2025-07-24T09:12:19Z</time>
      </trkpt>
      <trkpt lat="44.73721" lon="3.75048">
        <ele>1080.66</ele>
        <time>2025-07-24T09:12:35Z</time>
      </trkpt>
      <trkpt lat="44.73738" lon="3.75026">
        <ele>1082.58</ele>
        <time>2025-07-24T09:12:51Z</time>
      </trkpt>
      <trkpt lat="44.73741" lon="3.75021">
        <ele>1083.06</ele>
        <time>2025-07-24T09:12:55Z</time>
      </trkpt>
      <trkpt lat="44.73767" lon="3.75002">
        <ele>1082.1</ele>
        <time>2025-07-24T09:13:13Z</time>
      </trkpt>
      <trkpt lat="44.73786" lon="3.74985">
        <ele>1082.58</ele>
        <time>2025-07-24T09:13:29Z</time>
      </trkpt>
      <trkpt lat="44.73814" lon="3.74969">
        <ele>1082.58</ele>
        <time>2025-07-24T09:13:47Z</time>
      </trkpt>
      <trkpt lat="44.73837" lon="3.74948">
        <ele>1081.14</ele>
        <time>2025-07-24T09:14:03Z</time>
      </trkpt>
      <trkpt lat="44.73848" lon="3.74921">
        <ele>1079.7</ele>
        <time>2025-07-24T09:14:17Z</time>
      </trkpt>
      <trkpt lat="44.73856" lon="3.74896">
        <ele>1078.26</ele>
        <time>2025-07-24T09:14:30Z</time>
      </trkpt>
      <trkpt lat="44.73857" lon="3.74894">
        <ele>1077.78</ele>
        <time>2025-07-24T09:14:31Z</time>
      </trkpt>
      <trkpt lat="44.73871" lon="3.74864">
        <ele>1077.29</ele>
        <time>2025-07-24T09:14:47Z</time>
      </trkpt>
      <trkpt lat="44.73886" lon="3.74839">
        <ele>1076.33</ele>
        <time>2025-07-24T09:15:04Z</time>
      </trkpt>
      <trkpt lat="44.73902" lon="3.74814">
        <ele>1075.85</ele>
        <time>2025-07-24T09:15:20Z</time>
      </trkpt>
      <trkpt lat="44.73921" lon="3.74799">
        <ele>1074.41</ele>
        <time>2025-07-24T09:15:35Z</time>
      </trkpt>
      <trkpt lat="44.73935" lon="3.74785">
        <ele>1072.49</ele>
        <time>2025-07-24T09:15:48Z</time>
      </trkpt>
      <trkpt lat="44.73955" lon="3.74772">
        <ele>1072.97</ele>
        <time>2025-07-24T09:16:04Z</time>
      </trkpt>
      <trkpt lat="44.73981" lon="3.74759">
        <ele>1076.33</ele>
        <time>2025-07-24T09:16:20Z</time>
      </trkpt>
      <trkpt lat="44.74005" lon="3.74736">
        <ele>1078.26</ele>
        <time>2025-07-24T09:16:41Z</time>
      </trkpt>
      <trkpt lat="44.74025" lon="3.74723">
        <ele>1079.7</ele>
        <time>2025-07-24T09:16:56Z</time>
      </trkpt>
      <trkpt lat="44.74054" lon="3.74708">
        <ele>1081.14</ele>
        <time>2025-07-24T09:17:13Z</time>
      </trkpt>
      <trkpt lat="44.74075" lon="3.74687">
        <ele>1078.74</ele>
        <time>2025-07-24T09:17:30Z</time>
      </trkpt>
      <trkpt lat="44.74092" lon="3.7467">
        <ele>1077.29</ele>
        <time>2025-07-24T09:17:44Z</time>
      </trkpt>
      <trkpt lat="44.74111" lon="3.7465">
        <ele>1077.29</ele>
        <time>2025-07-24T09:18:00Z</time>
      </trkpt>
      <trkpt lat="44.74134" lon="3.74624">
        <ele>1076.33</ele>
        <time>2025-07-24T09:18:18Z</time>
      </trkpt>
      <trkpt lat="44.74155" lon="3.746">
        <ele>1075.85</ele>
        <time>2025-07-24T09:18:35Z</time>
      </trkpt>
      <trkpt lat="44.74168" lon="3.74575">
        <ele>1077.78</ele>
        <time>2025-07-24T09:18:50Z</time>
      </trkpt>
      <trkpt lat="44.74186" lon="3.74548">
        <ele>1076.81</ele>
        <time>2025-07-24T09:19:09Z</time>
      </trkpt>
      <trkpt lat="44.74198" lon="3.74529">
        <ele>1075.85</ele>
        <time>2025-07-24T09:19:22Z</time>
      </trkpt>
      <trkpt lat="44.74219" lon="3.74507">
        <ele>1075.85</ele>
        <time>2025-07-24T09:19:40Z</time>
      </trkpt>
      <trkpt lat="44.7424" lon="3.74494">
        <ele>1075.85</ele>
        <time>2025-07-24T09:19:54Z</time>
      </trkpt>
      <trkpt lat="44.74265" lon="3.74478">
        <ele>1076.33</ele>
        <time>2025-07-24T09:20:13Z</time>
      </trkpt>
      <trkpt lat="44.74289" lon="3.7446">
        <ele>1077.29</ele>
        <time>2025-07-24T09:20:30Z</time>
      </trkpt>
      <trkpt lat="44.7431" lon="3.74442">
        <ele>1078.26</ele>
        <time>2025-07-24T09:20:48Z</time>
      </trkpt>
      <trkpt lat="44.74329" lon="3.74427">
        <ele>1078.74</ele>
        <time>2025-07-24T09:21:04Z</time>
      </trkpt>
      <trkpt lat="44.74349" lon="3.74405">
        <ele>1079.22</ele>
        <time>2025-07-24T09:21:20Z</time>
      </trkpt>
      <trkpt lat="44.74369" lon="3.74383">
        <ele>1079.22</ele>
        <time>2025-07-24T09:21:38Z</time>
      </trkpt>
      <trkpt lat="44.7439" lon="3.74365">
        <ele>1080.18</ele>
        <time>2025-07-24T09:21:55Z</time>
      </trkpt>
      <trkpt lat="44.74403" lon="3.74351">
        <ele>1081.14</ele>
        <time>2025-07-24T09:22:06Z</time>
      </trkpt>
      <trkpt lat="44.74415" lon="3.74334">
        <ele>1081.14</ele>
        <time>2025-07-24T09:22:17Z</time>
      </trkpt>
      <trkpt lat="44.74433" lon="3.74312">
        <ele>1082.1</ele>
        <time>2025-07-24T09:22:32Z</time>
      </trkpt>
      <trkpt lat="44.74453" lon="3.74288">
        <ele>1082.1</ele>
        <time>2025-07-24T09:22:48Z</time>
      </trkpt>
      <trkpt lat="44.74468" lon="3.74266">
        <ele>1079.22</ele>
        <time>2025-07-24T09:23:05Z</time>
      </trkpt>
      <trkpt lat="44.74468" lon="3.74269">
        <ele>1081.14</ele>
        <time>2025-07-24T09:23:24Z</time>
      </trkpt>
      <trkpt lat="44.74476" lon="3.74255">
        <ele>1080.18</ele>
        <time>2025-07-24T09:23:39Z</time>
      </trkpt>
      <trkpt lat="44.74491" lon="3.7423">
        <ele>1078.74</ele>
        <time>2025-07-24T09:23:56Z</time>
      </trkpt>
      <trkpt lat="44.74505" lon="3.74203">
        <ele>1078.26</ele>
        <time>2025-07-24T09:24:14Z</time>
      </trkpt>
      <trkpt lat="44.7452" lon="3.7417">
        <ele>1080.18</ele>
        <time>2025-07-24T09:24:31Z</time>
      </trkpt>
      <trkpt lat="44.74539" lon="3.74128">
        <ele>1080.18</ele>
        <time>2025-07-24T09:24:55Z</time>
      </trkpt>
      <trkpt lat="44.74554" lon="3.74099">
        <ele>1081.14</ele>
        <time>2025-07-24T09:25:13Z</time>
      </trkpt>
      <trkpt lat="44.7457" lon="3.74077">
        <ele>1080.66</ele>
        <time>2025-07-24T09:25:30Z</time>
      </trkpt>
      <trkpt lat="44.74589" lon="3.74058">
        <ele>1080.18</ele>
        <time>2025-07-24T09:25:47Z</time>
      </trkpt>
      <trkpt lat="44.74607" lon="3.7404">
        <ele>1081.14</ele>
        <time>2025-07-24T09:26:02Z</time>
      </trkpt>
      <trkpt lat="44.74628" lon="3.74022">
        <ele>1081.62</ele>
        <time>2025-07-24T09:26:18Z</time>
      </trkpt>
      <trkpt lat="44.74652" lon="3.7401">
        <ele>1084.02</ele>
        <time>2025-07-24T09:26:34Z</time>
      </trkpt>
      <trkpt lat="44.74675" lon="3.74004">
        <ele>1086.43</ele>
        <time>2025-07-24T09:26:49Z</time>
      </trkpt>
      <trkpt lat="44.74702" lon="3.73992">
        <ele>1086.91</ele>
        <time>2025-07-24T09:27:09Z</time>
      </trkpt>
      <trkpt lat="44.74732" lon="3.73985">
        <ele>1085.95</ele>
        <time>2025-07-24T09:27:29Z</time>
      </trkpt>
      <trkpt lat="44.74761" lon="3.73979">
        <ele>1085.95</ele>
        <time>2025-07-24T09:27:47Z</time>
      </trkpt>
      <trkpt lat="44.74787" lon="3.73975">
        <ele>1085.95</ele>
        <time>2025-07-24T09:28:04Z</time>
      </trkpt>
      <trkpt lat="44.74811" lon="3.73971">
        <ele>1085.47</ele>
        <time>2025-07-24T09:28:21Z</time>
      </trkpt>
      <trkpt lat="44.7484" lon="3.73961">
        <ele>1085.47</ele>
        <time>2025-07-24T09:28:41Z</time>
      </trkpt>
      <trkpt lat="44.74864" lon="3.73948">
        <ele>1085.95</ele>
        <time>2025-07-24T09:28:56Z</time>
      </trkpt>
      <trkpt lat="44.74892" lon="3.73937">
        <ele>1085.47</ele>
        <time>2025-07-24T09:29:14Z</time>
      </trkpt>
      <trkpt lat="44.74922" lon="3.73926">
        <ele>1086.43</ele>
        <time>2025-07-24T09:29:34Z</time>
      </trkpt>
      <trkpt lat="44.74945" lon="3.73921">
        <ele>1086.43</ele>
        <time>2025-07-24T09:29:48Z</time>
      </trkpt>
      <trkpt lat="44.74974" lon="3.73912">
        <ele>1084.02</ele>
        <time>2025-07-24T09:30:07Z</time>
      </trkpt>
      <trkpt lat="44.74995" lon="3.73906">
        <ele>1083.54</ele>
        <time>2025-07-24T09:30:23Z</time>
      </trkpt>
      <trkpt lat="44.74996" lon="3.73906">
        <ele>1083.54</ele>
        <time>2025-07-24T09:30:24Z</time>
      </trkpt>
      <trkpt lat="44.74998" lon="3.73907">
        <ele>1083.54</ele>
        <time>2025-07-24T09:30:25Z</time>
      </trkpt>
      <trkpt lat="44.75021" lon="3.73909">
        <ele>1084.02</ele>
        <time>2025-07-24T09:30:42Z</time>
      </trkpt>
      <trkpt lat="44.75047" lon="3.73911">
        <ele>1084.02</ele>
        <time>2025-07-24T09:30:58Z</time>
      </trkpt>
      <trkpt lat="44.75069" lon="3.73903">
        <ele>1082.58</ele>
        <time>2025-07-24T09:31:14Z</time>
      </trkpt>
      <trkpt lat="44.751" lon="3.73891">
        <ele>1079.22</ele>
        <time>2025-07-24T09:31:34Z</time>
      </trkpt>
      <trkpt lat="44.75126" lon="3.73877">
        <ele>1078.26</ele>
        <time>2025-07-24T09:31:50Z</time>
      </trkpt>
      <trkpt lat="44.7515" lon="3.7387">
        <ele>1077.78</ele>
        <time>2025-07-24T09:32:08Z</time>
      </trkpt>
      <trkpt lat="44.75152" lon="3.7387">
        <ele>1077.78</ele>
        <time>2025-07-24T09:32:10Z</time>
      </trkpt>
      <trkpt lat="44.75153" lon="3.73869">
        <ele>1077.29</ele>
        <time>2025-07-24T09:32:11Z</time>
      </trkpt>
      <trkpt lat="44.75155" lon="3.73868">
        <ele>1077.29</ele>
        <time>2025-07-24T09:32:12Z</time>
      </trkpt>
      <trkpt lat="44.75179" lon="3.73861">
        <ele>1076.81</ele>
        <time>2025-07-24T09:32:30Z</time>
      </trkpt>
      <trkpt lat="44.75207" lon="3.73858">
        <ele>1076.33</ele>
        <time>2025-07-24T09:32:49Z</time>
      </trkpt>
      <trkpt lat="44.75236" lon="3.73858">
        <ele>1075.85</ele>
        <time>2025-07-24T09:33:06Z</time>
      </trkpt>
      <trkpt lat="44.75259" lon="3.73853">
        <ele>1076.81</ele>
        <time>2025-07-24T09:33:21Z</time>
      </trkpt>
      <trkpt lat="44.75289" lon="3.73841">
        <ele>1074.89</ele>
        <time>2025-07-24T09:33:41Z</time>
      </trkpt>
      <trkpt lat="44.75307" lon="3.73831">
        <ele>1072.97</ele>
        <time>2025-07-24T09:33:55Z</time>
      </trkpt>
      <trkpt lat="44.75334" lon="3.73816">
        <ele>1070.57</ele>
        <time>2025-07-24T09:34:13Z</time>
      </trkpt>
      <trkpt lat="44.75368" lon="3.73799">
        <ele>1070.08</ele>
        <time>2025-07-24T09:34:35Z</time>
      </trkpt>
      <trkpt lat="44.75394" lon="3.73787">
        <ele>1068.64</ele>
        <time>2025-07-24T09:34:52Z</time>
      </trkpt>
      <trkpt lat="44.75403" lon="3.73778">
        <ele>1068.16</ele>
        <time>2025-07-24T09:34:59Z</time>
      </trkpt>
      <trkpt lat="44.75403" lon="3.73776">
        <ele>1068.16</ele>
        <time>2025-07-24T09:35:00Z</time>
      </trkpt>
      <trkpt lat="44.75403" lon="3.73774">
        <ele>1067.68</ele>
        <time>2025-07-24T09:35:01Z</time>
      </trkpt>
      <trkpt lat="44.75402" lon="3.73773">
        <ele>1067.68</ele>
        <time>2025-07-24T09:35:02Z</time>
      </trkpt>
      <trkpt lat="44.75402" lon="3.73771">
        <ele>1067.2</ele>
        <time>2025-07-24T09:35:03Z</time>
      </trkpt>
      <trkpt lat="44.75394" lon="3.73745">
        <ele>1068.16</ele>
        <time>2025-07-24T09:35:19Z</time>
      </trkpt>
      <trkpt lat="44.75391" lon="3.73734">
        <ele>1068.64</ele>
        <time>2025-07-24T09:35:35Z</time>
      </trkpt>
      <trkpt lat="44.75384" lon="3.73717">
        <ele>1070.08</ele>
        <time>2025-07-24T09:35:49Z</time>
      </trkpt>
      <trkpt lat="44.75371" lon="3.73686">
        <ele>1068.16</ele>
        <time>2025-07-24T09:36:07Z</time>
      </trkpt>
      <trkpt lat="44.75357" lon="3.73664">
        <ele>1066.24</ele>
        <time>2025-07-24T09:36:23Z</time>
      </trkpt>
      <trkpt lat="44.7534" lon="3.73649">
        <ele>1065.76</ele>
        <time>2025-07-24T09:36:38Z</time>
      </trkpt>
      <trkpt lat="44.75325" lon="3.73633">
        <ele>1064.8</ele>
        <time>2025-07-24T09:36:52Z</time>
      </trkpt>
      <trkpt lat="44.753" lon="3.73611">
        <ele>1063.84</ele>
        <time>2025-07-24T09:37:11Z</time>
      </trkpt>
      <trkpt lat="44.75281" lon="3.73596">
        <ele>1061.91</ele>
        <time>2025-07-24T09:37:27Z</time>
      </trkpt>
      <trkpt lat="44.75268" lon="3.73567">
        <ele>1059.51</ele>
        <time>2025-07-24T09:37:45Z</time>
      </trkpt>
      <trkpt lat="44.75267" lon="3.73565">
        <ele>1059.03</ele>
        <time>2025-07-24T09:38:15Z</time>
      </trkpt>
      <trkpt lat="44.7526" lon="3.73547">
        <ele>1059.03</ele>
        <time>2025-07-24T09:38:30Z</time>
      </trkpt>
      <trkpt lat="44.75254" lon="3.73516">
        <ele>1059.03</ele>
        <time>2025-07-24T09:38:47Z</time>
      </trkpt>
      <trkpt lat="44.75242" lon="3.73492">
        <ele>1058.07</ele>
        <time>2025-07-24T09:39:01Z</time>
      </trkpt>
      <trkpt lat="44.75233" lon="3.73459">
        <ele>1056.15</ele>
        <time>2025-07-24T09:39:18Z</time>
      </trkpt>
      <trkpt lat="44.75222" lon="3.73439">
        <ele>1052.3</ele>
        <time>2025-07-24T09:39:31Z</time>
      </trkpt>
      <trkpt lat="44.75205" lon="3.73418">
        <ele>1049.42</ele>
        <time>2025-07-24T09:39:46Z</time>
      </trkpt>
      <trkpt lat="44.75206" lon="3.73407">
        <ele>1048.45</ele>
        <time>2025-07-24T09:39:51Z</time>
      </trkpt>
      <trkpt lat="44.75206" lon="3.73405">
        <ele>1047.97</ele>
        <time>2025-07-24T09:39:52Z</time>
      </trkpt>
      <trkpt lat="44.75206" lon="3.73404">
        <ele>1047.97</ele>
        <time>2025-07-24T09:39:53Z</time>
      </trkpt>
      <trkpt lat="44.75205" lon="3.73403">
        <ele>1047.49</ele>
        <time>2025-07-24T09:39:54Z</time>
      </trkpt>
      <trkpt lat="44.75205" lon="3.73402">
        <ele>1047.49</ele>
        <time>2025-07-24T09:39:55Z</time>
      </trkpt>
      <trkpt lat="44.75203" lon="3.73401">
        <ele>1047.49</ele>
        <time>2025-07-24T09:39:56Z</time>
      </trkpt>
      <trkpt lat="44.75202" lon="3.734">
        <ele>1047.01</ele>
        <time>2025-07-24T09:39:57Z</time>
      </trkpt>
      <trkpt lat="44.75201" lon="3.734">
        <ele>1047.01</ele>
        <time>2025-07-24T09:39:58Z</time>
      </trkpt>
      <trkpt lat="44.752" lon="3.734">
        <ele>1046.53</ele>
        <time>2025-07-24T09:39:59Z</time>
      </trkpt>
      <trkpt lat="44.75199" lon="3.73399">
        <ele>1046.05</ele>
        <time>2025-07-24T09:40:00Z</time>
      </trkpt>
      <trkpt lat="44.75197" lon="3.73399">
        <ele>1046.05</ele>
        <time>2025-07-24T09:40:01Z</time>
      </trkpt>
      <trkpt lat="44.75196" lon="3.73399">
        <ele>1046.05</ele>
        <time>2025-07-24T09:40:02Z</time>
      </trkpt>
      <trkpt lat="44.75195" lon="3.73399">
        <ele>1046.05</ele>
        <time>2025-07-24T09:40:03Z</time>
      </trkpt>
      <trkpt lat="44.75193" lon="3.73398">
        <ele>1045.57</ele>
        <time>2025-07-24T09:40:05Z</time>
      </trkpt>
      <trkpt lat="44.75192" lon="3.73397">
        <ele>1045.57</ele>
        <time>2025-07-24T09:40:06Z</time>
      </trkpt>
      <trkpt lat="44.75191" lon="3.73396">
        <ele>1045.57</ele>
        <time>2025-07-24T09:40:07Z</time>
      </trkpt>
      <trkpt lat="44.75179" lon="3.73372">
        <ele>1041.73</ele>
        <time>2025-07-24T09:40:22Z</time>
      </trkpt>
      <trkpt lat="44.7517" lon="3.73351">
        <ele>1040.76</ele>
        <time>2025-07-24T09:40:35Z</time>
      </trkpt>
      <trkpt lat="44.75165" lon="3.73318">
        <ele>1040.76</ele>
        <time>2025-07-24T09:40:50Z</time>
      </trkpt>
      <trkpt lat="44.75164" lon="3.73313">
        <ele>1040.76</ele>
        <time>2025-07-24T09:40:53Z</time>
      </trkpt>
      <trkpt lat="44.75165" lon="3.7331">
        <ele>1040.76</ele>
        <time>2025-07-24T09:40:54Z</time>
      </trkpt>
      <trkpt lat="44.75165" lon="3.73307">
        <ele>1040.76</ele>
        <time>2025-07-24T09:40:55Z</time>
      </trkpt>
      <trkpt lat="44.75166" lon="3.73305">
        <ele>1040.76</ele>
        <time>2025-07-24T09:40:56Z</time>
      </trkpt>
      <trkpt lat="44.75166" lon="3.73303">
        <ele>1040.76</ele>
        <time>2025-07-24T09:40:57Z</time>
      </trkpt>
      <trkpt lat="44.75165" lon="3.73264">
        <ele>1040.76</ele>
        <time>2025-07-24T09:41:14Z</time>
      </trkpt>
      <trkpt lat="44.75163" lon="3.7323">
        <ele>1039.32</ele>
        <time>2025-07-24T09:41:30Z</time>
      </trkpt>
      <trkpt lat="44.75163" lon="3.73188">
        <ele>1037.88</ele>
        <time>2025-07-24T09:41:49Z</time>
      </trkpt>
      <trkpt lat="44.75165" lon="3.73173">
        <ele>1035</ele>
        <time>2025-07-24T09:42:00Z</time>
      </trkpt>
      <trkpt lat="44.75164" lon="3.73164">
        <ele>1034.04</ele>
        <time>2025-07-24T09:42:08Z</time>
      </trkpt>
      <trkpt lat="44.75165" lon="3.73162">
        <ele>1034.04</ele>
        <time>2025-07-24T09:42:09Z</time>
      </trkpt>
      <trkpt lat="44.75165" lon="3.73159">
        <ele>1034.04</ele>
        <time>2025-07-24T09:42:10Z</time>
      </trkpt>
      <trkpt lat="44.7517" lon="3.73126">
        <ele>1032.11</ele>
        <time>2025-07-24T09:42:27Z</time>
      </trkpt>
      <trkpt lat="44.75171" lon="3.73094">
        <ele>1028.75</ele>
        <time>2025-07-24T09:42:44Z</time>
      </trkpt>
      <trkpt lat="44.75177" lon="3.73059">
        <ele>1024.42</ele>
        <time>2025-07-24T09:43:00Z</time>
      </trkpt>
      <trkpt lat="44.75179" lon="3.73046">
        <ele>1023.94</ele>
        <time>2025-07-24T09:43:07Z</time>
      </trkpt>
      <trkpt lat="44.75179" lon="3.73018">
        <ele>1024.42</ele>
        <time>2025-07-24T09:43:21Z</time>
      </trkpt>
      <trkpt lat="44.75184" lon="3.72996">
        <ele>1021.06</ele>
        <time>2025-07-24T09:43:33Z</time>
      </trkpt>
      <trkpt lat="44.75184" lon="3.72995">
        <ele>1021.06</ele>
        <time>2025-07-24T09:43:34Z</time>
      </trkpt>
      <trkpt lat="44.75186" lon="3.72962">
        <ele>1022.02</ele>
        <time>2025-07-24T09:43:49Z</time>
      </trkpt>
      <trkpt lat="44.75187" lon="3.72933">
        <ele>1025.86</ele>
        <time>2025-07-24T09:44:03Z</time>
      </trkpt>
      <trkpt lat="44.75203" lon="3.72904">
        <ele>1023.46</ele>
        <time>2025-07-24T09:44:20Z</time>
      </trkpt>
      <trkpt lat="44.75212" lon="3.72882">
        <ele>1021.06</ele>
        <time>2025-07-24T09:44:34Z</time>
      </trkpt>
      <trkpt lat="44.75213" lon="3.72881">
        <ele>1020.58</ele>
        <time>2025-07-24T09:44:35Z</time>
      </trkpt>
      <trkpt lat="44.75214" lon="3.7288">
        <ele>1020.58</ele>
        <time>2025-07-24T09:44:36Z</time>
      </trkpt>
      <trkpt lat="44.75226" lon="3.72858">
        <ele>1015.77</ele>
        <time>2025-07-24T09:44:52Z</time>
      </trkpt>
      <trkpt lat="44.75228" lon="3.72855">
        <ele>1014.81</ele>
        <time>2025-07-24T09:44:55Z</time>
      </trkpt>
      <trkpt lat="44.75242" lon="3.72844">
        <ele>1010.96</ele>
        <time>2025-07-24T09:45:08Z</time>
      </trkpt>
      <trkpt lat="44.75242" lon="3.72843">
        <ele>1012.41</ele>
        <time>2025-07-24T09:45:21Z</time>
      </trkpt>
      <trkpt lat="44.75241" lon="3.72843">
        <ele>1012.89</ele>
        <time>2025-07-24T09:45:22Z</time>
      </trkpt>
      <trkpt lat="44.75241" lon="3.72841">
        <ele>1014.81</ele>
        <time>2025-07-24T09:45:34Z</time>
      </trkpt>
      <trkpt lat="44.75242" lon="3.72839">
        <ele>1014.81</ele>
        <time>2025-07-24T09:45:35Z</time>
      </trkpt>
      <trkpt lat="44.75242" lon="3.72836">
        <ele>1014.81</ele>
        <time>2025-07-24T09:45:37Z</time>
      </trkpt>
      <trkpt lat="44.75241" lon="3.7283">
        <ele>1013.85</ele>
        <time>2025-07-24T09:45:44Z</time>
      </trkpt>
      <trkpt lat="44.7524" lon="3.7283">
        <ele>1013.85</ele>
        <time>2025-07-24T09:45:45Z</time>
      </trkpt>
      <trkpt lat="44.75239" lon="3.72831">
        <ele>1013.85</ele>
        <time>2025-07-24T09:45:46Z</time>
      </trkpt>
      <trkpt lat="44.75238" lon="3.72831">
        <ele>1013.85</ele>
        <time>2025-07-24T09:45:47Z</time>
      </trkpt>
      <trkpt lat="44.75236" lon="3.72831">
        <ele>1013.85</ele>
        <time>2025-07-24T09:45:48Z</time>
      </trkpt>
      <trkpt lat="44.75226" lon="3.72836">
        <ele>1014.33</ele>
        <time>2025-07-24T09:46:01Z</time>
      </trkpt>
      <trkpt lat="44.75217" lon="3.72841">
        <ele>1016.25</ele>
        <time>2025-07-24T09:46:16Z</time>
      </trkpt>
      <trkpt lat="44.75209" lon="3.72845">
        <ele>1019.13</ele>
        <time>2025-07-24T09:46:23Z</time>
      </trkpt>
      <trkpt lat="44.75196" lon="3.7285">
        <ele>1029.71</ele>
        <time>2025-07-24T09:46:37Z</time>
      </trkpt>
      <trkpt lat="44.75187" lon="3.72857">
        <ele>1029.71</ele>
        <time>2025-07-24T09:46:45Z</time>
      </trkpt>
      <trkpt lat="44.75186" lon="3.72859">
        <ele>1030.19</ele>
        <time>2025-07-24T09:46:46Z</time>
      </trkpt>
      <trkpt lat="44.75184" lon="3.7286">
        <ele>1029.71</ele>
        <time>2025-07-24T09:46:47Z</time>
      </trkpt>
      <trkpt lat="44.75183" lon="3.72861">
        <ele>1029.71</ele>
        <time>2025-07-24T09:46:48Z</time>
      </trkpt>
      <trkpt lat="44.75182" lon="3.72862">
        <ele>1029.23</ele>
        <time>2025-07-24T09:46:49Z</time>
      </trkpt>
      <trkpt lat="44.7518" lon="3.72862">
        <ele>1029.23</ele>
        <time>2025-07-24T09:46:50Z</time>
      </trkpt>
      <trkpt lat="44.75159" lon="3.72877">
        <ele>1025.86</ele>
        <time>2025-07-24T09:47:04Z</time>
      </trkpt>
      <trkpt lat="44.75138" lon="3.72889">
        <ele>1023.46</ele>
        <time>2025-07-24T09:47:18Z</time>
      </trkpt>
      <trkpt lat="44.75107" lon="3.72903">
        <ele>1013.37</ele>
        <time>2025-07-24T09:47:34Z</time>
      </trkpt>
      <trkpt lat="44.75082" lon="3.72915">
        <ele>1008.08</ele>
        <time>2025-07-24T09:47:51Z</time>
      </trkpt>
      <trkpt lat="44.75071" lon="3.72913">
        <ele>1003.75</ele>
        <time>2025-07-24T09:48:05Z</time>
      </trkpt>
      <trkpt lat="44.75051" lon="3.72919">
        <ele>999.91</ele>
        <time>2025-07-24T09:48:20Z</time>
      </trkpt>
      <trkpt lat="44.75029" lon="3.72922">
        <ele>998.95</ele>
        <time>2025-07-24T09:48:36Z</time>
      </trkpt>
      <trkpt lat="44.75007" lon="3.72925">
        <ele>999.91</ele>
        <time>2025-07-24T09:48:55Z</time>
      </trkpt>
      <trkpt lat="44.7501" lon="3.72926">
        <ele>999.91</ele>
        <time>2025-07-24T09:49:00Z</time>
      </trkpt>
      <trkpt lat="44.75011" lon="3.72926">
        <ele>999.43</ele>
        <time>2025-07-24T09:49:01Z</time>
      </trkpt>
      <trkpt lat="44.75012" lon="3.72926">
        <ele>999.43</ele>
        <time>2025-07-24T09:49:02Z</time>
      </trkpt>
      <trkpt lat="44.75013" lon="3.72926">
        <ele>998.95</ele>
        <time>2025-07-24T09:49:03Z</time>
      </trkpt>
      <trkpt lat="44.75014" lon="3.72925">
        <ele>998.95</ele>
        <time>2025-07-24T09:49:04Z</time>
      </trkpt>
      <trkpt lat="44.75016" lon="3.72925">
        <ele>998.95</ele>
        <time>2025-07-24T09:49:05Z</time>
      </trkpt>
      <trkpt lat="44.75018" lon="3.72925">
        <ele>998.47</ele>
        <time>2025-07-24T09:49:06Z</time>
      </trkpt>
      <trkpt lat="44.7504" lon="3.72921">
        <ele>997.51</ele>
        <time>2025-07-24T09:49:20Z</time>
      </trkpt>
      <trkpt lat="44.75064" lon="3.72917">
        <ele>996.06</ele>
        <time>2025-07-24T09:49:36Z</time>
      </trkpt>
      <trkpt lat="44.75086" lon="3.72905">
        <ele>998.95</ele>
        <time>2025-07-24T09:49:51Z</time>
      </trkpt>
      <trkpt lat="44.75102" lon="3.72902">
        <ele>998.47</ele>
        <time>2025-07-24T09:50:01Z</time>
      </trkpt>
      <trkpt lat="44.75124" lon="3.72889">
        <ele>997.51</ele>
        <time>2025-07-24T09:50:16Z</time>
      </trkpt>
      <trkpt lat="44.75135" lon="3.72876">
        <ele>999.91</ele>
        <time>2025-07-24T09:50:27Z</time>
      </trkpt>
      <trkpt lat="44.75151" lon="3.72852">
        <ele>999.91</ele>
        <time>2025-07-24T09:50:40Z</time>
      </trkpt>
      <trkpt lat="44.75151" lon="3.7285">
        <ele>999.91</ele>
        <time>2025-07-24T09:50:41Z</time>
      </trkpt>
      <trkpt lat="44.75151" lon="3.72849">
        <ele>999.91</ele>
        <time>2025-07-24T09:50:42Z</time>
      </trkpt>
      <trkpt lat="44.7515" lon="3.72848">
        <ele>999.91</ele>
        <time>2025-07-24T09:50:45Z</time>
      </trkpt>
      <trkpt lat="44.75135" lon="3.72869">
        <ele>998.47</ele>
        <time>2025-07-24T09:51:00Z</time>
      </trkpt>
      <trkpt lat="44.75114" lon="3.72882">
        <ele>995.1</ele>
        <time>2025-07-24T09:51:15Z</time>
      </trkpt>
      <trkpt lat="44.75095" lon="3.72896">
        <ele>990.3</ele>
        <time>2025-07-24T09:51:29Z</time>
      </trkpt>
      <trkpt lat="44.75078" lon="3.72903">
        <ele>988.37</ele>
        <time>2025-07-24T09:51:42Z</time>
      </trkpt>
      <trkpt lat="44.7506" lon="3.72901">
        <ele>984.53</ele>
        <time>2025-07-24T09:51:59Z</time>
      </trkpt>
      <trkpt lat="44.75036" lon="3.72901">
        <ele>983.57</ele>
        <time>2025-07-24T09:52:12Z</time>
      </trkpt>
      <trkpt lat="44.75031" lon="3.72897">
        <ele>983.57</ele>
        <time>2025-07-24T09:52:14Z</time>
      </trkpt>
      <trkpt lat="44.7503" lon="3.72896">
        <ele>983.09</ele>
        <time>2025-07-24T09:52:15Z</time>
      </trkpt>
      <trkpt lat="44.75028" lon="3.72896">
        <ele>983.09</ele>
        <time>2025-07-24T09:52:16Z</time>
      </trkpt>
      <trkpt lat="44.75027" lon="3.72895">
        <ele>982.6</ele>
        <time>2025-07-24T09:52:17Z</time>
      </trkpt>
      <trkpt lat="44.75027" lon="3.72894">
        <ele>982.6</ele>
        <time>2025-07-24T09:52:18Z</time>
      </trkpt>
      <trkpt lat="44.75027" lon="3.72886">
        <ele>981.64</ele>
        <time>2025-07-24T09:52:23Z</time>
      </trkpt>
      <trkpt lat="44.75029" lon="3.72851">
        <ele>981.64</ele>
        <time>2025-07-24T09:52:41Z</time>
      </trkpt>
      <trkpt lat="44.75045" lon="3.7283">
        <ele>983.09</ele>
        <time>2025-07-24T09:52:54Z</time>
      </trkpt>
      <trkpt lat="44.7505" lon="3.72826">
        <ele>983.09</ele>
        <time>2025-07-24T09:52:59Z</time>
      </trkpt>
      <trkpt lat="44.75064" lon="3.72816">
        <ele>983.57</ele>
        <time>2025-07-24T09:53:11Z</time>
      </trkpt>
      <trkpt lat="44.7508" lon="3.72796">
        <ele>982.6</ele>
        <time>2025-07-24T09:53:26Z</time>
      </trkpt>
      <trkpt lat="44.75088" lon="3.72773">
        <ele>986.93</ele>
        <time>2025-07-24T09:53:39Z</time>
      </trkpt>
      <trkpt lat="44.75089" lon="3.72772">
        <ele>987.41</ele>
        <time>2025-07-24T09:53:40Z</time>
      </trkpt>
      <trkpt lat="44.75098" lon="3.72746">
        <ele>990.3</ele>
        <time>2025-07-24T09:53:52Z</time>
      </trkpt>
      <trkpt lat="44.75099" lon="3.72744">
        <ele>990.78</ele>
        <time>2025-07-24T09:53:53Z</time>
      </trkpt>
      <trkpt lat="44.75101" lon="3.72728">
        <ele>992.7</ele>
        <time>2025-07-24T09:54:02Z</time>
      </trkpt>
      <trkpt lat="44.75104" lon="3.72705">
        <ele>993.18</ele>
        <time>2025-07-24T09:54:15Z</time>
      </trkpt>
      <trkpt lat="44.75106" lon="3.72678">
        <ele>993.18</ele>
        <time>2025-07-24T09:54:30Z</time>
      </trkpt>
      <trkpt lat="44.75109" lon="3.7264">
        <ele>994.14</ele>
        <time>2025-07-24T09:54:46Z</time>
      </trkpt>
      <trkpt lat="44.75109" lon="3.72638">
        <ele>993.66</ele>
        <time>2025-07-24T09:54:47Z</time>
      </trkpt>
      <trkpt lat="44.75109" lon="3.72634">
        <ele>993.66</ele>
        <time>2025-07-24T09:54:48Z</time>
      </trkpt>
      <trkpt lat="44.75109" lon="3.72631">
        <ele>993.18</ele>
        <time>2025-07-24T09:54:49Z</time>
      </trkpt>
      <trkpt lat="44.7511" lon="3.72628">
        <ele>993.18</ele>
        <time>2025-07-24T09:54:50Z</time>
      </trkpt>
      <trkpt lat="44.75111" lon="3.72625">
        <ele>993.18</ele>
        <time>2025-07-24T09:54:51Z</time>
      </trkpt>
      <trkpt lat="44.75111" lon="3.72623">
        <ele>993.18</ele>
        <time>2025-07-24T09:54:52Z</time>
      </trkpt>
      <trkpt lat="44.75111" lon="3.7262">
        <ele>993.18</ele>
        <time>2025-07-24T09:54:53Z</time>
      </trkpt>
      <trkpt lat="44.75114" lon="3.72592">
        <ele>993.66</ele>
        <time>2025-07-24T09:55:07Z</time>
      </trkpt>
      <trkpt lat="44.75119" lon="3.72551">
        <ele>997.02</ele>
        <time>2025-07-24T09:55:24Z</time>
      </trkpt>
      <trkpt lat="44.75122" lon="3.72527">
        <ele>999.43</ele>
        <time>2025-07-24T09:55:38Z</time>
      </trkpt>
      <trkpt lat="44.75122" lon="3.72522">
        <ele>999.43</ele>
        <time>2025-07-24T09:55:41Z</time>
      </trkpt>
      <trkpt lat="44.75118" lon="3.72498">
        <ele>999.91</ele>
        <time>2025-07-24T09:55:54Z</time>
      </trkpt>
      <trkpt lat="44.75118" lon="3.72463">
        <ele>1004.23</ele>
        <time>2025-07-24T09:56:08Z</time>
      </trkpt>
      <trkpt lat="44.75119" lon="3.72433">
        <ele>1005.2</ele>
        <time>2025-07-24T09:56:23Z</time>
      </trkpt>
      <trkpt lat="44.75122" lon="3.72405">
        <ele>1006.64</ele>
        <time>2025-07-24T09:56:37Z</time>
      </trkpt>
      <trkpt lat="44.75125" lon="3.7238">
        <ele>1007.12</ele>
        <time>2025-07-24T09:56:51Z</time>
      </trkpt>
      <trkpt lat="44.75132" lon="3.72358">
        <ele>1010</ele>
        <time>2025-07-24T09:57:00Z</time>
      </trkpt>
      <trkpt lat="44.75142" lon="3.72332">
        <ele>1011.44</ele>
        <time>2025-07-24T09:57:15Z</time>
      </trkpt>
      <trkpt lat="44.75154" lon="3.72295">
        <ele>1012.41</ele>
        <time>2025-07-24T09:57:34Z</time>
      </trkpt>
      <trkpt lat="44.75167" lon="3.72261">
        <ele>1015.77</ele>
        <time>2025-07-24T09:57:49Z</time>
      </trkpt>
      <trkpt lat="44.75168" lon="3.72259">
        <ele>1015.77</ele>
        <time>2025-07-24T09:57:50Z</time>
      </trkpt>
      <trkpt lat="44.75189" lon="3.72236">
        <ele>1016.25</ele>
        <time>2025-07-24T09:58:08Z</time>
      </trkpt>
      <trkpt lat="44.75209" lon="3.72213">
        <ele>1019.62</ele>
        <time>2025-07-24T09:58:25Z</time>
      </trkpt>
      <trkpt lat="44.75226" lon="3.72194">
        <ele>1019.62</ele>
        <time>2025-07-24T09:58:39Z</time>
      </trkpt>
      <trkpt lat="44.75249" lon="3.72177">
        <ele>1020.1</ele>
        <time>2025-07-24T09:58:57Z</time>
      </trkpt>
      <trkpt lat="44.75271" lon="3.7216">
        <ele>1022.98</ele>
        <time>2025-07-24T09:59:13Z</time>
      </trkpt>
      <trkpt lat="44.75293" lon="3.72141">
        <ele>1024.42</ele>
        <time>2025-07-24T09:59:31Z</time>
      </trkpt>
      <trkpt lat="44.75311" lon="3.72114">
        <ele>1027.31</ele>
        <time>2025-07-24T09:59:50Z</time>
      </trkpt>
      <trkpt lat="44.75327" lon="3.72079">
        <ele>1030.19</ele>
        <time>2025-07-24T10:00:10Z</time>
      </trkpt>
      <trkpt lat="44.75333" lon="3.72042">
        <ele>1031.15</ele>
        <time>2025-07-24T10:00:31Z</time>
      </trkpt>
      <trkpt lat="44.75326" lon="3.72007">
        <ele>1032.11</ele>
        <time>2025-07-24T10:00:48Z</time>
      </trkpt>
      <trkpt lat="44.75313" lon="3.71978">
        <ele>1035</ele>
        <time>2025-07-24T10:01:07Z</time>
      </trkpt>
      <trkpt lat="44.753" lon="3.71947">
        <ele>1035.48</ele>
        <time>2025-07-24T10:01:25Z</time>
      </trkpt>
      <trkpt lat="44.7529" lon="3.71919">
        <ele>1034.52</ele>
        <time>2025-07-24T10:01:41Z</time>
      </trkpt>
      <trkpt lat="44.75273" lon="3.71886">
        <ele>1034.52</ele>
        <time>2025-07-24T10:02:01Z</time>
      </trkpt>
      <trkpt lat="44.75249" lon="3.71869">
        <ele>1037.88</ele>
        <time>2025-07-24T10:02:19Z</time>
      </trkpt>
      <trkpt lat="44.75241" lon="3.7184">
        <ele>1039.32</ele>
        <time>2025-07-24T10:02:32Z</time>
      </trkpt>
      <trkpt lat="44.75241" lon="3.71808">
        <ele>1040.76</ele>
        <time>2025-07-24T10:02:46Z</time>
      </trkpt>
      <trkpt lat="44.75241" lon="3.71773">
        <ele>1042.21</ele>
        <time>2025-07-24T10:03:04Z</time>
      </trkpt>
      <trkpt lat="44.75247" lon="3.71736">
        <ele>1044.61</ele>
        <time>2025-07-24T10:03:21Z</time>
      </trkpt>
      <trkpt lat="44.75252" lon="3.71717">
        <ele>1046.05</ele>
        <time>2025-07-24T10:03:31Z</time>
      </trkpt>
      <trkpt lat="44.75255" lon="3.71707">
        <ele>1045.57</ele>
        <time>2025-07-24T10:03:36Z</time>
      </trkpt>
      <trkpt lat="44.75256" lon="3.71706">
        <ele>1045.57</ele>
        <time>2025-07-24T10:03:37Z</time>
      </trkpt>
      <trkpt lat="44.75257" lon="3.71703">
        <ele>1045.57</ele>
        <time>2025-07-24T10:03:38Z</time>
      </trkpt>
      <trkpt lat="44.75272" lon="3.71677">
        <ele>1046.05</ele>
        <time>2025-07-24T10:03:54Z</time>
      </trkpt>
      <trkpt lat="44.75287" lon="3.71659">
        <ele>1046.53</ele>
        <time>2025-07-24T10:04:08Z</time>
      </trkpt>
      <trkpt lat="44.75301" lon="3.71635">
        <ele>1048.45</ele>
        <time>2025-07-24T10:04:23Z</time>
      </trkpt>
      <trkpt lat="44.75316" lon="3.71604">
        <ele>1050.86</ele>
        <time>2025-07-24T10:04:40Z</time>
      </trkpt>
      <trkpt lat="44.75329" lon="3.71578">
        <ele>1053.26</ele>
        <time>2025-07-24T10:04:57Z</time>
      </trkpt>
      <trkpt lat="44.75342" lon="3.71556">
        <ele>1053.74</ele>
        <time>2025-07-24T10:05:11Z</time>
      </trkpt>
      <trkpt lat="44.75362" lon="3.71532">
        <ele>1055.67</ele>
        <time>2025-07-24T10:05:26Z</time>
      </trkpt>
      <trkpt lat="44.7538" lon="3.71521">
        <ele>1055.18</ele>
        <time>2025-07-24T10:05:40Z</time>
      </trkpt>
      <trkpt lat="44.75396" lon="3.71504">
        <ele>1055.67</ele>
        <time>2025-07-24T10:05:52Z</time>
      </trkpt>
      <trkpt lat="44.75418" lon="3.71488">
        <ele>1059.99</ele>
        <time>2025-07-24T10:06:08Z</time>
      </trkpt>
      <trkpt lat="44.75424" lon="3.71471">
        <ele>1060.95</ele>
        <time>2025-07-24T10:06:21Z</time>
      </trkpt>
      <trkpt lat="44.75423" lon="3.7147">
        <ele>1060.95</ele>
        <time>2025-07-24T10:06:22Z</time>
      </trkpt>
      <trkpt lat="44.75421" lon="3.7147">
        <ele>1061.43</ele>
        <time>2025-07-24T10:06:23Z</time>
      </trkpt>
      <trkpt lat="44.75397" lon="3.71483">
        <ele>1062.87</ele>
        <time>2025-07-24T10:06:42Z</time>
      </trkpt>
      <trkpt lat="44.75379" lon="3.71491">
        <ele>1063.84</ele>
        <time>2025-07-24T10:06:58Z</time>
      </trkpt>
      <trkpt lat="44.7536" lon="3.71502">
        <ele>1064.32</ele>
        <time>2025-07-24T10:07:13Z</time>
      </trkpt>
      <trkpt lat="44.75354" lon="3.71499">
        <ele>1063.84</ele>
        <time>2025-07-24T10:07:29Z</time>
      </trkpt>
      <trkpt lat="44.7536" lon="3.71496">
        <ele>1063.84</ele>
        <time>2025-07-24T10:07:33Z</time>
      </trkpt>
      <trkpt lat="44.75368" lon="3.71477">
        <ele>1066.72</ele>
        <time>2025-07-24T10:07:48Z</time>
      </trkpt>
      <trkpt lat="44.75364" lon="3.71453">
        <ele>1071.05</ele>
        <time>2025-07-24T10:08:02Z</time>
      </trkpt>
      <trkpt lat="44.75378" lon="3.71431">
        <ele>1072.49</ele>
        <time>2025-07-24T10:08:18Z</time>
      </trkpt>
      <trkpt lat="44.7539" lon="3.71409">
        <ele>1073.93</ele>
        <time>2025-07-24T10:08:34Z</time>
      </trkpt>
      <trkpt lat="44.75407" lon="3.71381">
        <ele>1076.33</ele>
        <time>2025-07-24T10:08:51Z</time>
      </trkpt>
      <trkpt lat="44.75418" lon="3.71353">
        <ele>1078.74</ele>
        <time>2025-07-24T10:09:09Z</time>
      </trkpt>
      <trkpt lat="44.75427" lon="3.71325">
        <ele>1080.18</ele>
        <time>2025-07-24T10:09:27Z</time>
      </trkpt>
      <trkpt lat="44.75433" lon="3.71298">
        <ele>1083.54</ele>
        <time>2025-07-24T10:09:45Z</time>
      </trkpt>
      <trkpt lat="44.75436" lon="3.71271">
        <ele>1085.95</ele>
        <time>2025-07-24T10:10:02Z</time>
      </trkpt>
      <trkpt lat="44.7543" lon="3.71244">
        <ele>1087.39</ele>
        <time>2025-07-24T10:10:20Z</time>
      </trkpt>
      <trkpt lat="44.75426" lon="3.71234">
        <ele>1087.39</ele>
        <time>2025-07-24T10:10:37Z</time>
      </trkpt>
      <trkpt lat="44.75426" lon="3.71213">
        <ele>1089.31</ele>
        <time>2025-07-24T10:10:51Z</time>
      </trkpt>
      <trkpt lat="44.75429" lon="3.7119">
        <ele>1098.44</ele>
        <time>2025-07-24T10:11:05Z</time>
      </trkpt>
      <trkpt lat="44.75434" lon="3.71162">
        <ele>1099.4</ele>
        <time>2025-07-24T10:11:25Z</time>
      </trkpt>
      <trkpt lat="44.75435" lon="3.71132">
        <ele>1106.61</ele>
        <time>2025-07-24T10:11:41Z</time>
      </trkpt>
      <trkpt lat="44.75435" lon="3.71104">
        <ele>1116.71</ele>
        <time>2025-07-24T10:11:56Z</time>
      </trkpt>
      <trkpt lat="44.75435" lon="3.71103">
        <ele>1116.71</ele>
        <time>2025-07-24T10:11:57Z</time>
      </trkpt>
      <trkpt lat="44.75444" lon="3.71092">
        <ele>1117.67</ele>
        <time>2025-07-24T10:12:13Z</time>
      </trkpt>
      <trkpt lat="44.75443" lon="3.71089">
        <ele>1117.19</ele>
        <time>2025-07-24T10:12:28Z</time>
      </trkpt>
      <trkpt lat="44.75444" lon="3.71083">
        <ele>1117.67</ele>
        <time>2025-07-24T10:12:51Z</time>
      </trkpt>
      <trkpt lat="44.75443" lon="3.71077">
        <ele>1117.67</ele>
        <time>2025-07-24T10:12:58Z</time>
      </trkpt>
      <trkpt lat="44.75439" lon="3.71052">
        <ele>1118.63</ele>
        <time>2025-07-24T10:13:13Z</time>
      </trkpt>
      <trkpt lat="44.75434" lon="3.71029">
        <ele>1123.92</ele>
        <time>2025-07-24T10:13:30Z</time>
      </trkpt>
      <trkpt lat="44.7543" lon="3.71017">
        <ele>1124.88</ele>
        <time>2025-07-24T10:13:38Z</time>
      </trkpt>
      <trkpt lat="44.7543" lon="3.71014">
        <ele>1124.88</ele>
        <time>2025-07-24T10:13:39Z</time>
      </trkpt>
      <trkpt lat="44.75425" lon="3.70991">
        <ele>1125.84</ele>
        <time>2025-07-24T10:13:53Z</time>
      </trkpt>
      <trkpt lat="44.75424" lon="3.70983">
        <ele>1125.36</ele>
        <time>2025-07-24T10:13:58Z</time>
      </trkpt>
      <trkpt lat="44.75424" lon="3.70981">
        <ele>1125.36</ele>
        <time>2025-07-24T10:13:59Z</time>
      </trkpt>
      <trkpt lat="44.75421" lon="3.70956">
        <ele>1129.69</ele>
        <time>2025-07-24T10:14:12Z</time>
      </trkpt>
      <trkpt lat="44.75418" lon="3.70931">
        <ele>1134.49</ele>
        <time>2025-07-24T10:14:24Z</time>
      </trkpt>
      <trkpt lat="44.75417" lon="3.70907">
        <ele>1137.86</ele>
        <time>2025-07-24T10:14:39Z</time>
      </trkpt>
      <trkpt lat="44.75411" lon="3.70883">
        <ele>1135.45</ele>
        <time>2025-07-24T10:14:53Z</time>
      </trkpt>
      <trkpt lat="44.75401" lon="3.70855">
        <ele>1131.61</ele>
        <time>2025-07-24T10:15:09Z</time>
      </trkpt>
      <trkpt lat="44.75399" lon="3.70847">
        <ele>1131.13</ele>
        <time>2025-07-24T10:15:14Z</time>
      </trkpt>
      <trkpt lat="44.75385" lon="3.70816">
        <ele>1129.21</ele>
        <time>2025-07-24T10:15:33Z</time>
      </trkpt>
      <trkpt lat="44.75371" lon="3.70795">
        <ele>1128.73</ele>
        <time>2025-07-24T10:15:47Z</time>
      </trkpt>
      <trkpt lat="44.75345" lon="3.70766">
        <ele>1129.69</ele>
        <time>2025-07-24T10:16:10Z</time>
      </trkpt>
      <trkpt lat="44.75334" lon="3.70735">
        <ele>1134.49</ele>
        <time>2025-07-24T10:16:27Z</time>
      </trkpt>
      <trkpt lat="44.7532" lon="3.70694">
        <ele>1140.74</ele>
        <time>2025-07-24T10:16:48Z</time>
      </trkpt>
      <trkpt lat="44.75319" lon="3.70671">
        <ele>1147.95</ele>
        <time>2025-07-24T10:17:04Z</time>
      </trkpt>
      <trkpt lat="44.75318" lon="3.70649">
        <ele>1150.35</ele>
        <time>2025-07-24T10:17:21Z</time>
      </trkpt>
      <trkpt lat="44.75313" lon="3.70622">
        <ele>1153.72</ele>
        <time>2025-07-24T10:17:40Z</time>
      </trkpt>
      <trkpt lat="44.75305" lon="3.70579">
        <ele>1159.01</ele>
        <time>2025-07-24T10:17:59Z</time>
      </trkpt>
      <trkpt lat="44.75299" lon="3.70544">
        <ele>1166.7</ele>
        <time>2025-07-24T10:18:17Z</time>
      </trkpt>
      <trkpt lat="44.75292" lon="3.70515">
        <ele>1168.14</ele>
        <time>2025-07-24T10:18:35Z</time>
      </trkpt>
      <trkpt lat="44.75284" lon="3.70489">
        <ele>1167.18</ele>
        <time>2025-07-24T10:18:50Z</time>
      </trkpt>
      <trkpt lat="44.75281" lon="3.70475">
        <ele>1166.22</ele>
        <time>2025-07-24T10:18:58Z</time>
      </trkpt>
      <trkpt lat="44.75281" lon="3.70473">
        <ele>1165.26</ele>
        <time>2025-07-24T10:18:59Z</time>
      </trkpt>
      <trkpt lat="44.7528" lon="3.70471">
        <ele>1164.77</ele>
        <time>2025-07-24T10:19:00Z</time>
      </trkpt>
      <trkpt lat="44.7528" lon="3.70469">
        <ele>1164.77</ele>
        <time>2025-07-24T10:19:01Z</time>
      </trkpt>
      <trkpt lat="44.75279" lon="3.70466">
        <ele>1164.29</ele>
        <time>2025-07-24T10:19:02Z</time>
      </trkpt>
      <trkpt lat="44.75279" lon="3.70464">
        <ele>1164.29</ele>
        <time>2025-07-24T10:19:03Z</time>
      </trkpt>
      <trkpt lat="44.75274" lon="3.70437">
        <ele>1162.37</ele>
        <time>2025-07-24T10:19:17Z</time>
      </trkpt>
      <trkpt lat="44.75272" lon="3.70425">
        <ele>1159.49</ele>
        <time>2025-07-24T10:19:25Z</time>
      </trkpt>
      <trkpt lat="44.75268" lon="3.70404">
        <ele>1156.12</ele>
        <time>2025-07-24T10:19:40Z</time>
      </trkpt>
      <trkpt lat="44.75258" lon="3.70378">
        <ele>1155.64</ele>
        <time>2025-07-24T10:19:57Z</time>
      </trkpt>
      <trkpt lat="44.75246" lon="3.70358">
        <ele>1157.56</ele>
        <time>2025-07-24T10:20:12Z</time>
      </trkpt>
      <trkpt lat="44.75231" lon="3.7033">
        <ele>1162.85</ele>
        <time>2025-07-24T10:20:29Z</time>
      </trkpt>
      <trkpt lat="44.7522" lon="3.70303">
        <ele>1165.74</ele>
        <time>2025-07-24T10:20:45Z</time>
      </trkpt>
      <trkpt lat="44.75206" lon="3.70275">
        <ele>1165.26</ele>
        <time>2025-07-24T10:21:04Z</time>
      </trkpt>
      <trkpt lat="44.75201" lon="3.70249">
        <ele>1161.89</ele>
        <time>2025-07-24T10:21:22Z</time>
      </trkpt>
      <trkpt lat="44.7519" lon="3.70223">
        <ele>1167.18</ele>
        <time>2025-07-24T10:21:38Z</time>
      </trkpt>
      <trkpt lat="44.7518" lon="3.70207">
        <ele>1171.02</ele>
        <time>2025-07-24T10:21:51Z</time>
      </trkpt>
      <trkpt lat="44.75171" lon="3.7018">
        <ele>1167.66</ele>
        <time>2025-07-24T10:22:06Z</time>
      </trkpt>
      <trkpt lat="44.75158" lon="3.70152">
        <ele>1162.37</ele>
        <time>2025-07-24T10:22:22Z</time>
      </trkpt>
      <trkpt lat="44.75144" lon="3.70133">
        <ele>1161.89</ele>
        <time>2025-07-24T10:22:36Z</time>
      </trkpt>
      <trkpt lat="44.75131" lon="3.70114">
        <ele>1163.81</ele>
        <time>2025-07-24T10:22:51Z</time>
      </trkpt>
      <trkpt lat="44.7512" lon="3.70101">
        <ele>1165.74</ele>
        <time>2025-07-24T10:23:06Z</time>
      </trkpt>
      <trkpt lat="44.75106" lon="3.70083">
        <ele>1166.7</ele>
        <time>2025-07-24T10:23:20Z</time>
      </trkpt>
      <trkpt lat="44.75091" lon="3.70066">
        <ele>1167.18</ele>
        <time>2025-07-24T10:23:37Z</time>
      </trkpt>
      <trkpt lat="44.75072" lon="3.70043">
        <ele>1169.1</ele>
        <time>2025-07-24T10:23:54Z</time>
      </trkpt>
      <trkpt lat="44.75055" lon="3.70029">
        <ele>1170.54</ele>
        <time>2025-07-24T10:24:10Z</time>
      </trkpt>
      <trkpt lat="44.75037" lon="3.70015">
        <ele>1171.98</ele>
        <time>2025-07-24T10:24:24Z</time>
      </trkpt>
      <trkpt lat="44.75013" lon="3.69998">
        <ele>1173.91</ele>
        <time>2025-07-24T10:24:42Z</time>
      </trkpt>
      <trkpt lat="44.74995" lon="3.69992">
        <ele>1177.75</ele>
        <time>2025-07-24T10:24:59Z</time>
      </trkpt>
      <trkpt lat="44.74973" lon="3.69981">
        <ele>1179.19</ele>
        <time>2025-07-24T10:25:20Z</time>
      </trkpt>
      <trkpt lat="44.74952" lon="3.69968">
        <ele>1177.75</ele>
        <time>2025-07-24T10:25:37Z</time>
      </trkpt>
      <trkpt lat="44.74932" lon="3.69959">
        <ele>1178.23</ele>
        <time>2025-07-24T10:25:53Z</time>
      </trkpt>
      <trkpt lat="44.7491" lon="3.69948">
        <ele>1181.12</ele>
        <time>2025-07-24T10:26:10Z</time>
      </trkpt>
      <trkpt lat="44.74886" lon="3.69934">
        <ele>1182.56</ele>
        <time>2025-07-24T10:26:29Z</time>
      </trkpt>
      <trkpt lat="44.74868" lon="3.69923">
        <ele>1184.48</ele>
        <time>2025-07-24T10:26:45Z</time>
      </trkpt>
      <trkpt lat="44.74846" lon="3.699">
        <ele>1186.88</ele>
        <time>2025-07-24T10:27:00Z</time>
      </trkpt>
      <trkpt lat="44.74829" lon="3.69864">
        <ele>1184.96</ele>
        <time>2025-07-24T10:27:15Z</time>
      </trkpt>
      <trkpt lat="44.74817" lon="3.69837">
        <ele>1185.92</ele>
        <time>2025-07-24T10:27:32Z</time>
      </trkpt>
      <trkpt lat="44.74804" lon="3.69819">
        <ele>1184.48</ele>
        <time>2025-07-24T10:27:47Z</time>
      </trkpt>
      <trkpt lat="44.74793" lon="3.6979">
        <ele>1184.48</ele>
        <time>2025-07-24T10:28:04Z</time>
      </trkpt>
      <trkpt lat="44.74781" lon="3.69768">
        <ele>1188.33</ele>
        <time>2025-07-24T10:28:19Z</time>
      </trkpt>
      <trkpt lat="44.74768" lon="3.69751">
        <ele>1191.21</ele>
        <time>2025-07-24T10:28:35Z</time>
      </trkpt>
      <trkpt lat="44.7475" lon="3.69727">
        <ele>1195.54</ele>
        <time>2025-07-24T10:28:54Z</time>
      </trkpt>
      <trkpt lat="44.74736" lon="3.69699">
        <ele>1196.02</ele>
        <time>2025-07-24T10:29:13Z</time>
      </trkpt>
      <trkpt lat="44.74718" lon="3.6966">
        <ele>1195.06</ele>
        <time>2025-07-24T10:29:38Z</time>
      </trkpt>
      <trkpt lat="44.74703" lon="3.69627">
        <ele>1195.54</ele>
        <time>2025-07-24T10:29:57Z</time>
      </trkpt>
      <trkpt lat="44.7469" lon="3.69599">
        <ele>1196.5</ele>
        <time>2025-07-24T10:30:16Z</time>
      </trkpt>
      <trkpt lat="44.74679" lon="3.69566">
        <ele>1196.02</ele>
        <time>2025-07-24T10:30:33Z</time>
      </trkpt>
      <trkpt lat="44.74667" lon="3.69537">
        <ele>1195.06</ele>
        <time>2025-07-24T10:30:50Z</time>
      </trkpt>
      <trkpt lat="44.7466" lon="3.69509">
        <ele>1194.58</ele>
        <time>2025-07-24T10:31:05Z</time>
      </trkpt>
      <trkpt lat="44.74656" lon="3.69473">
        <ele>1196.98</ele>
        <time>2025-07-24T10:31:26Z</time>
      </trkpt>
      <trkpt lat="44.74649" lon="3.69437">
        <ele>1200.82</ele>
        <time>2025-07-24T10:31:44Z</time>
      </trkpt>
      <trkpt lat="44.74642" lon="3.69402">
        <ele>1202.75</ele>
        <time>2025-07-24T10:32:01Z</time>
      </trkpt>
      <trkpt lat="44.74636" lon="3.69375">
        <ele>1203.23</ele>
        <time>2025-07-24T10:32:17Z</time>
      </trkpt>
      <trkpt lat="44.74628" lon="3.69348">
        <ele>1205.15</ele>
        <time>2025-07-24T10:32:33Z</time>
      </trkpt>
      <trkpt lat="44.74618" lon="3.69307">
        <ele>1208.51</ele>
        <time>2025-07-24T10:32:55Z</time>
      </trkpt>
      <trkpt lat="44.74615" lon="3.69299">
        <ele>1209</ele>
        <time>2025-07-24T10:33:00Z</time>
      </trkpt>
      <trkpt lat="44.74613" lon="3.69296">
        <ele>1209</ele>
        <time>2025-07-24T10:33:02Z</time>
      </trkpt>
      <trkpt lat="44.74612" lon="3.69295">
        <ele>1209</ele>
        <time>2025-07-24T10:33:03Z</time>
      </trkpt>
      <trkpt lat="44.74611" lon="3.69294">
        <ele>1209</ele>
        <time>2025-07-24T10:33:04Z</time>
      </trkpt>
      <trkpt lat="44.7461" lon="3.69293">
        <ele>1209</ele>
        <time>2025-07-24T10:33:05Z</time>
      </trkpt>
      <trkpt lat="44.74608" lon="3.69293">
        <ele>1209.48</ele>
        <time>2025-07-24T10:33:06Z</time>
      </trkpt>
      <trkpt lat="44.74586" lon="3.69292">
        <ele>1205.15</ele>
        <time>2025-07-24T10:33:24Z</time>
      </trkpt>
      <trkpt lat="44.74571" lon="3.69292">
        <ele>1203.71</ele>
        <time>2025-07-24T10:33:35Z</time>
      </trkpt>
      <trkpt lat="44.7457" lon="3.69291">
        <ele>1203.71</ele>
        <time>2025-07-24T10:33:36Z</time>
      </trkpt>
      <trkpt lat="44.74569" lon="3.69265">
        <ele>1204.67</ele>
        <time>2025-07-24T10:33:52Z</time>
      </trkpt>
      <trkpt lat="44.74577" lon="3.69231">
        <ele>1203.23</ele>
        <time>2025-07-24T10:34:10Z</time>
      </trkpt>
      <trkpt lat="44.74582" lon="3.69197">
        <ele>1203.71</ele>
        <time>2025-07-24T10:34:28Z</time>
      </trkpt>
      <trkpt lat="44.74587" lon="3.6916">
        <ele>1204.19</ele>
        <time>2025-07-24T10:34:49Z</time>
      </trkpt>
      <trkpt lat="44.74591" lon="3.69126">
        <ele>1202.75</ele>
        <time>2025-07-24T10:35:06Z</time>
      </trkpt>
      <trkpt lat="44.74594" lon="3.69093">
        <ele>1204.19</ele>
        <time>2025-07-24T10:35:24Z</time>
      </trkpt>
      <trkpt lat="44.74593" lon="3.69083">
        <ele>1205.63</ele>
        <time>2025-07-24T10:35:28Z</time>
      </trkpt>
      <trkpt lat="44.74586" lon="3.69052">
        <ele>1207.07</ele>
        <time>2025-07-24T10:35:44Z</time>
      </trkpt>
      <trkpt lat="44.74589" lon="3.6902">
        <ele>1206.59</ele>
        <time>2025-07-24T10:36:00Z</time>
      </trkpt>
      <trkpt lat="44.74589" lon="3.68993">
        <ele>1213.32</ele>
        <time>2025-07-24T10:36:14Z</time>
      </trkpt>
      <trkpt lat="44.74585" lon="3.68975">
        <ele>1215.72</ele>
        <time>2025-07-24T10:36:25Z</time>
      </trkpt>
      <trkpt lat="44.74585" lon="3.68973">
        <ele>1216.21</ele>
        <time>2025-07-24T10:36:26Z</time>
      </trkpt>
      <trkpt lat="44.74583" lon="3.68951">
        <ele>1217.17</ele>
        <time>2025-07-24T10:36:39Z</time>
      </trkpt>
      <trkpt lat="44.74572" lon="3.68916">
        <ele>1217.65</ele>
        <time>2025-07-24T10:36:58Z</time>
      </trkpt>
      <trkpt lat="44.74563" lon="3.68885">
        <ele>1216.69</ele>
        <time>2025-07-24T10:37:15Z</time>
      </trkpt>
      <trkpt lat="44.74554" lon="3.68852">
        <ele>1215.72</ele>
        <time>2025-07-24T10:37:29Z</time>
      </trkpt>
      <trkpt lat="44.7455" lon="3.68821">
        <ele>1215.72</ele>
        <time>2025-07-24T10:37:47Z</time>
      </trkpt>
      <trkpt lat="44.74544" lon="3.68789">
        <ele>1215.72</ele>
        <time>2025-07-24T10:38:03Z</time>
      </trkpt>
      <trkpt lat="44.7454" lon="3.6876">
        <ele>1217.65</ele>
        <time>2025-07-24T10:38:16Z</time>
      </trkpt>
      <trkpt lat="44.74538" lon="3.68756">
        <ele>1217.17</ele>
        <time>2025-07-24T10:38:18Z</time>
      </trkpt>
      <trkpt lat="44.74535" lon="3.68754">
        <ele>1216.21</ele>
        <time>2025-07-24T10:38:21Z</time>
      </trkpt>
      <trkpt lat="44.74516" lon="3.68761">
        <ele>1216.69</ele>
        <time>2025-07-24T10:38:36Z</time>
      </trkpt>
      <trkpt lat="44.74497" lon="3.68771">
        <ele>1214.76</ele>
        <time>2025-07-24T10:38:51Z</time>
      </trkpt>
      <trkpt lat="44.74478" lon="3.68777">
        <ele>1212.36</ele>
        <time>2025-07-24T10:39:08Z</time>
      </trkpt>
      <trkpt lat="44.74459" lon="3.68787">
        <ele>1209</ele>
        <time>2025-07-24T10:39:24Z</time>
      </trkpt>
      <trkpt lat="44.74438" lon="3.68798">
        <ele>1208.03</ele>
        <time>2025-07-24T10:39:42Z</time>
      </trkpt>
      <trkpt lat="44.74401" lon="3.68809">
        <ele>1208.03</ele>
        <time>2025-07-24T10:40:02Z</time>
      </trkpt>
      <trkpt lat="44.74379" lon="3.6882">
        <ele>1206.11</ele>
        <time>2025-07-24T10:40:18Z</time>
      </trkpt>
      <trkpt lat="44.74351" lon="3.68823">
        <ele>1206.11</ele>
        <time>2025-07-24T10:40:36Z</time>
      </trkpt>
      <trkpt lat="44.74328" lon="3.68832">
        <ele>1202.27</ele>
        <time>2025-07-24T10:40:54Z</time>
      </trkpt>
      <trkpt lat="44.743" lon="3.68841">
        <ele>1205.63</ele>
        <time>2025-07-24T10:41:12Z</time>
      </trkpt>
      <trkpt lat="44.74271" lon="3.68853">
        <ele>1208.51</ele>
        <time>2025-07-24T10:41:32Z</time>
      </trkpt>
      <trkpt lat="44.74239" lon="3.68862">
        <ele>1215.72</ele>
        <time>2025-07-24T10:41:52Z</time>
      </trkpt>
      <trkpt lat="44.74214" lon="3.68873">
        <ele>1216.69</ele>
        <time>2025-07-24T10:42:10Z</time>
      </trkpt>
      <trkpt lat="44.74191" lon="3.68884">
        <ele>1216.21</ele>
        <time>2025-07-24T10:42:26Z</time>
      </trkpt>
      <trkpt lat="44.74164" lon="3.68886">
        <ele>1218.13</ele>
        <time>2025-07-24T10:42:45Z</time>
      </trkpt>
      <trkpt lat="44.74137" lon="3.68887">
        <ele>1220.05</ele>
        <time>2025-07-24T10:43:02Z</time>
      </trkpt>
      <trkpt lat="44.74111" lon="3.68889">
        <ele>1221.49</ele>
        <time>2025-07-24T10:43:19Z</time>
      </trkpt>
      <trkpt lat="44.74084" lon="3.68889">
        <ele>1221.97</ele>
        <time>2025-07-24T10:43:38Z</time>
      </trkpt>
      <trkpt lat="44.74056" lon="3.6889">
        <ele>1220.53</ele>
        <time>2025-07-24T10:43:58Z</time>
      </trkpt>
      <trkpt lat="44.74027" lon="3.68887">
        <ele>1220.05</ele>
        <time>2025-07-24T10:44:18Z</time>
      </trkpt>
      <trkpt lat="44.74" lon="3.68879">
        <ele>1218.61</ele>
        <time>2025-07-24T10:44:36Z</time>
      </trkpt>
      <trkpt lat="44.73974" lon="3.6887">
        <ele>1217.65</ele>
        <time>2025-07-24T10:44:55Z</time>
      </trkpt>
      <trkpt lat="44.73944" lon="3.6886">
        <ele>1217.65</ele>
        <time>2025-07-24T10:45:14Z</time>
      </trkpt>
      <trkpt lat="44.73916" lon="3.6885">
        <ele>1214.76</ele>
        <time>2025-07-24T10:45:35Z</time>
      </trkpt>
      <trkpt lat="44.73881" lon="3.68838">
        <ele>1216.21</ele>
        <time>2025-07-24T10:45:58Z</time>
      </trkpt>
      <trkpt lat="44.73853" lon="3.68828">
        <ele>1219.09</ele>
        <time>2025-07-24T10:46:16Z</time>
      </trkpt>
      <trkpt lat="44.73835" lon="3.68823">
        <ele>1222.93</ele>
        <time>2025-07-24T10:46:30Z</time>
      </trkpt>
      <trkpt lat="44.73812" lon="3.68826">
        <ele>1222.93</ele>
        <time>2025-07-24T10:46:51Z</time>
      </trkpt>
      <trkpt lat="44.73823" lon="3.6885">
        <ele>1224.38</ele>
        <time>2025-07-24T10:47:02Z</time>
      </trkpt>
      <trkpt lat="44.73824" lon="3.68852">
        <ele>1223.9</ele>
        <time>2025-07-24T10:47:03Z</time>
      </trkpt>
      <trkpt lat="44.73824" lon="3.68888">
        <ele>1225.34</ele>
        <time>2025-07-24T10:47:20Z</time>
      </trkpt>
      <trkpt lat="44.73825" lon="3.68922">
        <ele>1221.01</ele>
        <time>2025-07-24T10:47:37Z</time>
      </trkpt>
      <trkpt lat="44.73831" lon="3.68961">
        <ele>1216.69</ele>
        <time>2025-07-24T10:47:53Z</time>
      </trkpt>
      <trkpt lat="44.73829" lon="3.68992">
        <ele>1218.13</ele>
        <time>2025-07-24T10:48:11Z</time>
      </trkpt>
      <trkpt lat="44.73826" lon="3.69001">
        <ele>1219.09</ele>
        <time>2025-07-24T10:48:17Z</time>
      </trkpt>
      <trkpt lat="44.73818" lon="3.69036">
        <ele>1221.49</ele>
        <time>2025-07-24T10:48:35Z</time>
      </trkpt>
      <trkpt lat="44.73809" lon="3.69062">
        <ele>1222.93</ele>
        <time>2025-07-24T10:48:49Z</time>
      </trkpt>
      <trkpt lat="44.73807" lon="3.6909">
        <ele>1223.9</ele>
        <time>2025-07-24T10:49:03Z</time>
      </trkpt>
      <trkpt lat="44.73804" lon="3.69129">
        <ele>1223.9</ele>
        <time>2025-07-24T10:49:23Z</time>
      </trkpt>
      <trkpt lat="44.73803" lon="3.6917">
        <ele>1223.42</ele>
        <time>2025-07-24T10:49:42Z</time>
      </trkpt>
      <trkpt lat="44.738" lon="3.69206">
        <ele>1225.34</ele>
        <time>2025-07-24T10:50:00Z</time>
      </trkpt>
      <trkpt lat="44.73798" lon="3.69244">
        <ele>1224.86</ele>
        <time>2025-07-24T10:50:18Z</time>
      </trkpt>
      <trkpt lat="44.73795" lon="3.69277">
        <ele>1225.82</ele>
        <time>2025-07-24T10:50:35Z</time>
      </trkpt>
      <trkpt lat="44.73797" lon="3.69313">
        <ele>1226.78</ele>
        <time>2025-07-24T10:50:52Z</time>
      </trkpt>
      <trkpt lat="44.73797" lon="3.69326">
        <ele>1226.3</ele>
        <time>2025-07-24T10:51:00Z</time>
      </trkpt>
      <trkpt lat="44.73798" lon="3.69353">
        <ele>1225.82</ele>
        <time>2025-07-24T10:51:15Z</time>
      </trkpt>
      <trkpt lat="44.73794" lon="3.69392">
        <ele>1223.9</ele>
        <time>2025-07-24T10:51:33Z</time>
      </trkpt>
      <trkpt lat="44.73794" lon="3.69427">
        <ele>1225.34</ele>
        <time>2025-07-24T10:51:49Z</time>
      </trkpt>
      <trkpt lat="44.7379" lon="3.69461">
        <ele>1225.82</ele>
        <time>2025-07-24T10:52:06Z</time>
      </trkpt>
      <trkpt lat="44.73782" lon="3.69492">
        <ele>1224.86</ele>
        <time>2025-07-24T10:52:22Z</time>
      </trkpt>
      <trkpt lat="44.7378" lon="3.69507">
        <ele>1225.34</ele>
        <time>2025-07-24T10:52:29Z</time>
      </trkpt>
      <trkpt lat="44.7378" lon="3.6951">
        <ele>1225.34</ele>
        <time>2025-07-24T10:52:30Z</time>
      </trkpt>
      <trkpt lat="44.73784" lon="3.69536">
        <ele>1224.38</ele>
        <time>2025-07-24T10:52:41Z</time>
      </trkpt>
      <trkpt lat="44.73779" lon="3.69574">
        <ele>1223.42</ele>
        <time>2025-07-24T10:53:00Z</time>
      </trkpt>
      <trkpt lat="44.73778" lon="3.69601">
        <ele>1223.42</ele>
        <time>2025-07-24T10:53:13Z</time>
      </trkpt>
      <trkpt lat="44.73783" lon="3.69636">
        <ele>1222.93</ele>
        <time>2025-07-24T10:53:28Z</time>
      </trkpt>
      <trkpt lat="44.73788" lon="3.69672">
        <ele>1221.97</ele>
        <time>2025-07-24T10:53:45Z</time>
      </trkpt>
      <trkpt lat="44.73787" lon="3.69674">
        <ele>1221.49</ele>
        <time>2025-07-24T10:53:46Z</time>
      </trkpt>
      <trkpt lat="44.73784" lon="3.69692">
        <ele>1218.61</ele>
        <time>2025-07-24T10:54:01Z</time>
      </trkpt>
      <trkpt lat="44.73784" lon="3.69694">
        <ele>1218.13</ele>
        <time>2025-07-24T10:54:02Z</time>
      </trkpt>
      <trkpt lat="44.73783" lon="3.69695">
        <ele>1218.13</ele>
        <time>2025-07-24T10:54:03Z</time>
      </trkpt>
      <trkpt lat="44.73769" lon="3.69713">
        <ele>1217.17</ele>
        <time>2025-07-24T10:54:18Z</time>
      </trkpt>
      <trkpt lat="44.73766" lon="3.69714">
        <ele>1217.17</ele>
        <time>2025-07-24T10:54:21Z</time>
      </trkpt>
      <trkpt lat="44.73744" lon="3.69711">
        <ele>1216.69</ele>
        <time>2025-07-24T10:54:37Z</time>
      </trkpt>
      <trkpt lat="44.73716" lon="3.69707">
        <ele>1215.72</ele>
        <time>2025-07-24T10:54:58Z</time>
      </trkpt>
      <trkpt lat="44.73713" lon="3.69704">
        <ele>1215.72</ele>
        <time>2025-07-24T10:55:02Z</time>
      </trkpt>
      <trkpt lat="44.73688" lon="3.6971">
        <ele>1212.36</ele>
        <time>2025-07-24T10:55:18Z</time>
      </trkpt>
      <trkpt lat="44.73679" lon="3.69711">
        <ele>1209.96</ele>
        <time>2025-07-24T10:55:34Z</time>
      </trkpt>
      <trkpt lat="44.73673" lon="3.69709">
        <ele>1207.55</ele>
        <time>2025-07-24T10:55:51Z</time>
      </trkpt>
      <trkpt lat="44.73669" lon="3.69717">
        <ele>1207.55</ele>
        <time>2025-07-24T10:56:12Z</time>
      </trkpt>
      <trkpt lat="44.73651" lon="3.69713">
        <ele>1206.11</ele>
        <time>2025-07-24T10:56:26Z</time>
      </trkpt>
      <trkpt lat="44.73633" lon="3.69706">
        <ele>1206.11</ele>
        <time>2025-07-24T10:56:40Z</time>
      </trkpt>
      <trkpt lat="44.73627" lon="3.69703">
        <ele>1204.67</ele>
        <time>2025-07-24T10:56:54Z</time>
      </trkpt>
      <trkpt lat="44.73627" lon="3.69705">
        <ele>1203.71</ele>
        <time>2025-07-24T10:57:08Z</time>
      </trkpt>
      <trkpt lat="44.73643" lon="3.69702">
        <ele>1204.67</ele>
        <time>2025-07-24T10:57:22Z</time>
      </trkpt>
      <trkpt lat="44.73656" lon="3.69703">
        <ele>1205.15</ele>
        <time>2025-07-24T10:57:37Z</time>
      </trkpt>
      <trkpt lat="44.73665" lon="3.69706">
        <ele>1205.15</ele>
        <time>2025-07-24T10:57:49Z</time>
      </trkpt>
      <trkpt lat="44.73683" lon="3.69707">
        <ele>1205.15</ele>
        <time>2025-07-24T10:58:05Z</time>
      </trkpt>
      <trkpt lat="44.737" lon="3.69703">
        <ele>1206.11</ele>
        <time>2025-07-24T10:58:19Z</time>
      </trkpt>
      <trkpt lat="44.73714" lon="3.69704">
        <ele>1206.11</ele>
        <time>2025-07-24T10:58:42Z</time>
      </trkpt>
      <trkpt lat="44.73724" lon="3.69709">
        <ele>1206.11</ele>
        <time>2025-07-24T10:58:59Z</time>
      </trkpt>
      <trkpt lat="44.73736" lon="3.6971">
        <ele>1205.15</ele>
        <time>2025-07-24T10:59:13Z</time>
      </trkpt>
      <trkpt lat="44.73754" lon="3.69709">
        <ele>1205.15</ele>
        <time>2025-07-24T10:59:26Z</time>
      </trkpt>
      <trkpt lat="44.73768" lon="3.69706">
        <ele>1205.63</ele>
        <time>2025-07-24T10:59:43Z</time>
      </trkpt>
      <trkpt lat="44.73779" lon="3.69698">
        <ele>1206.59</ele>
        <time>2025-07-24T10:59:54Z</time>
      </trkpt>
      <trkpt lat="44.73801" lon="3.69715">
        <ele>1209.48</ele>
        <time>2025-07-24T11:00:07Z</time>
      </trkpt>
      <trkpt lat="44.73809" lon="3.69738">
        <ele>1211.4</ele>
        <time>2025-07-24T11:00:19Z</time>
      </trkpt>
      <trkpt lat="44.73813" lon="3.69767">
        <ele>1209</ele>
        <time>2025-07-24T11:00:33Z</time>
      </trkpt>
      <trkpt lat="44.73816" lon="3.69795">
        <ele>1207.07</ele>
        <time>2025-07-24T11:00:48Z</time>
      </trkpt>
      <trkpt lat="44.73822" lon="3.69813">
        <ele>1205.63</ele>
        <time>2025-07-24T11:00:56Z</time>
      </trkpt>
      <trkpt lat="44.73822" lon="3.69822">
        <ele>1204.19</ele>
        <time>2025-07-24T11:01:01Z</time>
      </trkpt>
      <trkpt lat="44.73822" lon="3.69825">
        <ele>1204.67</ele>
        <time>2025-07-24T11:01:03Z</time>
      </trkpt>
      <trkpt lat="44.73822" lon="3.69836">
        <ele>1203.23</ele>
        <time>2025-07-24T11:01:07Z</time>
      </trkpt>
      <trkpt lat="44.73827" lon="3.69863">
        <ele>1200.82</ele>
        <time>2025-07-24T11:01:21Z</time>
      </trkpt>
      <trkpt lat="44.73829" lon="3.69889">
        <ele>1201.3</ele>
        <time>2025-07-24T11:01:36Z</time>
      </trkpt>
      <trkpt lat="44.73836" lon="3.69913">
        <ele>1198.9</ele>
        <time>2025-07-24T11:01:49Z</time>
      </trkpt>
      <trkpt lat="44.73844" lon="3.69943">
        <ele>1196.02</ele>
        <time>2025-07-24T11:02:04Z</time>
      </trkpt>
      <trkpt lat="44.73854" lon="3.69971">
        <ele>1195.06</ele>
        <time>2025-07-24T11:02:18Z</time>
      </trkpt>
      <trkpt lat="44.73862" lon="3.69996">
        <ele>1197.94</ele>
        <time>2025-07-24T11:02:31Z</time>
      </trkpt>
      <trkpt lat="44.73864" lon="3.70019">
        <ele>1199.38</ele>
        <time>2025-07-24T11:02:45Z</time>
      </trkpt>
      <trkpt lat="44.73862" lon="3.70045">
        <ele>1201.3</ele>
        <time>2025-07-24T11:03:02Z</time>
      </trkpt>
      <trkpt lat="44.73869" lon="3.70073">
        <ele>1203.71</ele>
        <time>2025-07-24T11:03:16Z</time>
      </trkpt>
      <trkpt lat="44.73873" lon="3.70101">
        <ele>1202.75</ele>
        <time>2025-07-24T11:03:31Z</time>
      </trkpt>
      <trkpt lat="44.73874" lon="3.70104">
        <ele>1205.15</ele>
        <time>2025-07-24T11:03:48Z</time>
      </trkpt>
      <trkpt lat="44.73881" lon="3.70109">
        <ele>1206.11</ele>
        <time>2025-07-24T11:04:09Z</time>
      </trkpt>
      <trkpt lat="44.73868" lon="3.70098">
        <ele>1202.27</ele>
        <time>2025-07-24T11:04:28Z</time>
      </trkpt>
      <trkpt lat="44.7387" lon="3.70113">
        <ele>1201.3</ele>
        <time>2025-07-24T11:04:43Z</time>
      </trkpt>
      <trkpt lat="44.73861" lon="3.70124">
        <ele>1197.46</ele>
        <time>2025-07-24T11:05:01Z</time>
      </trkpt>
      <trkpt lat="44.73866" lon="3.7011">
        <ele>1222.93</ele>
        <time>2025-07-24T11:05:46Z</time>
      </trkpt>
      <trkpt lat="44.73873" lon="3.70123">
        <ele>1203.23</ele>
        <time>2025-07-24T11:06:07Z</time>
      </trkpt>
      <trkpt lat="44.7387" lon="3.70106">
        <ele>1207.07</ele>
        <time>2025-07-24T11:06:20Z</time>
      </trkpt>
      <trkpt lat="44.73866" lon="3.70103">
        <ele>1199.38</ele>
        <time>2025-07-24T11:06:40Z</time>
      </trkpt>
      <trkpt lat="44.73867" lon="3.70101">
        <ele>1197.46</ele>
        <time>2025-07-24T11:06:58Z</time>
      </trkpt>
      <trkpt lat="44.73872" lon="3.70096">
        <ele>1196.5</ele>
        <time>2025-07-24T11:07:14Z</time>
      </trkpt>
      <trkpt lat="44.73878" lon="3.70101">
        <ele>1198.42</ele>
        <time>2025-07-24T11:07:33Z</time>
      </trkpt>
      <trkpt lat="44.73868" lon="3.70094">
        <ele>1198.9</ele>
        <time>2025-07-24T11:07:52Z</time>
      </trkpt>
      <trkpt lat="44.73871" lon="3.70103">
        <ele>1201.3</ele>
        <time>2025-07-24T11:08:11Z</time>
      </trkpt>
      <trkpt lat="44.73871" lon="3.70107">
        <ele>1201.3</ele>
        <time>2025-07-24T11:08:32Z</time>
      </trkpt>
      <trkpt lat="44.73873" lon="3.70118">
        <ele>1198.42</ele>
        <time>2025-07-24T11:08:53Z</time>
      </trkpt>
      <trkpt lat="44.73881" lon="3.70147">
        <ele>1196.5</ele>
        <time>2025-07-24T11:09:08Z</time>
      </trkpt>
      <trkpt lat="44.73889" lon="3.7017">
        <ele>1201.3</ele>
        <time>2025-07-24T11:09:25Z</time>
      </trkpt>
      <trkpt lat="44.73894" lon="3.70209">
        <ele>1207.07</ele>
        <time>2025-07-24T11:09:44Z</time>
      </trkpt>
      <trkpt lat="44.73891" lon="3.70226">
        <ele>1206.59</ele>
        <time>2025-07-24T11:09:51Z</time>
      </trkpt>
      <trkpt lat="44.73881" lon="3.70268">
        <ele>1209</ele>
        <time>2025-07-24T11:10:11Z</time>
      </trkpt>
      <trkpt lat="44.73877" lon="3.7031">
        <ele>1208.03</ele>
        <time>2025-07-24T11:10:28Z</time>
      </trkpt>
      <trkpt lat="44.73874" lon="3.70341">
        <ele>1206.11</ele>
        <time>2025-07-24T11:10:45Z</time>
      </trkpt>
      <trkpt lat="44.73878" lon="3.70365">
        <ele>1201.79</ele>
        <time>2025-07-24T11:10:55Z</time>
      </trkpt>
      <trkpt lat="44.73885" lon="3.70403">
        <ele>1193.61</ele>
        <time>2025-07-24T11:11:11Z</time>
      </trkpt>
      <trkpt lat="44.73892" lon="3.70442">
        <ele>1188.33</ele>
        <time>2025-07-24T11:11:28Z</time>
      </trkpt>
      <trkpt lat="44.73884" lon="3.70477">
        <ele>1185.44</ele>
        <time>2025-07-24T11:11:44Z</time>
      </trkpt>
      <trkpt lat="44.73875" lon="3.70518">
        <ele>1183.52</ele>
        <time>2025-07-24T11:12:02Z</time>
      </trkpt>
      <trkpt lat="44.73873" lon="3.70549">
        <ele>1183.52</ele>
        <time>2025-07-24T11:12:17Z</time>
      </trkpt>
      <trkpt lat="44.73888" lon="3.70575">
        <ele>1181.6</ele>
        <time>2025-07-24T11:12:33Z</time>
      </trkpt>
      <trkpt lat="44.739" lon="3.70607">
        <ele>1180.64</ele>
        <time>2025-07-24T11:12:49Z</time>
      </trkpt>
      <trkpt lat="44.7391" lon="3.70644">
        <ele>1179.67</ele>
        <time>2025-07-24T11:13:05Z</time>
      </trkpt>
      <trkpt lat="44.7392" lon="3.70683">
        <ele>1177.27</ele>
        <time>2025-07-24T11:13:24Z</time>
      </trkpt>
      <trkpt lat="44.7393" lon="3.70711">
        <ele>1173.91</ele>
        <time>2025-07-24T11:13:41Z</time>
      </trkpt>
      <trkpt lat="44.73929" lon="3.7075">
        <ele>1171.5</ele>
        <time>2025-07-24T11:14:01Z</time>
      </trkpt>
      <trkpt lat="44.73923" lon="3.70765">
        <ele>1171.02</ele>
        <time>2025-07-24T11:14:08Z</time>
      </trkpt>
      <trkpt lat="44.73909" lon="3.70785">
        <ele>1168.62</ele>
        <time>2025-07-24T11:14:20Z</time>
      </trkpt>
      <trkpt lat="44.73908" lon="3.70787">
        <ele>1168.62</ele>
        <time>2025-07-24T11:14:21Z</time>
      </trkpt>
      <trkpt lat="44.739" lon="3.70817">
        <ele>1167.18</ele>
        <time>2025-07-24T11:14:36Z</time>
      </trkpt>
      <trkpt lat="44.73898" lon="3.70823">
        <ele>1166.22</ele>
        <time>2025-07-24T11:14:39Z</time>
      </trkpt>
      <trkpt lat="44.73898" lon="3.70843">
        <ele>1162.37</ele>
        <time>2025-07-24T11:14:51Z</time>
      </trkpt>
      <trkpt lat="44.73897" lon="3.7085">
        <ele>1161.89</ele>
        <time>2025-07-24T11:14:55Z</time>
      </trkpt>
      <trkpt lat="44.73887" lon="3.70872">
        <ele>1158.53</ele>
        <time>2025-07-24T11:15:11Z</time>
      </trkpt>
      <trkpt lat="44.73882" lon="3.70887">
        <ele>1158.05</ele>
        <time>2025-07-24T11:15:18Z</time>
      </trkpt>
      <trkpt lat="44.73883" lon="3.70897">
        <ele>1157.56</ele>
        <time>2025-07-24T11:15:24Z</time>
      </trkpt>
      <trkpt lat="44.73899" lon="3.70898">
        <ele>1154.68</ele>
        <time>2025-07-24T11:15:39Z</time>
      </trkpt>
      <trkpt lat="44.73911" lon="3.70909">
        <ele>1153.72</ele>
        <time>2025-07-24T11:15:49Z</time>
      </trkpt>
      <trkpt lat="44.73909" lon="3.70938">
        <ele>1151.8</ele>
        <time>2025-07-24T11:16:05Z</time>
      </trkpt>
      <trkpt lat="44.73912" lon="3.7095">
        <ele>1149.87</ele>
        <time>2025-07-24T11:16:13Z</time>
      </trkpt>
      <trkpt lat="44.73916" lon="3.70955">
        <ele>1149.39</ele>
        <time>2025-07-24T11:16:17Z</time>
      </trkpt>
      <trkpt lat="44.73935" lon="3.70977">
        <ele>1146.03</ele>
        <time>2025-07-24T11:16:34Z</time>
      </trkpt>
      <trkpt lat="44.73953" lon="3.71005">
        <ele>1142.66</ele>
        <time>2025-07-24T11:16:53Z</time>
      </trkpt>
      <trkpt lat="44.73967" lon="3.7103">
        <ele>1141.22</ele>
        <time>2025-07-24T11:17:09Z</time>
      </trkpt>
      <trkpt lat="44.73981" lon="3.71048">
        <ele>1137.86</ele>
        <time>2025-07-24T11:17:24Z</time>
      </trkpt>
      <trkpt lat="44.73991" lon="3.71074">
        <ele>1136.42</ele>
        <time>2025-07-24T11:17:41Z</time>
      </trkpt>
      <trkpt lat="44.73993" lon="3.71089">
        <ele>1135.45</ele>
        <time>2025-07-24T11:17:51Z</time>
      </trkpt>
      <trkpt lat="44.73989" lon="3.71101">
        <ele>1135.45</ele>
        <time>2025-07-24T11:18:04Z</time>
      </trkpt>
      <trkpt lat="44.73971" lon="3.71112">
        <ele>1134.01</ele>
        <time>2025-07-24T11:18:20Z</time>
      </trkpt>
      <trkpt lat="44.73962" lon="3.71112">
        <ele>1133.53</ele>
        <time>2025-07-24T11:18:28Z</time>
      </trkpt>
      <trkpt lat="44.73938" lon="3.71121">
        <ele>1132.57</ele>
        <time>2025-07-24T11:18:44Z</time>
      </trkpt>
      <trkpt lat="44.73928" lon="3.71132">
        <ele>1131.61</ele>
        <time>2025-07-24T11:18:53Z</time>
      </trkpt>
      <trkpt lat="44.73924" lon="3.71147">
        <ele>1129.21</ele>
        <time>2025-07-24T11:19:02Z</time>
      </trkpt>
      <trkpt lat="44.73929" lon="3.71174">
        <ele>1127.28</ele>
        <time>2025-07-24T11:19:17Z</time>
      </trkpt>
      <trkpt lat="44.73941" lon="3.71202">
        <ele>1124.88</ele>
        <time>2025-07-24T11:19:33Z</time>
      </trkpt>
      <trkpt lat="44.73942" lon="3.71233">
        <ele>1124.88</ele>
        <time>2025-07-24T11:19:50Z</time>
      </trkpt>
      <trkpt lat="44.73931" lon="3.7126">
        <ele>1121.03</ele>
        <time>2025-07-24T11:20:05Z</time>
      </trkpt>
      <trkpt lat="44.73916" lon="3.71288">
        <ele>1118.15</ele>
        <time>2025-07-24T11:20:21Z</time>
      </trkpt>
      <trkpt lat="44.73911" lon="3.71293">
        <ele>1116.71</ele>
        <time>2025-07-24T11:20:25Z</time>
      </trkpt>
      <trkpt lat="44.73897" lon="3.71311">
        <ele>1113.34</ele>
        <time>2025-07-24T11:20:39Z</time>
      </trkpt>
      <trkpt lat="44.73884" lon="3.7133">
        <ele>1115.27</ele>
        <time>2025-07-24T11:20:50Z</time>
      </trkpt>
      <trkpt lat="44.73863" lon="3.71353">
        <ele>1114.79</ele>
        <time>2025-07-24T11:21:07Z</time>
      </trkpt>
      <trkpt lat="44.73846" lon="3.71372">
        <ele>1111.9</ele>
        <time>2025-07-24T11:21:21Z</time>
      </trkpt>
      <trkpt lat="44.7383" lon="3.71391">
        <ele>1110.46</ele>
        <time>2025-07-24T11:21:36Z</time>
      </trkpt>
      <trkpt lat="44.73816" lon="3.71411">
        <ele>1109.02</ele>
        <time>2025-07-24T11:21:50Z</time>
      </trkpt>
      <trkpt lat="44.73814" lon="3.71412">
        <ele>1109.02</ele>
        <time>2025-07-24T11:21:51Z</time>
      </trkpt>
      <trkpt lat="44.73796" lon="3.71437">
        <ele>1105.17</ele>
        <time>2025-07-24T11:22:07Z</time>
      </trkpt>
      <trkpt lat="44.73783" lon="3.71469">
        <ele>1102.77</ele>
        <time>2025-07-24T11:22:26Z</time>
      </trkpt>
      <trkpt lat="44.7378" lon="3.71515">
        <ele>1100.37</ele>
        <time>2025-07-24T11:22:46Z</time>
      </trkpt>
      <trkpt lat="44.73782" lon="3.71552">
        <ele>1099.4</ele>
        <time>2025-07-24T11:23:02Z</time>
      </trkpt>
      <trkpt lat="44.73787" lon="3.7159">
        <ele>1098.92</ele>
        <time>2025-07-24T11:23:19Z</time>
      </trkpt>
      <trkpt lat="44.73797" lon="3.71616">
        <ele>1098.44</ele>
        <time>2025-07-24T11:23:35Z</time>
      </trkpt>
      <trkpt lat="44.73818" lon="3.71638">
        <ele>1099.89</ele>
        <time>2025-07-24T11:23:54Z</time>
      </trkpt>
      <trkpt lat="44.7384" lon="3.71669">
        <ele>1098.44</ele>
        <time>2025-07-24T11:24:15Z</time>
      </trkpt>
      <trkpt lat="44.7385" lon="3.71695">
        <ele>1102.29</ele>
        <time>2025-07-24T11:24:31Z</time>
      </trkpt>
      <trkpt lat="44.73855" lon="3.71722">
        <ele>1108.06</ele>
        <time>2025-07-24T11:24:47Z</time>
      </trkpt>
      <trkpt lat="44.73858" lon="3.71731">
        <ele>1109.5</ele>
        <time>2025-07-24T11:25:04Z</time>
      </trkpt>
      <trkpt lat="44.7386" lon="3.71736">
        <ele>1112.38</ele>
        <time>2025-07-24T11:25:14Z</time>
      </trkpt>
      <trkpt lat="44.73861" lon="3.71739">
        <ele>1114.79</ele>
        <time>2025-07-24T11:25:36Z</time>
      </trkpt>
      <trkpt lat="44.73863" lon="3.71747">
        <ele>1115.75</ele>
        <time>2025-07-24T11:25:40Z</time>
      </trkpt>
      <trkpt lat="44.73865" lon="3.71753">
        <ele>1114.79</ele>
        <time>2025-07-24T11:25:43Z</time>
      </trkpt>
      <trkpt lat="44.73868" lon="3.71763">
        <ele>1115.27</ele>
        <time>2025-07-24T11:25:52Z</time>
      </trkpt>
      <trkpt lat="44.73871" lon="3.71764">
        <ele>1117.67</ele>
        <time>2025-07-24T11:26:11Z</time>
      </trkpt>
      <trkpt lat="44.73872" lon="3.7177">
        <ele>1117.67</ele>
        <time>2025-07-24T11:26:16Z</time>
      </trkpt>
      <trkpt lat="44.73886" lon="3.71797">
        <ele>1117.67</ele>
        <time>2025-07-24T11:26:32Z</time>
      </trkpt>
      <trkpt lat="44.73906" lon="3.71832">
        <ele>1118.15</ele>
        <time>2025-07-24T11:26:53Z</time>
      </trkpt>
      <trkpt lat="44.73929" lon="3.71858">
        <ele>1125.84</ele>
        <time>2025-07-24T11:27:16Z</time>
      </trkpt>
      <trkpt lat="44.73956" lon="3.71889">
        <ele>1127.28</ele>
        <time>2025-07-24T11:27:40Z</time>
      </trkpt>
      <trkpt lat="44.73978" lon="3.71915">
        <ele>1127.28</ele>
        <time>2025-07-24T11:28:03Z</time>
      </trkpt>
      <trkpt lat="44.73999" lon="3.71935">
        <ele>1131.61</ele>
        <time>2025-07-24T11:28:22Z</time>
      </trkpt>
      <trkpt lat="44.74017" lon="3.71961">
        <ele>1130.17</ele>
        <time>2025-07-24T11:28:41Z</time>
      </trkpt>
      <trkpt lat="44.74034" lon="3.72002">
        <ele>1130.17</ele>
        <time>2025-07-24T11:29:02Z</time>
      </trkpt>
      <trkpt lat="44.74024" lon="3.72046">
        <ele>1128.24</ele>
        <time>2025-07-24T11:29:24Z</time>
      </trkpt>
      <trkpt lat="44.74006" lon="3.72082">
        <ele>1126.32</ele>
        <time>2025-07-24T11:29:43Z</time>
      </trkpt>
      <trkpt lat="44.73993" lon="3.72115">
        <ele>1126.8</ele>
        <time>2025-07-24T11:30:01Z</time>
      </trkpt>
      <trkpt lat="44.73978" lon="3.72148">
        <ele>1128.24</ele>
        <time>2025-07-24T11:30:21Z</time>
      </trkpt>
      <trkpt lat="44.73975" lon="3.72152">
        <ele>1128.73</ele>
        <time>2025-07-24T11:30:24Z</time>
      </trkpt>
      <trkpt lat="44.73969" lon="3.72164">
        <ele>1130.65</ele>
        <time>2025-07-24T11:30:32Z</time>
      </trkpt>
      <trkpt lat="44.73957" lon="3.72189">
        <ele>1131.61</ele>
        <time>2025-07-24T11:30:52Z</time>
      </trkpt>
      <trkpt lat="44.73944" lon="3.72212">
        <ele>1131.13</ele>
        <time>2025-07-24T11:31:10Z</time>
      </trkpt>
      <trkpt lat="44.73936" lon="3.72219">
        <ele>1130.17</ele>
        <time>2025-07-24T11:31:19Z</time>
      </trkpt>
      <trkpt lat="44.73919" lon="3.72249">
        <ele>1132.09</ele>
        <time>2025-07-24T11:31:38Z</time>
      </trkpt>
      <trkpt lat="44.73906" lon="3.72283">
        <ele>1135.94</ele>
        <time>2025-07-24T11:31:57Z</time>
      </trkpt>
      <trkpt lat="44.73894" lon="3.72311">
        <ele>1135.94</ele>
        <time>2025-07-24T11:32:13Z</time>
      </trkpt>
      <trkpt lat="44.73875" lon="3.72343">
        <ele>1132.57</ele>
        <time>2025-07-24T11:32:31Z</time>
      </trkpt>
      <trkpt lat="44.73859" lon="3.72363">
        <ele>1129.21</ele>
        <time>2025-07-24T11:32:46Z</time>
      </trkpt>
      <trkpt lat="44.73852" lon="3.72373">
        <ele>1126.32</ele>
        <time>2025-07-24T11:32:54Z</time>
      </trkpt>
      <trkpt lat="44.73837" lon="3.72387">
        <ele>1124.4</ele>
        <time>2025-07-24T11:33:09Z</time>
      </trkpt>
      <trkpt lat="44.73823" lon="3.72414">
        <ele>1125.84</ele>
        <time>2025-07-24T11:33:24Z</time>
      </trkpt>
      <trkpt lat="44.7381" lon="3.72434">
        <ele>1124.88</ele>
        <time>2025-07-24T11:33:39Z</time>
      </trkpt>
      <trkpt lat="44.73789" lon="3.72459">
        <ele>1123.44</ele>
        <time>2025-07-24T11:33:57Z</time>
      </trkpt>
      <trkpt lat="44.73774" lon="3.72486">
        <ele>1125.36</ele>
        <time>2025-07-24T11:34:13Z</time>
      </trkpt>
      <trkpt lat="44.73754" lon="3.72514">
        <ele>1129.69</ele>
        <time>2025-07-24T11:34:32Z</time>
      </trkpt>
      <trkpt lat="44.73732" lon="3.72527">
        <ele>1129.69</ele>
        <time>2025-07-24T11:34:51Z</time>
      </trkpt>
      <trkpt lat="44.73713" lon="3.72548">
        <ele>1131.13</ele>
        <time>2025-07-24T11:35:09Z</time>
      </trkpt>
      <trkpt lat="44.73711" lon="3.72549">
        <ele>1132.09</ele>
        <time>2025-07-24T11:35:10Z</time>
      </trkpt>
      <trkpt lat="44.73692" lon="3.72561">
        <ele>1131.61</ele>
        <time>2025-07-24T11:35:25Z</time>
      </trkpt>
      <trkpt lat="44.73673" lon="3.72576">
        <ele>1127.76</ele>
        <time>2025-07-24T11:35:42Z</time>
      </trkpt>
      <trkpt lat="44.73659" lon="3.72582">
        <ele>1125.84</ele>
        <time>2025-07-24T11:35:59Z</time>
      </trkpt>
      <trkpt lat="44.73651" lon="3.72583">
        <ele>1130.17</ele>
        <time>2025-07-24T11:36:18Z</time>
      </trkpt>
      <trkpt lat="44.73652" lon="3.72582">
        <ele>1127.76</ele>
        <time>2025-07-24T11:36:38Z</time>
      </trkpt>
      <trkpt lat="44.73648" lon="3.72571">
        <ele>1127.76</ele>
        <time>2025-07-24T11:37:02Z</time>
      </trkpt>
      <trkpt lat="44.73647" lon="3.72566">
        <ele>1131.13</ele>
        <time>2025-07-24T11:37:26Z</time>
      </trkpt>
      <trkpt lat="44.73649" lon="3.72568">
        <ele>1130.65</ele>
        <time>2025-07-24T11:37:50Z</time>
      </trkpt>
      <trkpt lat="44.73651" lon="3.7257">
        <ele>1131.61</ele>
        <time>2025-07-24T11:38:11Z</time>
      </trkpt>
      <trkpt lat="44.73652" lon="3.72575">
        <ele>1131.61</ele>
        <time>2025-07-24T11:38:32Z</time>
      </trkpt>
      <trkpt lat="44.7365" lon="3.7258">
        <ele>1131.61</ele>
        <time>2025-07-24T11:38:49Z</time>
      </trkpt>
      <trkpt lat="44.73647" lon="3.72579">
        <ele>1134.01</ele>
        <time>2025-07-24T11:39:11Z</time>
      </trkpt>
      <trkpt lat="44.73645" lon="3.72573">
        <ele>1134.97</ele>
        <time>2025-07-24T11:39:32Z</time>
      </trkpt>
      <trkpt lat="44.73645" lon="3.72586">
        <ele>1132.09</ele>
        <time>2025-07-24T11:39:54Z</time>
      </trkpt>
      <trkpt lat="44.7364" lon="3.72588">
        <ele>1129.69</ele>
        <time>2025-07-24T11:40:12Z</time>
      </trkpt>
      <trkpt lat="44.73636" lon="3.72593">
        <ele>1127.76</ele>
        <time>2025-07-24T11:40:32Z</time>
      </trkpt>
      <trkpt lat="44.73638" lon="3.72589">
        <ele>1128.24</ele>
        <time>2025-07-24T11:40:48Z</time>
      </trkpt>
      <trkpt lat="44.73638" lon="3.72591">
        <ele>1129.21</ele>
        <time>2025-07-24T11:41:07Z</time>
      </trkpt>
      <trkpt lat="44.73642" lon="3.72581">
        <ele>1129.21</ele>
        <time>2025-07-24T11:41:32Z</time>
      </trkpt>
      <trkpt lat="44.7364" lon="3.72593">
        <ele>1127.28</ele>
        <time>2025-07-24T11:41:47Z</time>
      </trkpt>
      <trkpt lat="44.73638" lon="3.72591">
        <ele>1124.88</ele>
        <time>2025-07-24T11:42:12Z</time>
      </trkpt>
      <trkpt lat="44.73639" lon="3.72594">
        <ele>1126.32</ele>
        <time>2025-07-24T11:42:31Z</time>
      </trkpt>
      <trkpt lat="44.73637" lon="3.72591">
        <ele>1127.28</ele>
        <time>2025-07-24T11:42:55Z</time>
      </trkpt>
      <trkpt lat="44.73642" lon="3.72588">
        <ele>1127.76</ele>
        <time>2025-07-24T11:43:17Z</time>
      </trkpt>
      <trkpt lat="44.73641" lon="3.72583">
        <ele>1126.8</ele>
        <time>2025-07-24T11:43:31Z</time>
      </trkpt>
      <trkpt lat="44.73644" lon="3.7258">
        <ele>1125.84</ele>
        <time>2025-07-24T11:43:58Z</time>
      </trkpt>
      <trkpt lat="44.73651" lon="3.72583">
        <ele>1130.17</ele>
        <time>2025-07-24T11:44:18Z</time>
      </trkpt>
      <trkpt lat="44.73644" lon="3.72585">
        <ele>1129.69</ele>
        <time>2025-07-24T11:44:42Z</time>
      </trkpt>
      <trkpt lat="44.73642" lon="3.7258">
        <ele>1129.21</ele>
        <time>2025-07-24T11:45:08Z</time>
      </trkpt>
      <trkpt lat="44.73643" lon="3.72574">
        <ele>1131.61</ele>
        <time>2025-07-24T11:45:32Z</time>
      </trkpt>
      <trkpt lat="44.73648" lon="3.72572">
        <ele>1128.24</ele>
        <time>2025-07-24T11:46:01Z</time>
      </trkpt>
      <trkpt lat="44.73648" lon="3.72575">
        <ele>1130.65</ele>
        <time>2025-07-24T11:46:21Z</time>
      </trkpt>
      <trkpt lat="44.73641" lon="3.72578">
        <ele>1132.09</ele>
        <time>2025-07-24T11:46:44Z</time>
      </trkpt>
      <trkpt lat="44.73643" lon="3.72576">
        <ele>1134.01</ele>
        <time>2025-07-24T11:47:06Z</time>
      </trkpt>
      <trkpt lat="44.73642" lon="3.72579">
        <ele>1136.9</ele>
        <time>2025-07-24T11:47:28Z</time>
      </trkpt>
      <trkpt lat="44.73653" lon="3.72583">
        <ele>1136.9</ele>
        <time>2025-07-24T11:47:47Z</time>
      </trkpt>
      <trkpt lat="44.73646" lon="3.72577">
        <ele>1140.26</ele>
        <time>2025-07-24T11:48:14Z</time>
      </trkpt>
      <trkpt lat="44.7365" lon="3.72581">
        <ele>1141.7</ele>
        <time>2025-07-24T11:48:33Z</time>
      </trkpt>
      <trkpt lat="44.73648" lon="3.72588">
        <ele>1137.86</ele>
        <time>2025-07-24T11:48:54Z</time>
      </trkpt>
      <trkpt lat="44.73645" lon="3.72586">
        <ele>1136.42</ele>
        <time>2025-07-24T11:49:23Z</time>
      </trkpt>
      <trkpt lat="44.73643" lon="3.72581">
        <ele>1137.38</ele>
        <time>2025-07-24T11:49:45Z</time>
      </trkpt>
      <trkpt lat="44.7364" lon="3.72579">
        <ele>1140.26</ele>
        <time>2025-07-24T11:50:17Z</time>
      </trkpt>
      <trkpt lat="44.73633" lon="3.72577">
        <ele>1141.22</ele>
        <time>2025-07-24T11:50:38Z</time>
      </trkpt>
      <trkpt lat="44.73637" lon="3.72577">
        <ele>1140.26</ele>
        <time>2025-07-24T11:51:08Z</time>
      </trkpt>
      <trkpt lat="44.73642" lon="3.72579">
        <ele>1143.63</ele>
        <time>2025-07-24T11:51:36Z</time>
      </trkpt>
      <trkpt lat="44.73641" lon="3.72576">
        <ele>1144.11</ele>
        <time>2025-07-24T11:52:10Z</time>
      </trkpt>
      <trkpt lat="44.73642" lon="3.7258">
        <ele>1144.59</ele>
        <time>2025-07-24T11:52:40Z</time>
      </trkpt>
      <trkpt lat="44.73644" lon="3.7258">
        <ele>1139.78</ele>
        <time>2025-07-24T11:53:06Z</time>
      </trkpt>
      <trkpt lat="44.73642" lon="3.7258">
        <ele>1135.94</ele>
        <time>2025-07-24T11:53:33Z</time>
      </trkpt>
      <trkpt lat="44.73645" lon="3.7258">
        <ele>1138.82</ele>
        <time>2025-07-24T11:54:00Z</time>
      </trkpt>
      <trkpt lat="44.73641" lon="3.72579">
        <ele>1141.22</ele>
        <time>2025-07-24T11:54:34Z</time>
      </trkpt>
      <trkpt lat="44.7364" lon="3.72581">
        <ele>1137.86</ele>
        <time>2025-07-24T11:55:03Z</time>
      </trkpt>
      <trkpt lat="44.73643" lon="3.72584">
        <ele>1140.26</ele>
        <time>2025-07-24T11:55:29Z</time>
      </trkpt>
      <trkpt lat="44.73648" lon="3.72582">
        <ele>1138.82</ele>
        <time>2025-07-24T11:56:00Z</time>
      </trkpt>
      <trkpt lat="44.7365" lon="3.72579">
        <ele>1138.34</ele>
        <time>2025-07-24T11:56:27Z</time>
      </trkpt>
      <trkpt lat="44.73651" lon="3.72581">
        <ele>1141.22</ele>
        <time>2025-07-24T11:56:52Z</time>
      </trkpt>
      <trkpt lat="44.73649" lon="3.7258">
        <ele>1138.34</ele>
        <time>2025-07-24T11:57:22Z</time>
      </trkpt>
      <trkpt lat="44.73649" lon="3.72585">
        <ele>1136.42</ele>
        <time>2025-07-24T11:57:42Z</time>
      </trkpt>
      <trkpt lat="44.73648" lon="3.72586">
        <ele>1140.26</ele>
        <time>2025-07-24T11:58:02Z</time>
      </trkpt>
      <trkpt lat="44.73651" lon="3.72588">
        <ele>1142.66</ele>
        <time>2025-07-24T11:58:31Z</time>
      </trkpt>
      <trkpt lat="44.73642" lon="3.72597">
        <ele>1137.86</ele>
        <time>2025-07-24T11:59:00Z</time>
      </trkpt>
      <trkpt lat="44.73643" lon="3.726">
        <ele>1139.78</ele>
        <time>2025-07-24T11:59:28Z</time>
      </trkpt>
      <trkpt lat="44.73645" lon="3.726">
        <ele>1138.34</ele>
        <time>2025-07-24T11:59:54Z</time>
      </trkpt>
      <trkpt lat="44.73645" lon="3.72597">
        <ele>1136.9</ele>
        <time>2025-07-24T12:00:19Z</time>
      </trkpt>
      <trkpt lat="44.73645" lon="3.72596">
        <ele>1134.97</ele>
        <time>2025-07-24T12:00:50Z</time>
      </trkpt>
      <trkpt lat="44.73645" lon="3.72596">
        <ele>1135.45</ele>
        <time>2025-07-24T12:01:22Z</time>
      </trkpt>
      <trkpt lat="44.73646" lon="3.72597">
        <ele>1135.45</ele>
        <time>2025-07-24T12:01:57Z</time>
      </trkpt>
      <trkpt lat="44.73646" lon="3.72602">
        <ele>1140.26</ele>
        <time>2025-07-24T12:02:25Z</time>
      </trkpt>
      <trkpt lat="44.73648" lon="3.72608">
        <ele>1148.91</ele>
        <time>2025-07-24T12:03:02Z</time>
      </trkpt>
      <trkpt lat="44.73645" lon="3.72602">
        <ele>1148.43</ele>
        <time>2025-07-24T12:03:29Z</time>
      </trkpt>
      <trkpt lat="44.73644" lon="3.72599">
        <ele>1146.03</ele>
        <time>2025-07-24T12:03:53Z</time>
      </trkpt>
      <trkpt lat="44.73643" lon="3.72596">
        <ele>1144.59</ele>
        <time>2025-07-24T12:04:25Z</time>
      </trkpt>
      <trkpt lat="44.73643" lon="3.72595">
        <ele>1144.59</ele>
        <time>2025-07-24T12:04:26Z</time>
      </trkpt>
      <trkpt lat="44.73531" lon="3.7269">
        <ele>1122</ele>
        <time>2025-07-24T13:45:35Z</time>
      </trkpt>
      <trkpt lat="44.73511" lon="3.72702">
        <ele>1120.55</ele>
        <time>2025-07-24T13:45:51Z</time>
      </trkpt>
      <trkpt lat="44.73492" lon="3.72716">
        <ele>1120.07</ele>
        <time>2025-07-24T13:46:07Z</time>
      </trkpt>
      <trkpt lat="44.73478" lon="3.72736">
        <ele>1118.63</ele>
        <time>2025-07-24T13:46:21Z</time>
      </trkpt>
      <trkpt lat="44.73474" lon="3.72744">
        <ele>1118.63</ele>
        <time>2025-07-24T13:46:26Z</time>
      </trkpt>
      <trkpt lat="44.7347" lon="3.72757">
        <ele>1117.19</ele>
        <time>2025-07-24T13:46:37Z</time>
      </trkpt>
      <trkpt lat="44.73459" lon="3.72788">
        <ele>1115.27</ele>
        <time>2025-07-24T13:46:56Z</time>
      </trkpt>
      <trkpt lat="44.73458" lon="3.72793">
        <ele>1115.27</ele>
        <time>2025-07-24T13:46:59Z</time>
      </trkpt>
      <trkpt lat="44.73459" lon="3.72804">
        <ele>1116.23</ele>
        <time>2025-07-24T13:47:15Z</time>
      </trkpt>
      <trkpt lat="44.73475" lon="3.72837">
        <ele>1116.71</ele>
        <time>2025-07-24T13:47:32Z</time>
      </trkpt>
      <trkpt lat="44.73475" lon="3.72856">
        <ele>1116.23</ele>
        <time>2025-07-24T13:47:42Z</time>
      </trkpt>
      <trkpt lat="44.73457" lon="3.72894">
        <ele>1116.23</ele>
        <time>2025-07-24T13:47:57Z</time>
      </trkpt>
      <trkpt lat="44.73455" lon="3.72912">
        <ele>1116.71</ele>
        <time>2025-07-24T13:48:11Z</time>
      </trkpt>
      <trkpt lat="44.73443" lon="3.72934">
        <ele>1117.19</ele>
        <time>2025-07-24T13:48:23Z</time>
      </trkpt>
      <trkpt lat="44.73424" lon="3.72968">
        <ele>1121.52</ele>
        <time>2025-07-24T13:48:42Z</time>
      </trkpt>
      <trkpt lat="44.73405" lon="3.73005">
        <ele>1123.92</ele>
        <time>2025-07-24T13:48:57Z</time>
      </trkpt>
      <trkpt lat="44.73396" lon="3.73015">
        <ele>1124.88</ele>
        <time>2025-07-24T13:49:13Z</time>
      </trkpt>
      <trkpt lat="44.73389" lon="3.73019">
        <ele>1123.92</ele>
        <time>2025-07-24T13:49:22Z</time>
      </trkpt>
      <trkpt lat="44.73373" lon="3.73036">
        <ele>1121.52</ele>
        <time>2025-07-24T13:49:37Z</time>
      </trkpt>
      <trkpt lat="44.73354" lon="3.73044">
        <ele>1122</ele>
        <time>2025-07-24T13:49:52Z</time>
      </trkpt>
      <trkpt lat="44.7333" lon="3.73049">
        <ele>1125.36</ele>
        <time>2025-07-24T13:50:09Z</time>
      </trkpt>
      <trkpt lat="44.73308" lon="3.73055">
        <ele>1127.76</ele>
        <time>2025-07-24T13:50:26Z</time>
      </trkpt>
      <trkpt lat="44.733" lon="3.73068">
        <ele>1124.88</ele>
        <time>2025-07-24T13:50:40Z</time>
      </trkpt>
      <trkpt lat="44.73306" lon="3.73076">
        <ele>1123.92</ele>
        <time>2025-07-24T13:50:45Z</time>
      </trkpt>
      <trkpt lat="44.73305" lon="3.73095">
        <ele>1126.32</ele>
        <time>2025-07-24T13:51:01Z</time>
      </trkpt>
      <trkpt lat="44.733" lon="3.73095">
        <ele>1129.21</ele>
        <time>2025-07-24T13:51:25Z</time>
      </trkpt>
      <trkpt lat="44.73302" lon="3.73097">
        <ele>1128.24</ele>
        <time>2025-07-24T13:51:31Z</time>
      </trkpt>
      <trkpt lat="44.73304" lon="3.731">
        <ele>1130.65</ele>
        <time>2025-07-24T13:51:46Z</time>
      </trkpt>
      <trkpt lat="44.73304" lon="3.73095">
        <ele>1133.05</ele>
        <time>2025-07-24T13:52:01Z</time>
      </trkpt>
      <trkpt lat="44.73298" lon="3.73096">
        <ele>1128.73</ele>
        <time>2025-07-24T13:52:16Z</time>
      </trkpt>
      <trkpt lat="44.73298" lon="3.73095">
        <ele>1127.28</ele>
        <time>2025-07-24T13:52:30Z</time>
      </trkpt>
      <trkpt lat="44.73297" lon="3.73096">
        <ele>1126.8</ele>
        <time>2025-07-24T13:52:31Z</time>
      </trkpt>
      <trkpt lat="44.73294" lon="3.73099">
        <ele>1126.8</ele>
        <time>2025-07-24T13:52:36Z</time>
      </trkpt>
      <trkpt lat="44.73289" lon="3.73102">
        <ele>1125.84</ele>
        <time>2025-07-24T13:52:40Z</time>
      </trkpt>
      <trkpt lat="44.73279" lon="3.73109">
        <ele>1123.44</ele>
        <time>2025-07-24T13:52:53Z</time>
      </trkpt>
      <trkpt lat="44.7327" lon="3.7312">
        <ele>1128.24</ele>
        <time>2025-07-24T13:53:07Z</time>
      </trkpt>
      <trkpt lat="44.73265" lon="3.73126">
        <ele>1131.61</ele>
        <time>2025-07-24T13:53:14Z</time>
      </trkpt>
      <trkpt lat="44.7325" lon="3.73145">
        <ele>1124.88</ele>
        <time>2025-07-24T13:53:27Z</time>
      </trkpt>
      <trkpt lat="44.73246" lon="3.7314">
        <ele>1123.92</ele>
        <time>2025-07-24T13:53:41Z</time>
      </trkpt>
      <trkpt lat="44.73246" lon="3.7313">
        <ele>1123.92</ele>
        <time>2025-07-24T13:53:49Z</time>
      </trkpt>
      <trkpt lat="44.73256" lon="3.73122">
        <ele>1123.92</ele>
        <time>2025-07-24T13:54:02Z</time>
      </trkpt>
      <trkpt lat="44.73273" lon="3.73117">
        <ele>1122.96</ele>
        <time>2025-07-24T13:54:17Z</time>
      </trkpt>
      <trkpt lat="44.73283" lon="3.73109">
        <ele>1123.92</ele>
        <time>2025-07-24T13:54:31Z</time>
      </trkpt>
      <trkpt lat="44.73289" lon="3.73106">
        <ele>1122.96</ele>
        <time>2025-07-24T13:54:38Z</time>
      </trkpt>
      <trkpt lat="44.73301" lon="3.73094">
        <ele>1121.52</ele>
        <time>2025-07-24T13:54:52Z</time>
      </trkpt>
      <trkpt lat="44.73303" lon="3.73088">
        <ele>1122.48</ele>
        <time>2025-07-24T13:54:56Z</time>
      </trkpt>
      <trkpt lat="44.73305" lon="3.73083">
        <ele>1123.92</ele>
        <time>2025-07-24T13:55:01Z</time>
      </trkpt>
      <trkpt lat="44.73299" lon="3.73071">
        <ele>1125.36</ele>
        <time>2025-07-24T13:55:10Z</time>
      </trkpt>
      <trkpt lat="44.73279" lon="3.73064">
        <ele>1128.73</ele>
        <time>2025-07-24T13:55:28Z</time>
      </trkpt>
      <trkpt lat="44.73274" lon="3.73062">
        <ele>1128.73</ele>
        <time>2025-07-24T13:55:32Z</time>
      </trkpt>
      <trkpt lat="44.73272" lon="3.73063">
        <ele>1128.24</ele>
        <time>2025-07-24T13:55:34Z</time>
      </trkpt>
      <trkpt lat="44.73253" lon="3.73058">
        <ele>1127.76</ele>
        <time>2025-07-24T13:55:49Z</time>
      </trkpt>
      <trkpt lat="44.73234" lon="3.73047">
        <ele>1127.76</ele>
        <time>2025-07-24T13:56:05Z</time>
      </trkpt>
      <trkpt lat="44.73216" lon="3.73033">
        <ele>1126.8</ele>
        <time>2025-07-24T13:56:21Z</time>
      </trkpt>
      <trkpt lat="44.732" lon="3.73021">
        <ele>1130.17</ele>
        <time>2025-07-24T13:56:37Z</time>
      </trkpt>
      <trkpt lat="44.73195" lon="3.73018">
        <ele>1130.17</ele>
        <time>2025-07-24T13:56:42Z</time>
      </trkpt>
      <trkpt lat="44.73177" lon="3.7301">
        <ele>1128.73</ele>
        <time>2025-07-24T13:56:58Z</time>
      </trkpt>
      <trkpt lat="44.73159" lon="3.73003">
        <ele>1128.24</ele>
        <time>2025-07-24T13:57:14Z</time>
      </trkpt>
      <trkpt lat="44.73142" lon="3.72996">
        <ele>1131.61</ele>
        <time>2025-07-24T13:57:29Z</time>
      </trkpt>
      <trkpt lat="44.73125" lon="3.72988">
        <ele>1136.42</ele>
        <time>2025-07-24T13:57:47Z</time>
      </trkpt>
      <trkpt lat="44.73104" lon="3.72975">
        <ele>1139.3</ele>
        <time>2025-07-24T13:58:05Z</time>
      </trkpt>
      <trkpt lat="44.73086" lon="3.72964">
        <ele>1140.26</ele>
        <time>2025-07-24T13:58:19Z</time>
      </trkpt>
      <trkpt lat="44.7306" lon="3.72953">
        <ele>1146.51</ele>
        <time>2025-07-24T13:58:37Z</time>
      </trkpt>
      <trkpt lat="44.73042" lon="3.72947">
        <ele>1148.43</ele>
        <time>2025-07-24T13:58:50Z</time>
      </trkpt>
      <trkpt lat="44.7302" lon="3.72939">
        <ele>1147.47</ele>
        <time>2025-07-24T13:59:06Z</time>
      </trkpt>
      <trkpt lat="44.73005" lon="3.7293">
        <ele>1145.55</ele>
        <time>2025-07-24T13:59:20Z</time>
      </trkpt>
      <trkpt lat="44.72983" lon="3.72927">
        <ele>1146.03</ele>
        <time>2025-07-24T13:59:35Z</time>
      </trkpt>
      <trkpt lat="44.7296" lon="3.72924">
        <ele>1147.95</ele>
        <time>2025-07-24T13:59:52Z</time>
      </trkpt>
      <trkpt lat="44.72937" lon="3.72916">
        <ele>1153.72</ele>
        <time>2025-07-24T14:00:10Z</time>
      </trkpt>
      <trkpt lat="44.72919" lon="3.72896">
        <ele>1159.49</ele>
        <time>2025-07-24T14:00:27Z</time>
      </trkpt>
      <trkpt lat="44.72899" lon="3.7288">
        <ele>1158.05</ele>
        <time>2025-07-24T14:00:44Z</time>
      </trkpt>
      <trkpt lat="44.7288" lon="3.72873">
        <ele>1159.01</ele>
        <time>2025-07-24T14:00:59Z</time>
      </trkpt>
      <trkpt lat="44.72858" lon="3.72867">
        <ele>1157.56</ele>
        <time>2025-07-24T14:01:16Z</time>
      </trkpt>
      <trkpt lat="44.72828" lon="3.72866">
        <ele>1160.93</ele>
        <time>2025-07-24T14:01:38Z</time>
      </trkpt>
      <trkpt lat="44.72803" lon="3.7286">
        <ele>1163.81</ele>
        <time>2025-07-24T14:01:55Z</time>
      </trkpt>
      <trkpt lat="44.72801" lon="3.72858">
        <ele>1163.81</ele>
        <time>2025-07-24T14:01:57Z</time>
      </trkpt>
      <trkpt lat="44.72782" lon="3.72841">
        <ele>1167.18</ele>
        <time>2025-07-24T14:02:14Z</time>
      </trkpt>
      <trkpt lat="44.72769" lon="3.72836">
        <ele>1167.66</ele>
        <time>2025-07-24T14:02:29Z</time>
      </trkpt>
      <trkpt lat="44.72769" lon="3.72835">
        <ele>1167.66</ele>
        <time>2025-07-24T14:02:32Z</time>
      </trkpt>
      <trkpt lat="44.72751" lon="3.72813">
        <ele>1169.1</ele>
        <time>2025-07-24T14:02:48Z</time>
      </trkpt>
      <trkpt lat="44.7275" lon="3.72811">
        <ele>1169.58</ele>
        <time>2025-07-24T14:02:49Z</time>
      </trkpt>
      <trkpt lat="44.72732" lon="3.72789">
        <ele>1171.98</ele>
        <time>2025-07-24T14:03:03Z</time>
      </trkpt>
      <trkpt lat="44.7271" lon="3.7277">
        <ele>1175.83</ele>
        <time>2025-07-24T14:03:21Z</time>
      </trkpt>
      <trkpt lat="44.72708" lon="3.72768">
        <ele>1175.35</ele>
        <time>2025-07-24T14:03:23Z</time>
      </trkpt>
      <trkpt lat="44.72708" lon="3.72767">
        <ele>1175.35</ele>
        <time>2025-07-24T14:03:24Z</time>
      </trkpt>
      <trkpt lat="44.72707" lon="3.72766">
        <ele>1175.35</ele>
        <time>2025-07-24T14:03:25Z</time>
      </trkpt>
      <trkpt lat="44.72706" lon="3.72765">
        <ele>1175.35</ele>
        <time>2025-07-24T14:03:26Z</time>
      </trkpt>
      <trkpt lat="44.72705" lon="3.72764">
        <ele>1175.83</ele>
        <time>2025-07-24T14:03:27Z</time>
      </trkpt>
      <trkpt lat="44.72685" lon="3.72738">
        <ele>1179.67</ele>
        <time>2025-07-24T14:03:47Z</time>
      </trkpt>
      <trkpt lat="44.7267" lon="3.72705">
        <ele>1181.6</ele>
        <time>2025-07-24T14:04:05Z</time>
      </trkpt>
      <trkpt lat="44.72657" lon="3.72663">
        <ele>1180.16</ele>
        <time>2025-07-24T14:04:26Z</time>
      </trkpt>
      <trkpt lat="44.72645" lon="3.72628">
        <ele>1178.71</ele>
        <time>2025-07-24T14:04:45Z</time>
      </trkpt>
      <trkpt lat="44.7263" lon="3.72594">
        <ele>1178.23</ele>
        <time>2025-07-24T14:05:06Z</time>
      </trkpt>
      <trkpt lat="44.7262" lon="3.72573">
        <ele>1179.67</ele>
        <time>2025-07-24T14:05:20Z</time>
      </trkpt>
      <trkpt lat="44.7261" lon="3.72547">
        <ele>1182.08</ele>
        <time>2025-07-24T14:05:36Z</time>
      </trkpt>
      <trkpt lat="44.72603" lon="3.72522">
        <ele>1185.44</ele>
        <time>2025-07-24T14:05:50Z</time>
      </trkpt>
      <trkpt lat="44.72601" lon="3.72511">
        <ele>1188.81</ele>
        <time>2025-07-24T14:06:03Z</time>
      </trkpt>
      <trkpt lat="44.726" lon="3.72505">
        <ele>1189.29</ele>
        <time>2025-07-24T14:06:34Z</time>
      </trkpt>
      <trkpt lat="44.726" lon="3.72502">
        <ele>1189.29</ele>
        <time>2025-07-24T14:06:54Z</time>
      </trkpt>
      <trkpt lat="44.72594" lon="3.72501">
        <ele>1189.29</ele>
        <time>2025-07-24T14:07:12Z</time>
      </trkpt>
      <trkpt lat="44.72594" lon="3.725">
        <ele>1189.29</ele>
        <time>2025-07-24T14:07:13Z</time>
      </trkpt>
      <trkpt lat="44.72586" lon="3.7248">
        <ele>1188.81</ele>
        <time>2025-07-24T14:07:26Z</time>
      </trkpt>
      <trkpt lat="44.72586" lon="3.72477">
        <ele>1187.85</ele>
        <time>2025-07-24T14:07:27Z</time>
      </trkpt>
      <trkpt lat="44.72585" lon="3.72475">
        <ele>1187.85</ele>
        <time>2025-07-24T14:07:28Z</time>
      </trkpt>
      <trkpt lat="44.72577" lon="3.72445">
        <ele>1188.33</ele>
        <time>2025-07-24T14:07:43Z</time>
      </trkpt>
      <trkpt lat="44.72571" lon="3.72418">
        <ele>1186.88</ele>
        <time>2025-07-24T14:07:57Z</time>
      </trkpt>
      <trkpt lat="44.72564" lon="3.72399">
        <ele>1184.48</ele>
        <time>2025-07-24T14:08:09Z</time>
      </trkpt>
      <trkpt lat="44.72551" lon="3.72367">
        <ele>1184</ele>
        <time>2025-07-24T14:08:28Z</time>
      </trkpt>
      <trkpt lat="44.72539" lon="3.7233">
        <ele>1184</ele>
        <time>2025-07-24T14:08:48Z</time>
      </trkpt>
      <trkpt lat="44.72527" lon="3.72297">
        <ele>1183.52</ele>
        <time>2025-07-24T14:09:07Z</time>
      </trkpt>
      <trkpt lat="44.72512" lon="3.72266">
        <ele>1180.16</ele>
        <time>2025-07-24T14:09:24Z</time>
      </trkpt>
      <trkpt lat="44.72504" lon="3.72231">
        <ele>1173.91</ele>
        <time>2025-07-24T14:09:42Z</time>
      </trkpt>
      <trkpt lat="44.72494" lon="3.72201">
        <ele>1171.5</ele>
        <time>2025-07-24T14:09:56Z</time>
      </trkpt>
      <trkpt lat="44.72479" lon="3.72167">
        <ele>1171.02</ele>
        <time>2025-07-24T14:10:12Z</time>
      </trkpt>
      <trkpt lat="44.72464" lon="3.7213">
        <ele>1171.02</ele>
        <time>2025-07-24T14:10:30Z</time>
      </trkpt>
      <trkpt lat="44.72454" lon="3.72107">
        <ele>1172.95</ele>
        <time>2025-07-24T14:10:45Z</time>
      </trkpt>
      <trkpt lat="44.72453" lon="3.72106">
        <ele>1173.43</ele>
        <time>2025-07-24T14:10:46Z</time>
      </trkpt>
      <trkpt lat="44.72441" lon="3.72074">
        <ele>1177.75</ele>
        <time>2025-07-24T14:11:03Z</time>
      </trkpt>
      <trkpt lat="44.7243" lon="3.72039">
        <ele>1180.64</ele>
        <time>2025-07-24T14:11:20Z</time>
      </trkpt>
      <trkpt lat="44.72415" lon="3.72008">
        <ele>1178.71</ele>
        <time>2025-07-24T14:11:37Z</time>
      </trkpt>
      <trkpt lat="44.72403" lon="3.71977">
        <ele>1177.75</ele>
        <time>2025-07-24T14:11:54Z</time>
      </trkpt>
      <trkpt lat="44.72398" lon="3.71963">
        <ele>1177.27</ele>
        <time>2025-07-24T14:12:02Z</time>
      </trkpt>
      <trkpt lat="44.72397" lon="3.71963">
        <ele>1177.75</ele>
        <time>2025-07-24T14:12:03Z</time>
      </trkpt>
      <trkpt lat="44.72396" lon="3.71963">
        <ele>1177.27</ele>
        <time>2025-07-24T14:12:04Z</time>
      </trkpt>
      <trkpt lat="44.72394" lon="3.71964">
        <ele>1177.27</ele>
        <time>2025-07-24T14:12:05Z</time>
      </trkpt>
      <trkpt lat="44.72393" lon="3.71964">
        <ele>1177.27</ele>
        <time>2025-07-24T14:12:06Z</time>
      </trkpt>
      <trkpt lat="44.72392" lon="3.71965">
        <ele>1177.27</ele>
        <time>2025-07-24T14:12:07Z</time>
      </trkpt>
      <trkpt lat="44.7239" lon="3.71966">
        <ele>1177.75</ele>
        <time>2025-07-24T14:12:08Z</time>
      </trkpt>
      <trkpt lat="44.72389" lon="3.71968">
        <ele>1177.75</ele>
        <time>2025-07-24T14:12:09Z</time>
      </trkpt>
      <trkpt lat="44.72364" lon="3.71987">
        <ele>1176.79</ele>
        <time>2025-07-24T14:12:29Z</time>
      </trkpt>
      <trkpt lat="44.72341" lon="3.71994">
        <ele>1174.87</ele>
        <time>2025-07-24T14:12:44Z</time>
      </trkpt>
      <trkpt lat="44.72316" lon="3.71985">
        <ele>1175.35</ele>
        <time>2025-07-24T14:13:00Z</time>
      </trkpt>
      <trkpt lat="44.72291" lon="3.71977">
        <ele>1171.5</ele>
        <time>2025-07-24T14:13:17Z</time>
      </trkpt>
      <trkpt lat="44.72267" lon="3.7197">
        <ele>1169.58</ele>
        <time>2025-07-24T14:13:33Z</time>
      </trkpt>
      <trkpt lat="44.72233" lon="3.7196">
        <ele>1169.1</ele>
        <time>2025-07-24T14:13:54Z</time>
      </trkpt>
      <trkpt lat="44.72202" lon="3.71956">
        <ele>1167.66</ele>
        <time>2025-07-24T14:14:15Z</time>
      </trkpt>
      <trkpt lat="44.72175" lon="3.71947">
        <ele>1168.14</ele>
        <time>2025-07-24T14:14:34Z</time>
      </trkpt>
      <trkpt lat="44.72153" lon="3.71946">
        <ele>1168.14</ele>
        <time>2025-07-24T14:14:50Z</time>
      </trkpt>
      <trkpt lat="44.7213" lon="3.71949">
        <ele>1168.62</ele>
        <time>2025-07-24T14:15:06Z</time>
      </trkpt>
      <trkpt lat="44.72102" lon="3.71959">
        <ele>1167.18</ele>
        <time>2025-07-24T14:15:23Z</time>
      </trkpt>
      <trkpt lat="44.72076" lon="3.7197">
        <ele>1165.74</ele>
        <time>2025-07-24T14:15:39Z</time>
      </trkpt>
      <trkpt lat="44.72052" lon="3.71982">
        <ele>1163.81</ele>
        <time>2025-07-24T14:15:55Z</time>
      </trkpt>
      <trkpt lat="44.72021" lon="3.71995">
        <ele>1160.93</ele>
        <time>2025-07-24T14:16:15Z</time>
      </trkpt>
      <trkpt lat="44.72007" lon="3.71996">
        <ele>1159.01</ele>
        <time>2025-07-24T14:16:25Z</time>
      </trkpt>
      <trkpt lat="44.71981" lon="3.71986">
        <ele>1155.64</ele>
        <time>2025-07-24T14:16:41Z</time>
      </trkpt>
      <trkpt lat="44.71953" lon="3.71989">
        <ele>1152.76</ele>
        <time>2025-07-24T14:16:58Z</time>
      </trkpt>
      <trkpt lat="44.71926" lon="3.7198">
        <ele>1151.8</ele>
        <time>2025-07-24T14:17:14Z</time>
      </trkpt>
      <trkpt lat="44.71903" lon="3.71973">
        <ele>1149.87</ele>
        <time>2025-07-24T14:17:30Z</time>
      </trkpt>
      <trkpt lat="44.71873" lon="3.71966">
        <ele>1148.43</ele>
        <time>2025-07-24T14:17:50Z</time>
      </trkpt>
      <trkpt lat="44.71843" lon="3.71967">
        <ele>1146.51</ele>
        <time>2025-07-24T14:18:10Z</time>
      </trkpt>
      <trkpt lat="44.71817" lon="3.71967">
        <ele>1143.14</ele>
        <time>2025-07-24T14:18:27Z</time>
      </trkpt>
      <trkpt lat="44.71795" lon="3.71951">
        <ele>1142.66</ele>
        <time>2025-07-24T14:18:44Z</time>
      </trkpt>
      <trkpt lat="44.71779" lon="3.71948">
        <ele>1143.63</ele>
        <time>2025-07-24T14:18:57Z</time>
      </trkpt>
      <trkpt lat="44.71777" lon="3.71948">
        <ele>1144.11</ele>
        <time>2025-07-24T14:18:59Z</time>
      </trkpt>
      <trkpt lat="44.71776" lon="3.71948">
        <ele>1144.11</ele>
        <time>2025-07-24T14:19:00Z</time>
      </trkpt>
      <trkpt lat="44.71775" lon="3.71947">
        <ele>1144.11</ele>
        <time>2025-07-24T14:19:01Z</time>
      </trkpt>
      <trkpt lat="44.71774" lon="3.71946">
        <ele>1144.59</ele>
        <time>2025-07-24T14:19:02Z</time>
      </trkpt>
      <trkpt lat="44.71772" lon="3.71945">
        <ele>1144.59</ele>
        <time>2025-07-24T14:19:03Z</time>
      </trkpt>
      <trkpt lat="44.71756" lon="3.71927">
        <ele>1146.03</ele>
        <time>2025-07-24T14:19:18Z</time>
      </trkpt>
      <trkpt lat="44.7174" lon="3.71904">
        <ele>1147.47</ele>
        <time>2025-07-24T14:19:34Z</time>
      </trkpt>
      <trkpt lat="44.71723" lon="3.71877">
        <ele>1148.43</ele>
        <time>2025-07-24T14:19:51Z</time>
      </trkpt>
      <trkpt lat="44.71706" lon="3.71864">
        <ele>1150.35</ele>
        <time>2025-07-24T14:20:07Z</time>
      </trkpt>
      <trkpt lat="44.71681" lon="3.71865">
        <ele>1151.8</ele>
        <time>2025-07-24T14:20:24Z</time>
      </trkpt>
      <trkpt lat="44.71654" lon="3.71863">
        <ele>1152.28</ele>
        <time>2025-07-24T14:20:43Z</time>
      </trkpt>
      <trkpt lat="44.71628" lon="3.71856">
        <ele>1152.76</ele>
        <time>2025-07-24T14:21:02Z</time>
      </trkpt>
      <trkpt lat="44.71605" lon="3.71849">
        <ele>1154.2</ele>
        <time>2025-07-24T14:21:19Z</time>
      </trkpt>
      <trkpt lat="44.71584" lon="3.7183">
        <ele>1155.64</ele>
        <time>2025-07-24T14:21:37Z</time>
      </trkpt>
      <trkpt lat="44.71561" lon="3.71812">
        <ele>1154.2</ele>
        <time>2025-07-24T14:21:56Z</time>
      </trkpt>
      <trkpt lat="44.71539" lon="3.71804">
        <ele>1151.32</ele>
        <time>2025-07-24T14:22:11Z</time>
      </trkpt>
      <trkpt lat="44.71516" lon="3.71781">
        <ele>1149.87</ele>
        <time>2025-07-24T14:22:30Z</time>
      </trkpt>
      <trkpt lat="44.71496" lon="3.71758">
        <ele>1150.84</ele>
        <time>2025-07-24T14:22:47Z</time>
      </trkpt>
      <trkpt lat="44.71474" lon="3.71746">
        <ele>1149.39</ele>
        <time>2025-07-24T14:23:02Z</time>
      </trkpt>
      <trkpt lat="44.71447" lon="3.7176">
        <ele>1147.95</ele>
        <time>2025-07-24T14:23:20Z</time>
      </trkpt>
      <trkpt lat="44.71424" lon="3.71768">
        <ele>1147.47</ele>
        <time>2025-07-24T14:23:36Z</time>
      </trkpt>
      <trkpt lat="44.71401" lon="3.71775">
        <ele>1147.47</ele>
        <time>2025-07-24T14:23:52Z</time>
      </trkpt>
      <trkpt lat="44.71379" lon="3.71767">
        <ele>1145.07</ele>
        <time>2025-07-24T14:24:09Z</time>
      </trkpt>
      <trkpt lat="44.71377" lon="3.71765">
        <ele>1145.07</ele>
        <time>2025-07-24T14:24:11Z</time>
      </trkpt>
      <trkpt lat="44.71359" lon="3.71743">
        <ele>1143.63</ele>
        <time>2025-07-24T14:24:27Z</time>
      </trkpt>
      <trkpt lat="44.71344" lon="3.71733">
        <ele>1143.14</ele>
        <time>2025-07-24T14:24:39Z</time>
      </trkpt>
      <trkpt lat="44.71342" lon="3.71732">
        <ele>1143.14</ele>
        <time>2025-07-24T14:24:40Z</time>
      </trkpt>
      <trkpt lat="44.71319" lon="3.7173">
        <ele>1141.7</ele>
        <time>2025-07-24T14:24:58Z</time>
      </trkpt>
      <trkpt lat="44.71295" lon="3.71723">
        <ele>1143.14</ele>
        <time>2025-07-24T14:25:16Z</time>
      </trkpt>
      <trkpt lat="44.71273" lon="3.71714">
        <ele>1145.55</ele>
        <time>2025-07-24T14:25:32Z</time>
      </trkpt>
      <trkpt lat="44.7125" lon="3.71714">
        <ele>1142.66</ele>
        <time>2025-07-24T14:25:49Z</time>
      </trkpt>
      <trkpt lat="44.71245" lon="3.71714">
        <ele>1142.66</ele>
        <time>2025-07-24T14:25:52Z</time>
      </trkpt>
      <trkpt lat="44.71223" lon="3.71723">
        <ele>1139.3</ele>
        <time>2025-07-24T14:26:09Z</time>
      </trkpt>
      <trkpt lat="44.71203" lon="3.71731">
        <ele>1141.7</ele>
        <time>2025-07-24T14:26:23Z</time>
      </trkpt>
      <trkpt lat="44.71182" lon="3.71741">
        <ele>1142.18</ele>
        <time>2025-07-24T14:26:40Z</time>
      </trkpt>
      <trkpt lat="44.7118" lon="3.7174">
        <ele>1142.18</ele>
        <time>2025-07-24T14:26:42Z</time>
      </trkpt>
      <trkpt lat="44.71177" lon="3.71736">
        <ele>1142.18</ele>
        <time>2025-07-24T14:26:45Z</time>
      </trkpt>
      <trkpt lat="44.71176" lon="3.71734">
        <ele>1142.18</ele>
        <time>2025-07-24T14:26:46Z</time>
      </trkpt>
      <trkpt lat="44.71176" lon="3.71733">
        <ele>1142.18</ele>
        <time>2025-07-24T14:26:47Z</time>
      </trkpt>
      <trkpt lat="44.71175" lon="3.71731">
        <ele>1142.18</ele>
        <time>2025-07-24T14:26:48Z</time>
      </trkpt>
      <trkpt lat="44.71174" lon="3.71729">
        <ele>1142.18</ele>
        <time>2025-07-24T14:26:49Z</time>
      </trkpt>
      <trkpt lat="44.71174" lon="3.71727">
        <ele>1142.18</ele>
        <time>2025-07-24T14:26:50Z</time>
      </trkpt>
      <trkpt lat="44.71173" lon="3.71726">
        <ele>1142.66</ele>
        <time>2025-07-24T14:26:51Z</time>
      </trkpt>
      <trkpt lat="44.7117" lon="3.71721">
        <ele>1142.66</ele>
        <time>2025-07-24T14:26:54Z</time>
      </trkpt>
      <trkpt lat="44.71169" lon="3.7172">
        <ele>1142.66</ele>
        <time>2025-07-24T14:26:55Z</time>
      </trkpt>
      <trkpt lat="44.71168" lon="3.71719">
        <ele>1142.66</ele>
        <time>2025-07-24T14:26:56Z</time>
      </trkpt>
      <trkpt lat="44.71165" lon="3.71719">
        <ele>1143.14</ele>
        <time>2025-07-24T14:27:12Z</time>
      </trkpt>
      <trkpt lat="44.71169" lon="3.71714">
        <ele>1144.59</ele>
        <time>2025-07-24T14:27:24Z</time>
      </trkpt>
      <trkpt lat="44.7117" lon="3.71714">
        <ele>1144.59</ele>
        <time>2025-07-24T14:27:25Z</time>
      </trkpt>
      <trkpt lat="44.71184" lon="3.71702">
        <ele>1145.55</ele>
        <time>2025-07-24T14:27:40Z</time>
      </trkpt>
      <trkpt lat="44.71199" lon="3.71688">
        <ele>1147.47</ele>
        <time>2025-07-24T14:27:55Z</time>
      </trkpt>
      <trkpt lat="44.71214" lon="3.7167">
        <ele>1149.39</ele>
        <time>2025-07-24T14:28:11Z</time>
      </trkpt>
      <trkpt lat="44.71225" lon="3.71645">
        <ele>1150.84</ele>
        <time>2025-07-24T14:28:24Z</time>
      </trkpt>
      <trkpt lat="44.71235" lon="3.71622">
        <ele>1152.28</ele>
        <time>2025-07-24T14:28:38Z</time>
      </trkpt>
      <trkpt lat="44.7124" lon="3.71606">
        <ele>1154.2</ele>
        <time>2025-07-24T14:28:52Z</time>
      </trkpt>
      <trkpt lat="44.71245" lon="3.71601">
        <ele>1153.72</ele>
        <time>2025-07-24T14:29:06Z</time>
      </trkpt>
      <trkpt lat="44.7125" lon="3.71604">
        <ele>1152.76</ele>
        <time>2025-07-24T14:29:28Z</time>
      </trkpt>
      <trkpt lat="44.71249" lon="3.716">
        <ele>1152.28</ele>
        <time>2025-07-24T14:29:42Z</time>
      </trkpt>
      <trkpt lat="44.71251" lon="3.7161">
        <ele>1152.76</ele>
        <time>2025-07-24T14:30:01Z</time>
      </trkpt>
      <trkpt lat="44.71253" lon="3.7161">
        <ele>1149.39</ele>
        <time>2025-07-24T14:30:32Z</time>
      </trkpt>
      <trkpt lat="44.71252" lon="3.71607">
        <ele>1149.87</ele>
        <time>2025-07-24T14:30:51Z</time>
      </trkpt>
      <trkpt lat="44.71251" lon="3.7161">
        <ele>1149.87</ele>
        <time>2025-07-24T14:31:08Z</time>
      </trkpt>
      <trkpt lat="44.71248" lon="3.71606">
        <ele>1150.84</ele>
        <time>2025-07-24T14:31:28Z</time>
      </trkpt>
      <trkpt lat="44.71246" lon="3.71603">
        <ele>1150.35</ele>
        <time>2025-07-24T14:31:43Z</time>
      </trkpt>
      <trkpt lat="44.71246" lon="3.71609">
        <ele>1150.35</ele>
        <time>2025-07-24T14:32:05Z</time>
      </trkpt>
      <trkpt lat="44.71244" lon="3.71612">
        <ele>1149.87</ele>
        <time>2025-07-24T14:32:08Z</time>
      </trkpt>
      <trkpt lat="44.71227" lon="3.71642">
        <ele>1147.95</ele>
        <time>2025-07-24T14:32:30Z</time>
      </trkpt>
      <trkpt lat="44.71219" lon="3.71658">
        <ele>1145.55</ele>
        <time>2025-07-24T14:32:45Z</time>
      </trkpt>
      <trkpt lat="44.71202" lon="3.71683">
        <ele>1146.51</ele>
        <time>2025-07-24T14:33:03Z</time>
      </trkpt>
      <trkpt lat="44.71179" lon="3.71706">
        <ele>1144.59</ele>
        <time>2025-07-24T14:33:22Z</time>
      </trkpt>
      <trkpt lat="44.71159" lon="3.7172">
        <ele>1143.63</ele>
        <time>2025-07-24T14:33:40Z</time>
      </trkpt>
      <trkpt lat="44.71135" lon="3.71728">
        <ele>1139.78</ele>
        <time>2025-07-24T14:33:57Z</time>
      </trkpt>
      <trkpt lat="44.7113" lon="3.71728">
        <ele>1137.38</ele>
        <time>2025-07-24T14:34:08Z</time>
      </trkpt>
      <trkpt lat="44.71132" lon="3.71733">
        <ele>1137.86</ele>
        <time>2025-07-24T14:34:12Z</time>
      </trkpt>
      <trkpt lat="44.71133" lon="3.71734">
        <ele>1138.34</ele>
        <time>2025-07-24T14:34:13Z</time>
      </trkpt>
      <trkpt lat="44.71135" lon="3.71736">
        <ele>1138.34</ele>
        <time>2025-07-24T14:34:16Z</time>
      </trkpt>
      <trkpt lat="44.71136" lon="3.71736">
        <ele>1138.34</ele>
        <time>2025-07-24T14:34:17Z</time>
      </trkpt>
      <trkpt lat="44.71137" lon="3.71737">
        <ele>1138.34</ele>
        <time>2025-07-24T14:34:18Z</time>
      </trkpt>
      <trkpt lat="44.71138" lon="3.71738">
        <ele>1138.34</ele>
        <time>2025-07-24T14:34:19Z</time>
      </trkpt>
      <trkpt lat="44.71139" lon="3.7174">
        <ele>1138.34</ele>
        <time>2025-07-24T14:34:20Z</time>
      </trkpt>
      <trkpt lat="44.71147" lon="3.71763">
        <ele>1141.7</ele>
        <time>2025-07-24T14:34:36Z</time>
      </trkpt>
      <trkpt lat="44.71158" lon="3.71791">
        <ele>1141.7</ele>
        <time>2025-07-24T14:34:54Z</time>
      </trkpt>
      <trkpt lat="44.7116" lon="3.71817">
        <ele>1139.78</ele>
        <time>2025-07-24T14:35:10Z</time>
      </trkpt>
      <trkpt lat="44.71171" lon="3.71847">
        <ele>1136.42</ele>
        <time>2025-07-24T14:35:27Z</time>
      </trkpt>
      <trkpt lat="44.71174" lon="3.71873">
        <ele>1133.05</ele>
        <time>2025-07-24T14:35:44Z</time>
      </trkpt>
      <trkpt lat="44.71177" lon="3.71879">
        <ele>1132.09</ele>
        <time>2025-07-24T14:35:48Z</time>
      </trkpt>
      <trkpt lat="44.71178" lon="3.71881">
        <ele>1131.61</ele>
        <time>2025-07-24T14:35:49Z</time>
      </trkpt>
      <trkpt lat="44.71194" lon="3.71911">
        <ele>1128.24</ele>
        <time>2025-07-24T14:36:07Z</time>
      </trkpt>
      <trkpt lat="44.71195" lon="3.71942">
        <ele>1125.84</ele>
        <time>2025-07-24T14:36:23Z</time>
      </trkpt>
      <trkpt lat="44.71197" lon="3.71971">
        <ele>1128.24</ele>
        <time>2025-07-24T14:36:39Z</time>
      </trkpt>
      <trkpt lat="44.71212" lon="3.71995">
        <ele>1130.17</ele>
        <time>2025-07-24T14:36:53Z</time>
      </trkpt>
      <trkpt lat="44.71229" lon="3.72024">
        <ele>1128.24</ele>
        <time>2025-07-24T14:37:09Z</time>
      </trkpt>
      <trkpt lat="44.71251" lon="3.72055">
        <ele>1126.32</ele>
        <time>2025-07-24T14:37:27Z</time>
      </trkpt>
      <trkpt lat="44.7127" lon="3.72082">
        <ele>1126.32</ele>
        <time>2025-07-24T14:37:43Z</time>
      </trkpt>
      <trkpt lat="44.71288" lon="3.72115">
        <ele>1125.84</ele>
        <time>2025-07-24T14:38:03Z</time>
      </trkpt>
      <trkpt lat="44.71294" lon="3.72161">
        <ele>1126.8</ele>
        <time>2025-07-24T14:38:26Z</time>
      </trkpt>
      <trkpt lat="44.71295" lon="3.72198">
        <ele>1126.32</ele>
        <time>2025-07-24T14:38:43Z</time>
      </trkpt>
      <trkpt lat="44.71298" lon="3.72234">
        <ele>1125.84</ele>
        <time>2025-07-24T14:39:01Z</time>
      </trkpt>
      <trkpt lat="44.71299" lon="3.72239">
        <ele>1125.36</ele>
        <time>2025-07-24T14:39:10Z</time>
      </trkpt>
      <trkpt lat="44.71299" lon="3.72241">
        <ele>1125.36</ele>
        <time>2025-07-24T14:39:11Z</time>
      </trkpt>
      <trkpt lat="44.71305" lon="3.72279">
        <ele>1124.88</ele>
        <time>2025-07-24T14:39:30Z</time>
      </trkpt>
      <trkpt lat="44.71311" lon="3.72311">
        <ele>1123.44</ele>
        <time>2025-07-24T14:39:44Z</time>
      </trkpt>
      <trkpt lat="44.71319" lon="3.72361">
        <ele>1122.48</ele>
        <time>2025-07-24T14:40:06Z</time>
      </trkpt>
      <trkpt lat="44.71321" lon="3.72395">
        <ele>1122.48</ele>
        <time>2025-07-24T14:40:22Z</time>
      </trkpt>
      <trkpt lat="44.71324" lon="3.72442">
        <ele>1120.55</ele>
        <time>2025-07-24T14:40:43Z</time>
      </trkpt>
      <trkpt lat="44.71333" lon="3.72469">
        <ele>1119.59</ele>
        <time>2025-07-24T14:40:59Z</time>
      </trkpt>
      <trkpt lat="44.7133" lon="3.72498">
        <ele>1120.07</ele>
        <time>2025-07-24T14:41:14Z</time>
      </trkpt>
      <trkpt lat="44.71335" lon="3.72531">
        <ele>1121.03</ele>
        <time>2025-07-24T14:41:31Z</time>
      </trkpt>
      <trkpt lat="44.71341" lon="3.72563">
        <ele>1122</ele>
        <time>2025-07-24T14:41:48Z</time>
      </trkpt>
      <trkpt lat="44.71342" lon="3.72599">
        <ele>1122</ele>
        <time>2025-07-24T14:42:06Z</time>
      </trkpt>
      <trkpt lat="44.71344" lon="3.72633">
        <ele>1123.92</ele>
        <time>2025-07-24T14:42:24Z</time>
      </trkpt>
      <trkpt lat="44.71346" lon="3.72667">
        <ele>1125.84</ele>
        <time>2025-07-24T14:42:42Z</time>
      </trkpt>
      <trkpt lat="44.71349" lon="3.72706">
        <ele>1128.24</ele>
        <time>2025-07-24T14:43:03Z</time>
      </trkpt>
      <trkpt lat="44.71349" lon="3.7274">
        <ele>1129.21</ele>
        <time>2025-07-24T14:43:20Z</time>
      </trkpt>
      <trkpt lat="44.71347" lon="3.72773">
        <ele>1126.32</ele>
        <time>2025-07-24T14:43:36Z</time>
      </trkpt>
      <trkpt lat="44.71342" lon="3.72806">
        <ele>1125.84</ele>
        <time>2025-07-24T14:43:52Z</time>
      </trkpt>
      <trkpt lat="44.71337" lon="3.72822">
        <ele>1126.8</ele>
        <time>2025-07-24T14:44:02Z</time>
      </trkpt>
      <trkpt lat="44.71337" lon="3.72824">
        <ele>1126.8</ele>
        <time>2025-07-24T14:44:03Z</time>
      </trkpt>
      <trkpt lat="44.71334" lon="3.72838">
        <ele>1127.76</ele>
        <time>2025-07-24T14:44:18Z</time>
      </trkpt>
      <trkpt lat="44.71325" lon="3.72864">
        <ele>1128.24</ele>
        <time>2025-07-24T14:44:33Z</time>
      </trkpt>
      <trkpt lat="44.71318" lon="3.729">
        <ele>1128.24</ele>
        <time>2025-07-24T14:44:50Z</time>
      </trkpt>
      <trkpt lat="44.71319" lon="3.72924">
        <ele>1127.28</ele>
        <time>2025-07-24T14:45:03Z</time>
      </trkpt>
      <trkpt lat="44.71319" lon="3.72926">
        <ele>1127.28</ele>
        <time>2025-07-24T14:45:04Z</time>
      </trkpt>
      <trkpt lat="44.71324" lon="3.7296">
        <ele>1125.36</ele>
        <time>2025-07-24T14:45:20Z</time>
      </trkpt>
      <trkpt lat="44.71331" lon="3.72991">
        <ele>1124.4</ele>
        <time>2025-07-24T14:45:35Z</time>
      </trkpt>
      <trkpt lat="44.7133" lon="3.73023">
        <ele>1123.44</ele>
        <time>2025-07-24T14:45:49Z</time>
      </trkpt>
      <trkpt lat="44.7133" lon="3.73026">
        <ele>1122.96</ele>
        <time>2025-07-24T14:45:50Z</time>
      </trkpt>
      <trkpt lat="44.7133" lon="3.73028">
        <ele>1122.96</ele>
        <time>2025-07-24T14:45:51Z</time>
      </trkpt>
      <trkpt lat="44.7133" lon="3.73031">
        <ele>1122.48</ele>
        <time>2025-07-24T14:45:52Z</time>
      </trkpt>
      <trkpt lat="44.7133" lon="3.73033">
        <ele>1122</ele>
        <time>2025-07-24T14:45:53Z</time>
      </trkpt>
      <trkpt lat="44.7133" lon="3.73035">
        <ele>1121.52</ele>
        <time>2025-07-24T14:45:54Z</time>
      </trkpt>
      <trkpt lat="44.71323" lon="3.73062">
        <ele>1117.67</ele>
        <time>2025-07-24T14:46:08Z</time>
      </trkpt>
      <trkpt lat="44.71322" lon="3.7307">
        <ele>1117.19</ele>
        <time>2025-07-24T14:46:11Z</time>
      </trkpt>
      <trkpt lat="44.71323" lon="3.73099">
        <ele>1116.23</ele>
        <time>2025-07-24T14:46:26Z</time>
      </trkpt>
      <trkpt lat="44.71321" lon="3.73146">
        <ele>1113.82</ele>
        <time>2025-07-24T14:46:46Z</time>
      </trkpt>
      <trkpt lat="44.71321" lon="3.73194">
        <ele>1112.86</ele>
        <time>2025-07-24T14:47:04Z</time>
      </trkpt>
      <trkpt lat="44.71325" lon="3.73227">
        <ele>1112.38</ele>
        <time>2025-07-24T14:47:21Z</time>
      </trkpt>
      <trkpt lat="44.71325" lon="3.73265">
        <ele>1110.46</ele>
        <time>2025-07-24T14:47:40Z</time>
      </trkpt>
      <trkpt lat="44.71322" lon="3.73286">
        <ele>1109.02</ele>
        <time>2025-07-24T14:47:51Z</time>
      </trkpt>
      <trkpt lat="44.71322" lon="3.73316">
        <ele>1106.61</ele>
        <time>2025-07-24T14:48:06Z</time>
      </trkpt>
      <trkpt lat="44.71319" lon="3.73358">
        <ele>1109.02</ele>
        <time>2025-07-24T14:48:22Z</time>
      </trkpt>
      <trkpt lat="44.71316" lon="3.73397">
        <ele>1109.02</ele>
        <time>2025-07-24T14:48:40Z</time>
      </trkpt>
      <trkpt lat="44.71313" lon="3.73436">
        <ele>1108.54</ele>
        <time>2025-07-24T14:48:58Z</time>
      </trkpt>
      <trkpt lat="44.71309" lon="3.73476">
        <ele>1107.58</ele>
        <time>2025-07-24T14:49:16Z</time>
      </trkpt>
      <trkpt lat="44.71303" lon="3.73512">
        <ele>1109.5</ele>
        <time>2025-07-24T14:49:34Z</time>
      </trkpt>
      <trkpt lat="44.71299" lon="3.73558">
        <ele>1109.02</ele>
        <time>2025-07-24T14:49:55Z</time>
      </trkpt>
      <trkpt lat="44.71292" lon="3.73584">
        <ele>1104.21</ele>
        <time>2025-07-24T14:50:11Z</time>
      </trkpt>
      <trkpt lat="44.71281" lon="3.73619">
        <ele>1098.92</ele>
        <time>2025-07-24T14:50:29Z</time>
      </trkpt>
      <trkpt lat="44.7128" lon="3.73656">
        <ele>1099.4</ele>
        <time>2025-07-24T14:50:44Z</time>
      </trkpt>
      <trkpt lat="44.71288" lon="3.73701">
        <ele>1101.33</ele>
        <time>2025-07-24T14:51:02Z</time>
      </trkpt>
      <trkpt lat="44.71297" lon="3.7375">
        <ele>1102.29</ele>
        <time>2025-07-24T14:51:24Z</time>
      </trkpt>
      <trkpt lat="44.71315" lon="3.7378">
        <ele>1101.81</ele>
        <time>2025-07-24T14:51:43Z</time>
      </trkpt>
      <trkpt lat="44.71335" lon="3.73804">
        <ele>1100.85</ele>
        <time>2025-07-24T14:51:59Z</time>
      </trkpt>
      <trkpt lat="44.71346" lon="3.73834">
        <ele>1098.92</ele>
        <time>2025-07-24T14:52:14Z</time>
      </trkpt>
      <trkpt lat="44.7134" lon="3.73869">
        <ele>1093.16</ele>
        <time>2025-07-24T14:52:30Z</time>
      </trkpt>
      <trkpt lat="44.7132" lon="3.73896">
        <ele>1090.75</ele>
        <time>2025-07-24T14:52:45Z</time>
      </trkpt>
      <trkpt lat="44.71313" lon="3.73921">
        <ele>1090.27</ele>
        <time>2025-07-24T14:52:58Z</time>
      </trkpt>
      <trkpt lat="44.71313" lon="3.73955">
        <ele>1088.35</ele>
        <time>2025-07-24T14:53:14Z</time>
      </trkpt>
      <trkpt lat="44.71311" lon="3.73957">
        <ele>1087.87</ele>
        <time>2025-07-24T14:53:16Z</time>
      </trkpt>
      <trkpt lat="44.71303" lon="3.73986">
        <ele>1082.1</ele>
        <time>2025-07-24T14:53:30Z</time>
      </trkpt>
      <trkpt lat="44.71323" lon="3.74015">
        <ele>1075.37</ele>
        <time>2025-07-24T14:53:49Z</time>
      </trkpt>
      <trkpt lat="44.71341" lon="3.74043">
        <ele>1075.37</ele>
        <time>2025-07-24T14:54:06Z</time>
      </trkpt>
      <trkpt lat="44.7135" lon="3.74079">
        <ele>1070.57</ele>
        <time>2025-07-24T14:54:22Z</time>
      </trkpt>
      <trkpt lat="44.71357" lon="3.74117">
        <ele>1070.57</ele>
        <time>2025-07-24T14:54:41Z</time>
      </trkpt>
      <trkpt lat="44.71354" lon="3.74152">
        <ele>1071.05</ele>
        <time>2025-07-24T14:54:57Z</time>
      </trkpt>
      <trkpt lat="44.71354" lon="3.74193">
        <ele>1070.57</ele>
        <time>2025-07-24T14:55:16Z</time>
      </trkpt>
      <trkpt lat="44.71352" lon="3.74216">
        <ele>1068.64</ele>
        <time>2025-07-24T14:55:29Z</time>
      </trkpt>
      <trkpt lat="44.71352" lon="3.74218">
        <ele>1068.64</ele>
        <time>2025-07-24T14:55:30Z</time>
      </trkpt>
      <trkpt lat="44.71353" lon="3.7422">
        <ele>1068.64</ele>
        <time>2025-07-24T14:55:31Z</time>
      </trkpt>
      <trkpt lat="44.71357" lon="3.74245">
        <ele>1062.87</ele>
        <time>2025-07-24T14:55:46Z</time>
      </trkpt>
      <trkpt lat="44.71361" lon="3.74251">
        <ele>1061.43</ele>
        <time>2025-07-24T14:55:51Z</time>
      </trkpt>
      <trkpt lat="44.71362" lon="3.74253">
        <ele>1061.91</ele>
        <time>2025-07-24T14:55:52Z</time>
      </trkpt>
      <trkpt lat="44.71363" lon="3.74254">
        <ele>1061.91</ele>
        <time>2025-07-24T14:55:53Z</time>
      </trkpt>
      <trkpt lat="44.71365" lon="3.74255">
        <ele>1062.39</ele>
        <time>2025-07-24T14:55:54Z</time>
      </trkpt>
      <trkpt lat="44.71367" lon="3.74256">
        <ele>1062.39</ele>
        <time>2025-07-24T14:55:55Z</time>
      </trkpt>
      <trkpt lat="44.71368" lon="3.74257">
        <ele>1062.39</ele>
        <time>2025-07-24T14:55:56Z</time>
      </trkpt>
      <trkpt lat="44.71389" lon="3.74273">
        <ele>1060.47</ele>
        <time>2025-07-24T14:56:12Z</time>
      </trkpt>
      <trkpt lat="44.71414" lon="3.74296">
        <ele>1061.91</ele>
        <time>2025-07-24T14:56:30Z</time>
      </trkpt>
      <trkpt lat="44.71429" lon="3.74316">
        <ele>1062.39</ele>
        <time>2025-07-24T14:56:48Z</time>
      </trkpt>
      <trkpt lat="44.71429" lon="3.74319">
        <ele>1062.39</ele>
        <time>2025-07-24T14:56:50Z</time>
      </trkpt>
      <trkpt lat="44.71429" lon="3.74321">
        <ele>1062.39</ele>
        <time>2025-07-24T14:56:51Z</time>
      </trkpt>
      <trkpt lat="44.71436" lon="3.74349">
        <ele>1059.51</ele>
        <time>2025-07-24T14:57:07Z</time>
      </trkpt>
      <trkpt lat="44.71439" lon="3.74356">
        <ele>1059.51</ele>
        <time>2025-07-24T14:57:11Z</time>
      </trkpt>
      <trkpt lat="44.71457" lon="3.74378">
        <ele>1059.99</ele>
        <time>2025-07-24T14:57:30Z</time>
      </trkpt>
      <trkpt lat="44.71457" lon="3.74408">
        <ele>1061.43</ele>
        <time>2025-07-24T14:57:45Z</time>
      </trkpt>
      <trkpt lat="44.71458" lon="3.74446">
        <ele>1057.11</ele>
        <time>2025-07-24T14:58:01Z</time>
      </trkpt>
      <trkpt lat="44.71464" lon="3.74476">
        <ele>1058.07</ele>
        <time>2025-07-24T14:58:19Z</time>
      </trkpt>
      <trkpt lat="44.71465" lon="3.74499">
        <ele>1058.07</ele>
        <time>2025-07-24T14:58:37Z</time>
      </trkpt>
      <trkpt lat="44.71465" lon="3.74507">
        <ele>1058.55</ele>
        <time>2025-07-24T14:58:54Z</time>
      </trkpt>
      <trkpt lat="44.71466" lon="3.7451">
        <ele>1059.03</ele>
        <time>2025-07-24T14:59:12Z</time>
      </trkpt>
      <trkpt lat="44.71464" lon="3.74513">
        <ele>1058.55</ele>
        <time>2025-07-24T14:59:27Z</time>
      </trkpt>
      <trkpt lat="44.71463" lon="3.74519">
        <ele>1057.59</ele>
        <time>2025-07-24T14:59:37Z</time>
      </trkpt>
      <trkpt lat="44.71461" lon="3.74533">
        <ele>1059.03</ele>
        <time>2025-07-24T14:59:44Z</time>
      </trkpt>
      <trkpt lat="44.71474" lon="3.74549">
        <ele>1061.91</ele>
        <time>2025-07-24T14:59:58Z</time>
      </trkpt>
      <trkpt lat="44.715" lon="3.74556">
        <ele>1062.87</ele>
        <time>2025-07-24T15:00:14Z</time>
      </trkpt>
      <trkpt lat="44.71518" lon="3.74565">
        <ele>1063.36</ele>
        <time>2025-07-24T15:00:28Z</time>
      </trkpt>
      <trkpt lat="44.71538" lon="3.74578">
        <ele>1063.36</ele>
        <time>2025-07-24T15:00:45Z</time>
      </trkpt>
      <trkpt lat="44.71543" lon="3.74599">
        <ele>1063.84</ele>
        <time>2025-07-24T15:00:56Z</time>
      </trkpt>
      <trkpt lat="44.71563" lon="3.74605">
        <ele>1066.24</ele>
        <time>2025-07-24T15:01:11Z</time>
      </trkpt>
      <trkpt lat="44.71584" lon="3.74592">
        <ele>1066.72</ele>
        <time>2025-07-24T15:01:26Z</time>
      </trkpt>
      <trkpt lat="44.71599" lon="3.74578">
        <ele>1067.68</ele>
        <time>2025-07-24T15:01:38Z</time>
      </trkpt>
      <trkpt lat="44.71616" lon="3.74563">
        <ele>1072.97</ele>
        <time>2025-07-24T15:01:51Z</time>
      </trkpt>
      <trkpt lat="44.7164" lon="3.74544">
        <ele>1078.26</ele>
        <time>2025-07-24T15:02:09Z</time>
      </trkpt>
      <trkpt lat="44.71661" lon="3.7453">
        <ele>1078.26</ele>
        <time>2025-07-24T15:02:24Z</time>
      </trkpt>
      <trkpt lat="44.71677" lon="3.74514">
        <ele>1077.78</ele>
        <time>2025-07-24T15:02:36Z</time>
      </trkpt>
      <trkpt lat="44.71696" lon="3.74505">
        <ele>1073.93</ele>
        <time>2025-07-24T15:02:52Z</time>
      </trkpt>
      <trkpt lat="44.7172" lon="3.74491">
        <ele>1074.89</ele>
        <time>2025-07-24T15:03:10Z</time>
      </trkpt>
      <trkpt lat="44.71742" lon="3.74472">
        <ele>1078.74</ele>
        <time>2025-07-24T15:03:28Z</time>
      </trkpt>
      <trkpt lat="44.71751" lon="3.74472">
        <ele>1080.18</ele>
        <time>2025-07-24T15:03:36Z</time>
      </trkpt>
      <trkpt lat="44.71751" lon="3.74474">
        <ele>1080.18</ele>
        <time>2025-07-24T15:03:37Z</time>
      </trkpt>
      <trkpt lat="44.71752" lon="3.74476">
        <ele>1080.66</ele>
        <time>2025-07-24T15:03:38Z</time>
      </trkpt>
      <trkpt lat="44.71751" lon="3.74478">
        <ele>1080.66</ele>
        <time>2025-07-24T15:03:39Z</time>
      </trkpt>
      <trkpt lat="44.7175" lon="3.7448">
        <ele>1080.66</ele>
        <time>2025-07-24T15:03:40Z</time>
      </trkpt>
      <trkpt lat="44.71749" lon="3.74482">
        <ele>1080.66</ele>
        <time>2025-07-24T15:03:41Z</time>
      </trkpt>
      <trkpt lat="44.71748" lon="3.74483">
        <ele>1081.14</ele>
        <time>2025-07-24T15:03:42Z</time>
      </trkpt>
      <trkpt lat="44.71732" lon="3.74509">
        <ele>1084.99</ele>
        <time>2025-07-24T15:03:58Z</time>
      </trkpt>
      <trkpt lat="44.71719" lon="3.74534">
        <ele>1087.39</ele>
        <time>2025-07-24T15:04:14Z</time>
      </trkpt>
      <trkpt lat="44.71707" lon="3.74562">
        <ele>1089.79</ele>
        <time>2025-07-24T15:04:33Z</time>
      </trkpt>
      <trkpt lat="44.71696" lon="3.74597">
        <ele>1089.79</ele>
        <time>2025-07-24T15:04:51Z</time>
      </trkpt>
      <trkpt lat="44.71687" lon="3.74625">
        <ele>1089.79</ele>
        <time>2025-07-24T15:05:07Z</time>
      </trkpt>
      <trkpt lat="44.71679" lon="3.74652">
        <ele>1091.23</ele>
        <time>2025-07-24T15:05:21Z</time>
      </trkpt>
      <trkpt lat="44.71676" lon="3.74684">
        <ele>1092.2</ele>
        <time>2025-07-24T15:05:39Z</time>
      </trkpt>
      <trkpt lat="44.71668" lon="3.74717">
        <ele>1094.12</ele>
        <time>2025-07-24T15:05:57Z</time>
      </trkpt>
      <trkpt lat="44.71657" lon="3.74748">
        <ele>1097</ele>
        <time>2025-07-24T15:06:14Z</time>
      </trkpt>
      <trkpt lat="44.71646" lon="3.74769">
        <ele>1097.96</ele>
        <time>2025-07-24T15:06:28Z</time>
      </trkpt>
      <trkpt lat="44.71629" lon="3.74799">
        <ele>1099.89</ele>
        <time>2025-07-24T15:06:46Z</time>
      </trkpt>
      <trkpt lat="44.71618" lon="3.74826">
        <ele>1100.85</ele>
        <time>2025-07-24T15:07:03Z</time>
      </trkpt>
      <trkpt lat="44.71612" lon="3.74855">
        <ele>1102.29</ele>
        <time>2025-07-24T15:07:19Z</time>
      </trkpt>
      <trkpt lat="44.71607" lon="3.74897">
        <ele>1102.77</ele>
        <time>2025-07-24T15:07:41Z</time>
      </trkpt>
      <trkpt lat="44.71602" lon="3.74934">
        <ele>1106.13</ele>
        <time>2025-07-24T15:08:00Z</time>
      </trkpt>
      <trkpt lat="44.71594" lon="3.74973">
        <ele>1106.61</ele>
        <time>2025-07-24T15:08:20Z</time>
      </trkpt>
      <trkpt lat="44.71587" lon="3.75007">
        <ele>1106.61</ele>
        <time>2025-07-24T15:08:38Z</time>
      </trkpt>
      <trkpt lat="44.71585" lon="3.75037">
        <ele>1107.58</ele>
        <time>2025-07-24T15:08:53Z</time>
      </trkpt>
      <trkpt lat="44.71585" lon="3.75039">
        <ele>1107.58</ele>
        <time>2025-07-24T15:08:54Z</time>
      </trkpt>
      <trkpt lat="44.71585" lon="3.75041">
        <ele>1107.1</ele>
        <time>2025-07-24T15:08:55Z</time>
      </trkpt>
      <trkpt lat="44.71584" lon="3.75043">
        <ele>1107.58</ele>
        <time>2025-07-24T15:08:56Z</time>
      </trkpt>
      <trkpt lat="44.71584" lon="3.75045">
        <ele>1107.1</ele>
        <time>2025-07-24T15:08:57Z</time>
      </trkpt>
      <trkpt lat="44.71584" lon="3.75094">
        <ele>1109.5</ele>
        <time>2025-07-24T15:09:20Z</time>
      </trkpt>
      <trkpt lat="44.71584" lon="3.75135">
        <ele>1110.94</ele>
        <time>2025-07-24T15:09:40Z</time>
      </trkpt>
      <trkpt lat="44.71584" lon="3.75165">
        <ele>1111.42</ele>
        <time>2025-07-24T15:09:55Z</time>
      </trkpt>
      <trkpt lat="44.71585" lon="3.75201">
        <ele>1111.9</ele>
        <time>2025-07-24T15:10:13Z</time>
      </trkpt>
      <trkpt lat="44.71587" lon="3.75235">
        <ele>1112.38</ele>
        <time>2025-07-24T15:10:30Z</time>
      </trkpt>
      <trkpt lat="44.71593" lon="3.75266">
        <ele>1112.38</ele>
        <time>2025-07-24T15:10:46Z</time>
      </trkpt>
      <trkpt lat="44.71607" lon="3.75309">
        <ele>1110.46</ele>
        <time>2025-07-24T15:11:08Z</time>
      </trkpt>
      <trkpt lat="44.71622" lon="3.75359">
        <ele>1110.46</ele>
        <time>2025-07-24T15:11:33Z</time>
      </trkpt>
      <trkpt lat="44.71636" lon="3.75403">
        <ele>1109.5</ele>
        <time>2025-07-24T15:11:56Z</time>
      </trkpt>
      <trkpt lat="44.7165" lon="3.75443">
        <ele>1109.02</ele>
        <time>2025-07-24T15:12:17Z</time>
      </trkpt>
      <trkpt lat="44.71655" lon="3.75477">
        <ele>1107.1</ele>
        <time>2025-07-24T15:12:34Z</time>
      </trkpt>
      <trkpt lat="44.71662" lon="3.75515">
        <ele>1107.1</ele>
        <time>2025-07-24T15:12:53Z</time>
      </trkpt>
      <trkpt lat="44.7167" lon="3.7557">
        <ele>1103.73</ele>
        <time>2025-07-24T15:13:18Z</time>
      </trkpt>
      <trkpt lat="44.71671" lon="3.7561">
        <ele>1103.25</ele>
        <time>2025-07-24T15:13:37Z</time>
      </trkpt>
      <trkpt lat="44.71671" lon="3.75626">
        <ele>1103.73</ele>
        <time>2025-07-24T15:13:45Z</time>
      </trkpt>
      <trkpt lat="44.71672" lon="3.75628">
        <ele>1103.73</ele>
        <time>2025-07-24T15:13:46Z</time>
      </trkpt>
      <trkpt lat="44.71673" lon="3.7563">
        <ele>1103.25</ele>
        <time>2025-07-24T15:13:47Z</time>
      </trkpt>
      <trkpt lat="44.71692" lon="3.75667">
        <ele>1102.29</ele>
        <time>2025-07-24T15:14:07Z</time>
      </trkpt>
      <trkpt lat="44.71701" lon="3.75709">
        <ele>1101.81</ele>
        <time>2025-07-24T15:14:28Z</time>
      </trkpt>
      <trkpt lat="44.71706" lon="3.75747">
        <ele>1098.44</ele>
        <time>2025-07-24T15:14:47Z</time>
      </trkpt>
      <trkpt lat="44.71709" lon="3.75782">
        <ele>1095.56</ele>
        <time>2025-07-24T15:15:04Z</time>
      </trkpt>
      <trkpt lat="44.71709" lon="3.75806">
        <ele>1093.64</ele>
        <time>2025-07-24T15:15:16Z</time>
      </trkpt>
      <trkpt lat="44.7171" lon="3.75808">
        <ele>1093.64</ele>
        <time>2025-07-24T15:15:17Z</time>
      </trkpt>
      <trkpt lat="44.7171" lon="3.7581">
        <ele>1093.64</ele>
        <time>2025-07-24T15:15:18Z</time>
      </trkpt>
      <trkpt lat="44.71715" lon="3.75851">
        <ele>1089.79</ele>
        <time>2025-07-24T15:15:37Z</time>
      </trkpt>
      <trkpt lat="44.71719" lon="3.75892">
        <ele>1085.47</ele>
        <time>2025-07-24T15:15:56Z</time>
      </trkpt>
      <trkpt lat="44.71731" lon="3.75924">
        <ele>1083.54</ele>
        <time>2025-07-24T15:16:13Z</time>
      </trkpt>
      <trkpt lat="44.71749" lon="3.75955">
        <ele>1084.02</ele>
        <time>2025-07-24T15:16:30Z</time>
      </trkpt>
      <trkpt lat="44.71767" lon="3.75983">
        <ele>1083.54</ele>
        <time>2025-07-24T15:16:46Z</time>
      </trkpt>
      <trkpt lat="44.71787" lon="3.76007">
        <ele>1084.02</ele>
        <time>2025-07-24T15:17:03Z</time>
      </trkpt>
      <trkpt lat="44.71815" lon="3.76028">
        <ele>1084.99</ele>
        <time>2025-07-24T15:17:23Z</time>
      </trkpt>
      <trkpt lat="44.71829" lon="3.76054">
        <ele>1084.02</ele>
        <time>2025-07-24T15:17:38Z</time>
      </trkpt>
      <trkpt lat="44.71837" lon="3.76092">
        <ele>1080.18</ele>
        <time>2025-07-24T15:17:54Z</time>
      </trkpt>
      <trkpt lat="44.7185" lon="3.76127">
        <ele>1074.89</ele>
        <time>2025-07-24T15:18:11Z</time>
      </trkpt>
      <trkpt lat="44.71876" lon="3.76148">
        <ele>1072.97</ele>
        <time>2025-07-24T15:18:29Z</time>
      </trkpt>
      <trkpt lat="44.71899" lon="3.76169">
        <ele>1072.49</ele>
        <time>2025-07-24T15:18:46Z</time>
      </trkpt>
      <trkpt lat="44.71927" lon="3.76183">
        <ele>1073.45</ele>
        <time>2025-07-24T15:19:05Z</time>
      </trkpt>
      <trkpt lat="44.71955" lon="3.76189">
        <ele>1073.93</ele>
        <time>2025-07-24T15:19:23Z</time>
      </trkpt>
      <trkpt lat="44.71969" lon="3.76194">
        <ele>1071.05</ele>
        <time>2025-07-24T15:19:39Z</time>
      </trkpt>
      <trkpt lat="44.71975" lon="3.76196">
        <ele>1069.6</ele>
        <time>2025-07-24T15:19:52Z</time>
      </trkpt>
      <trkpt lat="44.7198" lon="3.762">
        <ele>1068.64</ele>
        <time>2025-07-24T15:20:06Z</time>
      </trkpt>
      <trkpt lat="44.71984" lon="3.76204">
        <ele>1068.64</ele>
        <time>2025-07-24T15:20:25Z</time>
      </trkpt>
      <trkpt lat="44.71993" lon="3.76214">
        <ele>1068.16</ele>
        <time>2025-07-24T15:20:38Z</time>
      </trkpt>
      <trkpt lat="44.71995" lon="3.76216">
        <ele>1068.64</ele>
        <time>2025-07-24T15:20:40Z</time>
      </trkpt>
      <trkpt lat="44.71996" lon="3.76217">
        <ele>1068.64</ele>
        <time>2025-07-24T15:20:41Z</time>
      </trkpt>
      <trkpt lat="44.71997" lon="3.76219">
        <ele>1068.64</ele>
        <time>2025-07-24T15:20:42Z</time>
      </trkpt>
      <trkpt lat="44.71998" lon="3.7622">
        <ele>1068.64</ele>
        <time>2025-07-24T15:20:43Z</time>
      </trkpt>
      <trkpt lat="44.71998" lon="3.76221">
        <ele>1068.64</ele>
        <time>2025-07-24T15:20:44Z</time>
      </trkpt>
      <trkpt lat="44.72012" lon="3.76243">
        <ele>1068.64</ele>
        <time>2025-07-24T15:21:00Z</time>
      </trkpt>
      <trkpt lat="44.72033" lon="3.76259">
        <ele>1069.6</ele>
        <time>2025-07-24T15:21:16Z</time>
      </trkpt>
      <trkpt lat="44.72044" lon="3.76265">
        <ele>1068.16</ele>
        <time>2025-07-24T15:21:26Z</time>
      </trkpt>
      <trkpt lat="44.72065" lon="3.76294">
        <ele>1069.6</ele>
        <time>2025-07-24T15:21:46Z</time>
      </trkpt>
      <trkpt lat="44.72076" lon="3.76308">
        <ele>1070.57</ele>
        <time>2025-07-24T15:21:56Z</time>
      </trkpt>
      <trkpt lat="44.72092" lon="3.76337">
        <ele>1071.53</ele>
        <time>2025-07-24T15:22:15Z</time>
      </trkpt>
      <trkpt lat="44.72104" lon="3.76359">
        <ele>1072.49</ele>
        <time>2025-07-24T15:22:30Z</time>
      </trkpt>
      <trkpt lat="44.72115" lon="3.76387">
        <ele>1072.97</ele>
        <time>2025-07-24T15:22:46Z</time>
      </trkpt>
      <trkpt lat="44.72119" lon="3.76402">
        <ele>1074.89</ele>
        <time>2025-07-24T15:22:55Z</time>
      </trkpt>
      <trkpt lat="44.7212" lon="3.76403">
        <ele>1074.89</ele>
        <time>2025-07-24T15:22:56Z</time>
      </trkpt>
      <trkpt lat="44.72123" lon="3.76432">
        <ele>1076.33</ele>
        <time>2025-07-24T15:23:12Z</time>
      </trkpt>
      <trkpt lat="44.72119" lon="3.76463">
        <ele>1075.85</ele>
        <time>2025-07-24T15:23:27Z</time>
      </trkpt>
      <trkpt lat="44.7212" lon="3.76497">
        <ele>1071.53</ele>
        <time>2025-07-24T15:23:44Z</time>
      </trkpt>
      <trkpt lat="44.72125" lon="3.76535">
        <ele>1066.24</ele>
        <time>2025-07-24T15:24:03Z</time>
      </trkpt>
      <trkpt lat="44.72126" lon="3.76564">
        <ele>1071.05</ele>
        <time>2025-07-24T15:24:18Z</time>
      </trkpt>
      <trkpt lat="44.72128" lon="3.76591">
        <ele>1073.93</ele>
        <time>2025-07-24T15:24:31Z</time>
      </trkpt>
      <trkpt lat="44.72128" lon="3.76593">
        <ele>1073.93</ele>
        <time>2025-07-24T15:24:32Z</time>
      </trkpt>
      <trkpt lat="44.72128" lon="3.76595">
        <ele>1073.45</ele>
        <time>2025-07-24T15:24:33Z</time>
      </trkpt>
      <trkpt lat="44.72128" lon="3.766">
        <ele>1072.01</ele>
        <time>2025-07-24T15:24:36Z</time>
      </trkpt>
      <trkpt lat="44.72133" lon="3.76622">
        <ele>1070.08</ele>
        <time>2025-07-24T15:24:47Z</time>
      </trkpt>
      <trkpt lat="44.72142" lon="3.76645">
        <ele>1068.64</ele>
        <time>2025-07-24T15:25:01Z</time>
      </trkpt>
      <trkpt lat="44.72148" lon="3.76673">
        <ele>1071.05</ele>
        <time>2025-07-24T15:25:15Z</time>
      </trkpt>
      <trkpt lat="44.72156" lon="3.76707">
        <ele>1068.16</ele>
        <time>2025-07-24T15:25:34Z</time>
      </trkpt>
      <trkpt lat="44.72161" lon="3.76741">
        <ele>1062.39</ele>
        <time>2025-07-24T15:25:52Z</time>
      </trkpt>
      <trkpt lat="44.72164" lon="3.76766">
        <ele>1058.55</ele>
        <time>2025-07-24T15:26:07Z</time>
      </trkpt>
      <trkpt lat="44.72172" lon="3.76794">
        <ele>1057.11</ele>
        <time>2025-07-24T15:26:23Z</time>
      </trkpt>
      <trkpt lat="44.72183" lon="3.76817">
        <ele>1072.01</ele>
        <time>2025-07-24T15:26:37Z</time>
      </trkpt>
      <trkpt lat="44.7219" lon="3.76847">
        <ele>1081.62</ele>
        <time>2025-07-24T15:26:52Z</time>
      </trkpt>
      <trkpt lat="44.72199" lon="3.76872">
        <ele>1085.95</ele>
        <time>2025-07-24T15:27:06Z</time>
      </trkpt>
      <trkpt lat="44.7221" lon="3.76896">
        <ele>1087.87</ele>
        <time>2025-07-24T15:27:21Z</time>
      </trkpt>
      <trkpt lat="44.72222" lon="3.7692">
        <ele>1088.83</ele>
        <time>2025-07-24T15:27:37Z</time>
      </trkpt>
      <trkpt lat="44.72234" lon="3.76942">
        <ele>1088.83</ele>
        <time>2025-07-24T15:27:50Z</time>
      </trkpt>
      <trkpt lat="44.72245" lon="3.76965">
        <ele>1086.43</ele>
        <time>2025-07-24T15:28:06Z</time>
      </trkpt>
      <trkpt lat="44.72257" lon="3.76985">
        <ele>1087.87</ele>
        <time>2025-07-24T15:28:21Z</time>
      </trkpt>
      <trkpt lat="44.7226" lon="3.76994">
        <ele>1087.39</ele>
        <time>2025-07-24T15:28:27Z</time>
      </trkpt>
      <trkpt lat="44.72266" lon="3.77015">
        <ele>1084.99</ele>
        <time>2025-07-24T15:28:41Z</time>
      </trkpt>
      <trkpt lat="44.72276" lon="3.7704">
        <ele>1082.58</ele>
        <time>2025-07-24T15:28:55Z</time>
      </trkpt>
      <trkpt lat="44.7229" lon="3.77064">
        <ele>1082.1</ele>
        <time>2025-07-24T15:29:11Z</time>
      </trkpt>
      <trkpt lat="44.72303" lon="3.77089">
        <ele>1076.81</ele>
        <time>2025-07-24T15:29:28Z</time>
      </trkpt>
      <trkpt lat="44.72308" lon="3.77098">
        <ele>1076.81</ele>
        <time>2025-07-24T15:29:33Z</time>
      </trkpt>
      <trkpt lat="44.72318" lon="3.77117">
        <ele>1077.29</ele>
        <time>2025-07-24T15:29:44Z</time>
      </trkpt>
      <trkpt lat="44.72326" lon="3.77138">
        <ele>1076.81</ele>
        <time>2025-07-24T15:29:56Z</time>
      </trkpt>
      <trkpt lat="44.72335" lon="3.77164">
        <ele>1073.93</ele>
        <time>2025-07-24T15:30:12Z</time>
      </trkpt>
      <trkpt lat="44.72337" lon="3.77166">
        <ele>1073.45</ele>
        <time>2025-07-24T15:30:14Z</time>
      </trkpt>
      <trkpt lat="44.72339" lon="3.77167">
        <ele>1073.45</ele>
        <time>2025-07-24T15:30:15Z</time>
      </trkpt>
      <trkpt lat="44.7234" lon="3.77168">
        <ele>1073.45</ele>
        <time>2025-07-24T15:30:16Z</time>
      </trkpt>
      <trkpt lat="44.72345" lon="3.77173">
        <ele>1072.97</ele>
        <time>2025-07-24T15:30:19Z</time>
      </trkpt>
      <trkpt lat="44.72345" lon="3.77174">
        <ele>1072.49</ele>
        <time>2025-07-24T15:30:20Z</time>
      </trkpt>
      <trkpt lat="44.72352" lon="3.77212">
        <ele>1072.01</ele>
        <time>2025-07-24T15:30:37Z</time>
      </trkpt>
      <trkpt lat="44.72356" lon="3.77247">
        <ele>1072.01</ele>
        <time>2025-07-24T15:30:55Z</time>
      </trkpt>
      <trkpt lat="44.72365" lon="3.7727">
        <ele>1072.01</ele>
        <time>2025-07-24T15:31:07Z</time>
      </trkpt>
      <trkpt lat="44.72375" lon="3.77293">
        <ele>1069.6</ele>
        <time>2025-07-24T15:31:22Z</time>
      </trkpt>
      <trkpt lat="44.7238" lon="3.77301">
        <ele>1069.12</ele>
        <time>2025-07-24T15:31:27Z</time>
      </trkpt>
      <trkpt lat="44.72382" lon="3.77303">
        <ele>1069.12</ele>
        <time>2025-07-24T15:31:28Z</time>
      </trkpt>
      <trkpt lat="44.72389" lon="3.77336">
        <ele>1066.72</ele>
        <time>2025-07-24T15:31:44Z</time>
      </trkpt>
      <trkpt lat="44.72388" lon="3.77372">
        <ele>1064.32</ele>
        <time>2025-07-24T15:32:02Z</time>
      </trkpt>
      <trkpt lat="44.72396" lon="3.77416">
        <ele>1061.43</ele>
        <time>2025-07-24T15:32:21Z</time>
      </trkpt>
      <trkpt lat="44.72401" lon="3.7745">
        <ele>1059.99</ele>
        <time>2025-07-24T15:32:38Z</time>
      </trkpt>
      <trkpt lat="44.72409" lon="3.77475">
        <ele>1058.55</ele>
        <time>2025-07-24T15:32:51Z</time>
      </trkpt>
      <trkpt lat="44.72419" lon="3.77507">
        <ele>1058.07</ele>
        <time>2025-07-24T15:33:06Z</time>
      </trkpt>
      <trkpt lat="44.72423" lon="3.77548">
        <ele>1057.11</ele>
        <time>2025-07-24T15:33:25Z</time>
      </trkpt>
      <trkpt lat="44.72418" lon="3.77586">
        <ele>1057.59</ele>
        <time>2025-07-24T15:33:42Z</time>
      </trkpt>
      <trkpt lat="44.72426" lon="3.77612">
        <ele>1055.67</ele>
        <time>2025-07-24T15:33:55Z</time>
      </trkpt>
      <trkpt lat="44.72434" lon="3.77646">
        <ele>1052.78</ele>
        <time>2025-07-24T15:34:15Z</time>
      </trkpt>
      <trkpt lat="44.72446" lon="3.77673">
        <ele>1052.3</ele>
        <time>2025-07-24T15:34:32Z</time>
      </trkpt>
      <trkpt lat="44.7246" lon="3.77693">
        <ele>1052.3</ele>
        <time>2025-07-24T15:34:48Z</time>
      </trkpt>
      <trkpt lat="44.72474" lon="3.77711">
        <ele>1053.74</ele>
        <time>2025-07-24T15:35:01Z</time>
      </trkpt>
      <trkpt lat="44.72475" lon="3.77711">
        <ele>1053.74</ele>
        <time>2025-07-24T15:35:02Z</time>
      </trkpt>
      <trkpt lat="44.72497" lon="3.77711">
        <ele>1057.59</ele>
        <time>2025-07-24T15:35:16Z</time>
      </trkpt>
      <trkpt lat="44.72499" lon="3.77713">
        <ele>1057.59</ele>
        <time>2025-07-24T15:35:18Z</time>
      </trkpt>
      <trkpt lat="44.725" lon="3.77714">
        <ele>1057.59</ele>
        <time>2025-07-24T15:35:19Z</time>
      </trkpt>
      <trkpt lat="44.72514" lon="3.77741">
        <ele>1057.11</ele>
        <time>2025-07-24T15:35:35Z</time>
      </trkpt>
      <trkpt lat="44.72522" lon="3.77773">
        <ele>1057.11</ele>
        <time>2025-07-24T15:35:51Z</time>
      </trkpt>
      <trkpt lat="44.72522" lon="3.77784">
        <ele>1056.63</ele>
        <time>2025-07-24T15:35:57Z</time>
      </trkpt>
      <trkpt lat="44.72523" lon="3.77786">
        <ele>1056.63</ele>
        <time>2025-07-24T15:35:58Z</time>
      </trkpt>
      <trkpt lat="44.72523" lon="3.77788">
        <ele>1056.63</ele>
        <time>2025-07-24T15:35:59Z</time>
      </trkpt>
      <trkpt lat="44.72523" lon="3.7779">
        <ele>1056.63</ele>
        <time>2025-07-24T15:36:00Z</time>
      </trkpt>
      <trkpt lat="44.72523" lon="3.77793">
        <ele>1056.15</ele>
        <time>2025-07-24T15:36:01Z</time>
      </trkpt>
      <trkpt lat="44.72524" lon="3.77795">
        <ele>1056.15</ele>
        <time>2025-07-24T15:36:02Z</time>
      </trkpt>
      <trkpt lat="44.72524" lon="3.77797">
        <ele>1056.15</ele>
        <time>2025-07-24T15:36:03Z</time>
      </trkpt>
      <trkpt lat="44.72525" lon="3.77799">
        <ele>1056.15</ele>
        <time>2025-07-24T15:36:04Z</time>
      </trkpt>
      <trkpt lat="44.72541" lon="3.77826">
        <ele>1055.67</ele>
        <time>2025-07-24T15:36:21Z</time>
      </trkpt>
      <trkpt lat="44.72565" lon="3.77851">
        <ele>1055.67</ele>
        <time>2025-07-24T15:36:41Z</time>
      </trkpt>
      <trkpt lat="44.7259" lon="3.77876">
        <ele>1056.15</ele>
        <time>2025-07-24T15:36:58Z</time>
      </trkpt>
      <trkpt lat="44.72609" lon="3.77894">
        <ele>1056.15</ele>
        <time>2025-07-24T15:37:14Z</time>
      </trkpt>
      <trkpt lat="44.72624" lon="3.77911">
        <ele>1055.67</ele>
        <time>2025-07-24T15:37:30Z</time>
      </trkpt>
      <trkpt lat="44.72625" lon="3.77912">
        <ele>1055.67</ele>
        <time>2025-07-24T15:37:31Z</time>
      </trkpt>
      <trkpt lat="44.72647" lon="3.77929">
        <ele>1056.15</ele>
        <time>2025-07-24T15:37:50Z</time>
      </trkpt>
      <trkpt lat="44.72674" lon="3.77943">
        <ele>1057.59</ele>
        <time>2025-07-24T15:38:10Z</time>
      </trkpt>
      <trkpt lat="44.72696" lon="3.77965">
        <ele>1056.63</ele>
        <time>2025-07-24T15:38:28Z</time>
      </trkpt>
      <trkpt lat="44.72719" lon="3.77992">
        <ele>1057.59</ele>
        <time>2025-07-24T15:38:48Z</time>
      </trkpt>
      <trkpt lat="44.7274" lon="3.78016">
        <ele>1058.55</ele>
        <time>2025-07-24T15:39:06Z</time>
      </trkpt>
      <trkpt lat="44.7276" lon="3.78045">
        <ele>1058.07</ele>
        <time>2025-07-24T15:39:26Z</time>
      </trkpt>
      <trkpt lat="44.72772" lon="3.78073">
        <ele>1059.51</ele>
        <time>2025-07-24T15:39:43Z</time>
      </trkpt>
      <trkpt lat="44.72788" lon="3.78108">
        <ele>1060.47</ele>
        <time>2025-07-24T15:40:04Z</time>
      </trkpt>
      <trkpt lat="44.72809" lon="3.7814">
        <ele>1060.95</ele>
        <time>2025-07-24T15:40:25Z</time>
      </trkpt>
      <trkpt lat="44.72828" lon="3.78159">
        <ele>1059.99</ele>
        <time>2025-07-24T15:40:43Z</time>
      </trkpt>
      <trkpt lat="44.7283" lon="3.78162">
        <ele>1059.51</ele>
        <time>2025-07-24T15:40:46Z</time>
      </trkpt>
      <trkpt lat="44.72844" lon="3.78182">
        <ele>1058.07</ele>
        <time>2025-07-24T15:41:05Z</time>
      </trkpt>
      <trkpt lat="44.72862" lon="3.78211">
        <ele>1057.59</ele>
        <time>2025-07-24T15:41:24Z</time>
      </trkpt>
      <trkpt lat="44.7288" lon="3.78239">
        <ele>1057.11</ele>
        <time>2025-07-24T15:41:41Z</time>
      </trkpt>
      <trkpt lat="44.729" lon="3.78273">
        <ele>1056.15</ele>
        <time>2025-07-24T15:42:02Z</time>
      </trkpt>
      <trkpt lat="44.72917" lon="3.78312">
        <ele>1056.63</ele>
        <time>2025-07-24T15:42:22Z</time>
      </trkpt>
      <trkpt lat="44.72918" lon="3.78314">
        <ele>1056.63</ele>
        <time>2025-07-24T15:42:23Z</time>
      </trkpt>
      <trkpt lat="44.72918" lon="3.78317">
        <ele>1056.63</ele>
        <time>2025-07-24T15:42:24Z</time>
      </trkpt>
      <trkpt lat="44.72919" lon="3.78321">
        <ele>1056.63</ele>
        <time>2025-07-24T15:42:26Z</time>
      </trkpt>
      <trkpt lat="44.72931" lon="3.78346">
        <ele>1055.18</ele>
        <time>2025-07-24T15:42:42Z</time>
      </trkpt>
      <trkpt lat="44.72948" lon="3.78374">
        <ele>1053.26</ele>
        <time>2025-07-24T15:42:59Z</time>
      </trkpt>
      <trkpt lat="44.7296" lon="3.78401">
        <ele>1050.38</ele>
        <time>2025-07-24T15:43:15Z</time>
      </trkpt>
      <trkpt lat="44.72964" lon="3.78429">
        <ele>1047.49</ele>
        <time>2025-07-24T15:43:30Z</time>
      </trkpt>
      <trkpt lat="44.72968" lon="3.78468">
        <ele>1046.53</ele>
        <time>2025-07-24T15:43:50Z</time>
      </trkpt>
      <trkpt lat="44.72969" lon="3.78494">
        <ele>1045.57</ele>
        <time>2025-07-24T15:44:06Z</time>
      </trkpt>
      <trkpt lat="44.72969" lon="3.7853">
        <ele>1044.13</ele>
        <time>2025-07-24T15:44:23Z</time>
      </trkpt>
      <trkpt lat="44.72977" lon="3.7857">
        <ele>1049.9</ele>
        <time>2025-07-24T15:44:41Z</time>
      </trkpt>
      <trkpt lat="44.72994" lon="3.78599">
        <ele>1050.38</ele>
        <time>2025-07-24T15:44:59Z</time>
      </trkpt>
      <trkpt lat="44.7301" lon="3.7863">
        <ele>1049.42</ele>
        <time>2025-07-24T15:45:16Z</time>
      </trkpt>
      <trkpt lat="44.73023" lon="3.78657">
        <ele>1047.49</ele>
        <time>2025-07-24T15:45:32Z</time>
      </trkpt>
      <trkpt lat="44.73043" lon="3.78679">
        <ele>1042.21</ele>
        <time>2025-07-24T15:45:50Z</time>
      </trkpt>
      <trkpt lat="44.7305" lon="3.78685">
        <ele>1041.73</ele>
        <time>2025-07-24T15:45:56Z</time>
      </trkpt>
      <trkpt lat="44.73061" lon="3.78698">
        <ele>1039.8</ele>
        <time>2025-07-24T15:46:08Z</time>
      </trkpt>
      <trkpt lat="44.73062" lon="3.78699">
        <ele>1039.8</ele>
        <time>2025-07-24T15:46:09Z</time>
      </trkpt>
      <trkpt lat="44.73063" lon="3.78701">
        <ele>1039.32</ele>
        <time>2025-07-24T15:46:10Z</time>
      </trkpt>
      <trkpt lat="44.73063" lon="3.78703">
        <ele>1038.84</ele>
        <time>2025-07-24T15:46:11Z</time>
      </trkpt>
      <trkpt lat="44.73064" lon="3.78705">
        <ele>1038.84</ele>
        <time>2025-07-24T15:46:12Z</time>
      </trkpt>
      <trkpt lat="44.73069" lon="3.78731">
        <ele>1037.4</ele>
        <time>2025-07-24T15:46:26Z</time>
      </trkpt>
      <trkpt lat="44.73076" lon="3.78756">
        <ele>1035.48</ele>
        <time>2025-07-24T15:46:39Z</time>
      </trkpt>
      <trkpt lat="44.73089" lon="3.78781">
        <ele>1031.63</ele>
        <time>2025-07-24T15:46:56Z</time>
      </trkpt>
      <trkpt lat="44.73099" lon="3.78806">
        <ele>1030.67</ele>
        <time>2025-07-24T15:47:09Z</time>
      </trkpt>
      <trkpt lat="44.73099" lon="3.78808">
        <ele>1030.67</ele>
        <time>2025-07-24T15:47:10Z</time>
      </trkpt>
      <trkpt lat="44.731" lon="3.78809">
        <ele>1030.67</ele>
        <time>2025-07-24T15:47:11Z</time>
      </trkpt>
      <trkpt lat="44.73104" lon="3.78842">
        <ele>1029.23</ele>
        <time>2025-07-24T15:47:28Z</time>
      </trkpt>
      <trkpt lat="44.73109" lon="3.78864">
        <ele>1028.75</ele>
        <time>2025-07-24T15:47:42Z</time>
      </trkpt>
      <trkpt lat="44.73112" lon="3.78868">
        <ele>1032.11</ele>
        <time>2025-07-24T15:47:50Z</time>
      </trkpt>
      <trkpt lat="44.73107" lon="3.78897">
        <ele>1028.27</ele>
        <time>2025-07-24T15:48:05Z</time>
      </trkpt>
      <trkpt lat="44.73107" lon="3.78935">
        <ele>1024.9</ele>
        <time>2025-07-24T15:48:20Z</time>
      </trkpt>
      <trkpt lat="44.73112" lon="3.78967">
        <ele>1023.46</ele>
        <time>2025-07-24T15:48:36Z</time>
      </trkpt>
      <trkpt lat="44.73118" lon="3.78995">
        <ele>1021.06</ele>
        <time>2025-07-24T15:48:52Z</time>
      </trkpt>
      <trkpt lat="44.73118" lon="3.79023">
        <ele>1018.65</ele>
        <time>2025-07-24T15:49:08Z</time>
      </trkpt>
      <trkpt lat="44.73118" lon="3.79025">
        <ele>1018.65</ele>
        <time>2025-07-24T15:49:09Z</time>
      </trkpt>
      <trkpt lat="44.7312" lon="3.7906">
        <ele>1022.02</ele>
        <time>2025-07-24T15:49:27Z</time>
      </trkpt>
      <trkpt lat="44.73121" lon="3.7909">
        <ele>1021.54</ele>
        <time>2025-07-24T15:49:43Z</time>
      </trkpt>
      <trkpt lat="44.73121" lon="3.79117">
        <ele>1019.13</ele>
        <time>2025-07-24T15:49:57Z</time>
      </trkpt>
      <trkpt lat="44.73119" lon="3.79151">
        <ele>1017.21</ele>
        <time>2025-07-24T15:50:12Z</time>
      </trkpt>
      <trkpt lat="44.73118" lon="3.79185">
        <ele>1015.77</ele>
        <time>2025-07-24T15:50:29Z</time>
      </trkpt>
      <trkpt lat="44.73112" lon="3.79217">
        <ele>1014.33</ele>
        <time>2025-07-24T15:50:47Z</time>
      </trkpt>
      <trkpt lat="44.73105" lon="3.79247">
        <ele>1014.81</ele>
        <time>2025-07-24T15:51:03Z</time>
      </trkpt>
      <trkpt lat="44.73103" lon="3.79254">
        <ele>1014.81</ele>
        <time>2025-07-24T15:51:07Z</time>
      </trkpt>
      <trkpt lat="44.73094" lon="3.79284">
        <ele>1015.77</ele>
        <time>2025-07-24T15:51:23Z</time>
      </trkpt>
      <trkpt lat="44.73091" lon="3.79301">
        <ele>1010.96</ele>
        <time>2025-07-24T15:51:38Z</time>
      </trkpt>
      <trkpt lat="44.73087" lon="3.79317">
        <ele>1009.52</ele>
        <time>2025-07-24T15:51:54Z</time>
      </trkpt>
      <trkpt lat="44.73079" lon="3.79334">
        <ele>1010</ele>
        <time>2025-07-24T15:52:11Z</time>
      </trkpt>
      <trkpt lat="44.73078" lon="3.79339">
        <ele>1015.29</ele>
        <time>2025-07-24T15:52:37Z</time>
      </trkpt>
      <trkpt lat="44.73077" lon="3.79333">
        <ele>1016.25</ele>
        <time>2025-07-24T15:52:57Z</time>
      </trkpt>
      <trkpt lat="44.73079" lon="3.79331">
        <ele>1017.69</ele>
        <time>2025-07-24T15:53:14Z</time>
      </trkpt>
      <trkpt lat="44.73076" lon="3.79341">
        <ele>1017.69</ele>
        <time>2025-07-24T15:53:35Z</time>
      </trkpt>
      <trkpt lat="44.73077" lon="3.79331">
        <ele>1017.69</ele>
        <time>2025-07-24T15:53:58Z</time>
      </trkpt>
      <trkpt lat="44.73075" lon="3.79328">
        <ele>1021.06</ele>
        <time>2025-07-24T15:54:32Z</time>
      </trkpt>
      <trkpt lat="44.73075" lon="3.79336">
        <ele>1018.17</ele>
        <time>2025-07-24T15:54:49Z</time>
      </trkpt>
      <trkpt lat="44.73074" lon="3.79334">
        <ele>1018.65</ele>
        <time>2025-07-24T15:55:04Z</time>
      </trkpt>
      <trkpt lat="44.73075" lon="3.79334">
        <ele>1019.13</ele>
        <time>2025-07-24T15:55:18Z</time>
      </trkpt>
      <trkpt lat="44.73077" lon="3.7934">
        <ele>1018.65</ele>
        <time>2025-07-24T15:55:35Z</time>
      </trkpt>
      <trkpt lat="44.73075" lon="3.79341">
        <ele>1018.65</ele>
        <time>2025-07-24T15:55:54Z</time>
      </trkpt>
      <trkpt lat="44.7307" lon="3.79378">
        <ele>1016.73</ele>
        <time>2025-07-24T15:56:13Z</time>
      </trkpt>
      <trkpt lat="44.73069" lon="3.79393">
        <ele>1015.29</ele>
        <time>2025-07-24T15:56:20Z</time>
      </trkpt>
      <trkpt lat="44.73073" lon="3.79403">
        <ele>1013.85</ele>
        <time>2025-07-24T15:56:27Z</time>
      </trkpt>
      <trkpt lat="44.73073" lon="3.79423">
        <ele>1016.73</ele>
        <time>2025-07-24T15:56:37Z</time>
      </trkpt>
      <trkpt lat="44.73075" lon="3.79453">
        <ele>1016.73</ele>
        <time>2025-07-24T15:56:54Z</time>
      </trkpt>
      <trkpt lat="44.73082" lon="3.79476">
        <ele>1016.25</ele>
        <time>2025-07-24T15:57:07Z</time>
      </trkpt>
      <trkpt lat="44.73092" lon="3.79508">
        <ele>1016.73</ele>
        <time>2025-07-24T15:57:21Z</time>
      </trkpt>
      <trkpt lat="44.73096" lon="3.7954">
        <ele>1016.25</ele>
        <time>2025-07-24T15:57:37Z</time>
      </trkpt>
      <trkpt lat="44.731" lon="3.79571">
        <ele>1015.29</ele>
        <time>2025-07-24T15:57:54Z</time>
      </trkpt>
      <trkpt lat="44.73104" lon="3.79605">
        <ele>1015.29</ele>
        <time>2025-07-24T15:58:10Z</time>
      </trkpt>
      <trkpt lat="44.73103" lon="3.79642">
        <ele>1014.81</ele>
        <time>2025-07-24T15:58:28Z</time>
      </trkpt>
      <trkpt lat="44.73111" lon="3.79677">
        <ele>1014.33</ele>
        <time>2025-07-24T15:58:46Z</time>
      </trkpt>
      <trkpt lat="44.7311" lon="3.7971">
        <ele>1012.41</ele>
        <time>2025-07-24T15:59:04Z</time>
      </trkpt>
      <trkpt lat="44.73109" lon="3.7974">
        <ele>1011.93</ele>
        <time>2025-07-24T15:59:18Z</time>
      </trkpt>
      <trkpt lat="44.73109" lon="3.79774">
        <ele>1010</ele>
        <time>2025-07-24T15:59:35Z</time>
      </trkpt>
      <trkpt lat="44.73115" lon="3.79783">
        <ele>1009.04</ele>
        <time>2025-07-24T15:59:42Z</time>
      </trkpt>
      <trkpt lat="44.73122" lon="3.79808">
        <ele>1006.64</ele>
        <time>2025-07-24T15:59:55Z</time>
      </trkpt>
      <trkpt lat="44.73128" lon="3.79841">
        <ele>1002.31</ele>
        <time>2025-07-24T16:00:11Z</time>
      </trkpt>
      <trkpt lat="44.73127" lon="3.79865">
        <ele>1001.83</ele>
        <time>2025-07-24T16:00:22Z</time>
      </trkpt>
      <trkpt lat="44.73115" lon="3.79886">
        <ele>1003.27</ele>
        <time>2025-07-24T16:00:36Z</time>
      </trkpt>
      <trkpt lat="44.73116" lon="3.79916">
        <ele>1002.31</ele>
        <time>2025-07-24T16:00:51Z</time>
      </trkpt>
      <trkpt lat="44.73117" lon="3.79926">
        <ele>1001.83</ele>
        <time>2025-07-24T16:00:56Z</time>
      </trkpt>
      <trkpt lat="44.73121" lon="3.79959">
        <ele>1000.87</ele>
        <time>2025-07-24T16:01:14Z</time>
      </trkpt>
      <trkpt lat="44.73122" lon="3.79967">
        <ele>1000.39</ele>
        <time>2025-07-24T16:01:18Z</time>
      </trkpt>
      <trkpt lat="44.73124" lon="3.80008">
        <ele>1001.83</ele>
        <time>2025-07-24T16:01:36Z</time>
      </trkpt>
      <trkpt lat="44.73134" lon="3.80037">
        <ele>999.91</ele>
        <time>2025-07-24T16:01:50Z</time>
      </trkpt>
      <trkpt lat="44.73135" lon="3.80068">
        <ele>996.54</ele>
        <time>2025-07-24T16:02:07Z</time>
      </trkpt>
      <trkpt lat="44.73128" lon="3.801">
        <ele>995.58</ele>
        <time>2025-07-24T16:02:23Z</time>
      </trkpt>
      <trkpt lat="44.73131" lon="3.80116">
        <ele>993.66</ele>
        <time>2025-07-24T16:02:37Z</time>
      </trkpt>
      <trkpt lat="44.73136" lon="3.80132">
        <ele>987.89</ele>
        <time>2025-07-24T16:02:50Z</time>
      </trkpt>
      <trkpt lat="44.73145" lon="3.80153">
        <ele>985.49</ele>
        <time>2025-07-24T16:03:03Z</time>
      </trkpt>
      <trkpt lat="44.73149" lon="3.80173">
        <ele>982.12</ele>
        <time>2025-07-24T16:03:19Z</time>
      </trkpt>
      <trkpt lat="44.73148" lon="3.80185">
        <ele>974.91</ele>
        <time>2025-07-24T16:03:36Z</time>
      </trkpt>
      <trkpt lat="44.73162" lon="3.80212">
        <ele>978.76</ele>
        <time>2025-07-24T16:03:51Z</time>
      </trkpt>
      <trkpt lat="44.73163" lon="3.8024">
        <ele>978.28</ele>
        <time>2025-07-24T16:04:08Z</time>
      </trkpt>
      <trkpt lat="44.73163" lon="3.8026">
        <ele>975.39</ele>
        <time>2025-07-24T16:04:23Z</time>
      </trkpt>
      <trkpt lat="44.73169" lon="3.80287">
        <ele>972.03</ele>
        <time>2025-07-24T16:04:38Z</time>
      </trkpt>
      <trkpt lat="44.73164" lon="3.80308">
        <ele>971.55</ele>
        <time>2025-07-24T16:04:55Z</time>
      </trkpt>
      <trkpt lat="44.73159" lon="3.80329">
        <ele>969.63</ele>
        <time>2025-07-24T16:05:17Z</time>
      </trkpt>
      <trkpt lat="44.73164" lon="3.80351">
        <ele>970.11</ele>
        <time>2025-07-24T16:05:31Z</time>
      </trkpt>
      <trkpt lat="44.73173" lon="3.80383">
        <ele>967.7</ele>
        <time>2025-07-24T16:05:47Z</time>
      </trkpt>
      <trkpt lat="44.73177" lon="3.80413">
        <ele>965.3</ele>
        <time>2025-07-24T16:06:03Z</time>
      </trkpt>
      <trkpt lat="44.7318" lon="3.80438">
        <ele>961.94</ele>
        <time>2025-07-24T16:06:17Z</time>
      </trkpt>
      <trkpt lat="44.73176" lon="3.8046">
        <ele>957.13</ele>
        <time>2025-07-24T16:06:30Z</time>
      </trkpt>
      <trkpt lat="44.73192" lon="3.80491">
        <ele>960.98</ele>
        <time>2025-07-24T16:06:46Z</time>
      </trkpt>
      <trkpt lat="44.73193" lon="3.80497">
        <ele>961.46</ele>
        <time>2025-07-24T16:06:49Z</time>
      </trkpt>
      <trkpt lat="44.73201" lon="3.80525">
        <ele>960.98</ele>
        <time>2025-07-24T16:07:06Z</time>
      </trkpt>
      <trkpt lat="44.73208" lon="3.80546">
        <ele>956.65</ele>
        <time>2025-07-24T16:07:20Z</time>
      </trkpt>
      <trkpt lat="44.73211" lon="3.80571">
        <ele>951.36</ele>
        <time>2025-07-24T16:07:37Z</time>
      </trkpt>
      <trkpt lat="44.73216" lon="3.80594">
        <ele>945.11</ele>
        <time>2025-07-24T16:07:52Z</time>
      </trkpt>
      <trkpt lat="44.73219" lon="3.80616">
        <ele>945.11</ele>
        <time>2025-07-24T16:08:04Z</time>
      </trkpt>
      <trkpt lat="44.73224" lon="3.80643">
        <ele>945.59</ele>
        <time>2025-07-24T16:08:20Z</time>
      </trkpt>
      <trkpt lat="44.73227" lon="3.80671">
        <ele>942.23</ele>
        <time>2025-07-24T16:08:38Z</time>
      </trkpt>
      <trkpt lat="44.73224" lon="3.80685">
        <ele>939.83</ele>
        <time>2025-07-24T16:08:56Z</time>
      </trkpt>
      <trkpt lat="44.73224" lon="3.80706">
        <ele>942.71</ele>
        <time>2025-07-24T16:09:14Z</time>
      </trkpt>
      <trkpt lat="44.73236" lon="3.80719">
        <ele>943.67</ele>
        <time>2025-07-24T16:09:32Z</time>
      </trkpt>
      <trkpt lat="44.73255" lon="3.80722">
        <ele>942.71</ele>
        <time>2025-07-24T16:09:52Z</time>
      </trkpt>
      <trkpt lat="44.73266" lon="3.80701">
        <ele>941.75</ele>
        <time>2025-07-24T16:10:09Z</time>
      </trkpt>
      <trkpt lat="44.73282" lon="3.80659">
        <ele>943.67</ele>
        <time>2025-07-24T16:10:33Z</time>
      </trkpt>
      <trkpt lat="44.73283" lon="3.80642">
        <ele>942.23</ele>
        <time>2025-07-24T16:10:53Z</time>
      </trkpt>
      <trkpt lat="44.73281" lon="3.8061">
        <ele>938.38</ele>
        <time>2025-07-24T16:11:16Z</time>
      </trkpt>
      <trkpt lat="44.73284" lon="3.80581">
        <ele>938.86</ele>
        <time>2025-07-24T16:11:35Z</time>
      </trkpt>
      <trkpt lat="44.73303" lon="3.80585">
        <ele>940.31</ele>
        <time>2025-07-24T16:11:54Z</time>
      </trkpt>
      <trkpt lat="44.73313" lon="3.80604">
        <ele>941.75</ele>
        <time>2025-07-24T16:12:12Z</time>
      </trkpt>
      <trkpt lat="44.73326" lon="3.80628">
        <ele>943.67</ele>
        <time>2025-07-24T16:12:31Z</time>
      </trkpt>
      <trkpt lat="44.73338" lon="3.80652">
        <ele>945.11</ele>
        <time>2025-07-24T16:12:51Z</time>
      </trkpt>
      <trkpt lat="44.73349" lon="3.80679">
        <ele>946.07</ele>
        <time>2025-07-24T16:13:09Z</time>
      </trkpt>
      <trkpt lat="44.73353" lon="3.80687">
        <ele>947.04</ele>
        <time>2025-07-24T16:13:26Z</time>
      </trkpt>
      <trkpt lat="44.73352" lon="3.80686">
        <ele>950.4</ele>
        <time>2025-07-24T16:13:42Z</time>
      </trkpt>
      <trkpt lat="44.73353" lon="3.80687">
        <ele>949.92</ele>
        <time>2025-07-24T16:14:03Z</time>
      </trkpt>
      <trkpt lat="44.73353" lon="3.80691">
        <ele>947.52</ele>
        <time>2025-07-24T16:14:28Z</time>
      </trkpt>
      <trkpt lat="44.73352" lon="3.80692">
        <ele>946.56</ele>
        <time>2025-07-24T16:14:55Z</time>
      </trkpt>
      <trkpt lat="44.73355" lon="3.80693">
        <ele>946.56</ele>
        <time>2025-07-24T16:15:13Z</time>
      </trkpt>
      <trkpt lat="44.73353" lon="3.80693">
        <ele>946.56</ele>
        <time>2025-07-24T16:15:37Z</time>
      </trkpt>
      <trkpt lat="44.7335" lon="3.80689">
        <ele>948.96</ele>
        <time>2025-07-24T16:15:57Z</time>
      </trkpt>
      <trkpt lat="44.73349" lon="3.80687">
        <ele>947.52</ele>
        <time>2025-07-24T16:16:08Z</time>
      </trkpt>
      <trkpt lat="44.73351" lon="3.80685">
        <ele>948.96</ele>
        <time>2025-07-24T16:16:27Z</time>
      </trkpt>
      <trkpt lat="44.73349" lon="3.80686">
        <ele>949.44</ele>
        <time>2025-07-24T16:16:47Z</time>
      </trkpt>
      <trkpt lat="44.7335" lon="3.80687">
        <ele>948.96</ele>
        <time>2025-07-24T16:17:20Z</time>
      </trkpt>
      <trkpt lat="44.73352" lon="3.80688">
        <ele>945.59</ele>
        <time>2025-07-24T16:17:43Z</time>
      </trkpt>
      <trkpt lat="44.73355" lon="3.80687">
        <ele>944.63</ele>
        <time>2025-07-24T16:18:01Z</time>
      </trkpt>
      <trkpt lat="44.73352" lon="3.80685">
        <ele>945.59</ele>
        <time>2025-07-24T16:18:25Z</time>
      </trkpt>
      <trkpt lat="44.73354" lon="3.80687">
        <ele>945.59</ele>
        <time>2025-07-24T16:18:46Z</time>
      </trkpt>
      <trkpt lat="44.73355" lon="3.80688">
        <ele>944.63</ele>
        <time>2025-07-24T16:19:15Z</time>
      </trkpt>
      <trkpt lat="44.73354" lon="3.80692">
        <ele>946.07</ele>
        <time>2025-07-24T16:19:38Z</time>
      </trkpt>
      <trkpt lat="44.73352" lon="3.80696">
        <ele>944.15</ele>
        <time>2025-07-24T16:19:56Z</time>
      </trkpt>
      <trkpt lat="44.7335" lon="3.80695">
        <ele>944.63</ele>
        <time>2025-07-24T16:20:15Z</time>
      </trkpt>
      <trkpt lat="44.73346" lon="3.80696">
        <ele>945.59</ele>
        <time>2025-07-24T16:20:34Z</time>
      </trkpt>
      <trkpt lat="44.73346" lon="3.80695">
        <ele>945.11</ele>
        <time>2025-07-24T16:21:02Z</time>
      </trkpt>
      <trkpt lat="44.73345" lon="3.80689">
        <ele>945.59</ele>
        <time>2025-07-24T16:21:25Z</time>
      </trkpt>
      <trkpt lat="44.73344" lon="3.80692">
        <ele>947.52</ele>
        <time>2025-07-24T16:21:55Z</time>
      </trkpt>
      <trkpt lat="44.73344" lon="3.80689">
        <ele>945.59</ele>
        <time>2025-07-24T16:22:23Z</time>
      </trkpt>
      <trkpt lat="44.73345" lon="3.80691">
        <ele>948.48</ele>
        <time>2025-07-24T16:22:50Z</time>
      </trkpt>
      <trkpt lat="44.73346" lon="3.80695">
        <ele>947.04</ele>
        <time>2025-07-24T16:23:13Z</time>
      </trkpt>
      <trkpt lat="44.73346" lon="3.80695">
        <ele>946.07</ele>
        <time>2025-07-24T16:23:33Z</time>
      </trkpt>
      <trkpt lat="44.73344" lon="3.80698">
        <ele>945.59</ele>
        <time>2025-07-24T16:23:45Z</time>
      </trkpt>
      <trkpt lat="44.73345" lon="3.80704">
        <ele>945.11</ele>
        <time>2025-07-24T16:23:50Z</time>
      </trkpt>
      <trkpt lat="44.73352" lon="3.80721">
        <ele>944.15</ele>
        <time>2025-07-24T16:24:06Z</time>
      </trkpt>
      <trkpt lat="44.73354" lon="3.80731">
        <ele>943.19</ele>
        <time>2025-07-24T16:24:20Z</time>
      </trkpt>
      <trkpt lat="44.73362" lon="3.8074">
        <ele>941.27</ele>
        <time>2025-07-24T16:24:33Z</time>
      </trkpt>
      <trkpt lat="44.7337" lon="3.80755">
        <ele>939.83</ele>
        <time>2025-07-24T16:24:49Z</time>
      </trkpt>
      <trkpt lat="44.73378" lon="3.80768">
        <ele>939.83</ele>
        <time>2025-07-24T16:25:03Z</time>
      </trkpt>
      <trkpt lat="44.73389" lon="3.8078">
        <ele>940.31</ele>
        <time>2025-07-24T16:25:18Z</time>
      </trkpt>
      <trkpt lat="44.73396" lon="3.8079">
        <ele>944.15</ele>
        <time>2025-07-24T16:25:33Z</time>
      </trkpt>
      <trkpt lat="44.73396" lon="3.80791">
        <ele>944.15</ele>
        <time>2025-07-24T16:25:34Z</time>
      </trkpt>
      <trkpt lat="44.73401" lon="3.80806">
        <ele>942.71</ele>
        <time>2025-07-24T16:25:50Z</time>
      </trkpt>
      <trkpt lat="44.73405" lon="3.80815">
        <ele>943.19</ele>
        <time>2025-07-24T16:26:04Z</time>
      </trkpt>
      <trkpt lat="44.73406" lon="3.80821">
        <ele>943.67</ele>
        <time>2025-07-24T16:26:19Z</time>
      </trkpt>
      <trkpt lat="44.73408" lon="3.80833">
        <ele>944.63</ele>
        <time>2025-07-24T16:26:37Z</time>
      </trkpt>
      <trkpt lat="44.73414" lon="3.80852">
        <ele>946.07</ele>
        <time>2025-07-24T16:26:54Z</time>
      </trkpt>
      <trkpt lat="44.73421" lon="3.80869">
        <ele>946.07</ele>
        <time>2025-07-24T16:27:09Z</time>
      </trkpt>
      <trkpt lat="44.73425" lon="3.80878">
        <ele>945.59</ele>
        <time>2025-07-24T16:27:18Z</time>
      </trkpt>
      <trkpt lat="44.73438" lon="3.80886">
        <ele>947.52</ele>
        <time>2025-07-24T16:27:36Z</time>
      </trkpt>
      <trkpt lat="44.73447" lon="3.80887">
        <ele>948.96</ele>
        <time>2025-07-24T16:27:52Z</time>
      </trkpt>
      <trkpt lat="44.73452" lon="3.80889">
        <ele>949.92</ele>
        <time>2025-07-24T16:28:07Z</time>
      </trkpt>
      <trkpt lat="44.73464" lon="3.80895">
        <ele>949.44</ele>
        <time>2025-07-24T16:28:21Z</time>
      </trkpt>
      <trkpt lat="44.73473" lon="3.80902">
        <ele>949.44</ele>
        <time>2025-07-24T16:28:35Z</time>
      </trkpt>
      <trkpt lat="44.73474" lon="3.80907">
        <ele>948</ele>
        <time>2025-07-24T16:28:39Z</time>
      </trkpt>
      <trkpt lat="44.73479" lon="3.80912">
        <ele>946.56</ele>
        <time>2025-07-24T16:28:47Z</time>
      </trkpt>
      <trkpt lat="44.73497" lon="3.8091">
        <ele>945.11</ele>
        <time>2025-07-24T16:29:05Z</time>
      </trkpt>
      <trkpt lat="44.73516" lon="3.80904">
        <ele>944.15</ele>
        <time>2025-07-24T16:29:24Z</time>
      </trkpt>
      <trkpt lat="44.73528" lon="3.80894">
        <ele>942.71</ele>
        <time>2025-07-24T16:29:38Z</time>
      </trkpt>
      <trkpt lat="44.73537" lon="3.80875">
        <ele>942.23</ele>
        <time>2025-07-24T16:29:56Z</time>
      </trkpt>
      <trkpt lat="44.73541" lon="3.80867">
        <ele>944.15</ele>
        <time>2025-07-24T16:30:13Z</time>
      </trkpt>
      <trkpt lat="44.73543" lon="3.80868">
        <ele>945.59</ele>
        <time>2025-07-24T16:30:34Z</time>
      </trkpt>
      <trkpt lat="44.73544" lon="3.80867">
        <ele>946.56</ele>
        <time>2025-07-24T16:30:46Z</time>
      </trkpt>
      <trkpt lat="44.73553" lon="3.80856">
        <ele>946.07</ele>
        <time>2025-07-24T16:31:08Z</time>
      </trkpt>
      <trkpt lat="44.73563" lon="3.80852">
        <ele>946.07</ele>
        <time>2025-07-24T16:31:24Z</time>
      </trkpt>
      <trkpt lat="44.73565" lon="3.80848">
        <ele>946.07</ele>
        <time>2025-07-24T16:31:27Z</time>
      </trkpt>
      <trkpt lat="44.73584" lon="3.80828">
        <ele>944.15</ele>
        <time>2025-07-24T16:31:45Z</time>
      </trkpt>
      <trkpt lat="44.73596" lon="3.80815">
        <ele>942.71</ele>
        <time>2025-07-24T16:31:59Z</time>
      </trkpt>
      <trkpt lat="44.73599" lon="3.80812">
        <ele>943.19</ele>
        <time>2025-07-24T16:32:14Z</time>
      </trkpt>
      <trkpt lat="44.73605" lon="3.80801">
        <ele>943.19</ele>
        <time>2025-07-24T16:32:24Z</time>
      </trkpt>
      <trkpt lat="44.7362" lon="3.80801">
        <ele>943.19</ele>
        <time>2025-07-24T16:32:41Z</time>
      </trkpt>
      <trkpt lat="44.73626" lon="3.80787">
        <ele>942.71</ele>
        <time>2025-07-24T16:32:52Z</time>
      </trkpt>
      <trkpt lat="44.73642" lon="3.80786">
        <ele>943.67</ele>
        <time>2025-07-24T16:33:07Z</time>
      </trkpt>
      <trkpt lat="44.73662" lon="3.80795">
        <ele>947.04</ele>
        <time>2025-07-24T16:33:24Z</time>
      </trkpt>
      <trkpt lat="44.73683" lon="3.80793">
        <ele>948.48</ele>
        <time>2025-07-24T16:33:41Z</time>
      </trkpt>
      <trkpt lat="44.73701" lon="3.80787">
        <ele>949.92</ele>
        <time>2025-07-24T16:33:55Z</time>
      </trkpt>
      <trkpt lat="44.73723" lon="3.80774">
        <ele>948</ele>
        <time>2025-07-24T16:34:11Z</time>
      </trkpt>
      <trkpt lat="44.73742" lon="3.80761">
        <ele>947.52</ele>
        <time>2025-07-24T16:34:26Z</time>
      </trkpt>
      <trkpt lat="44.73762" lon="3.80738">
        <ele>947.04</ele>
        <time>2025-07-24T16:34:43Z</time>
      </trkpt>
      <trkpt lat="44.73774" lon="3.80713">
        <ele>947.04</ele>
        <time>2025-07-24T16:34:59Z</time>
      </trkpt>
      <trkpt lat="44.73779" lon="3.80704">
        <ele>946.56</ele>
        <time>2025-07-24T16:35:09Z</time>
      </trkpt>
      <trkpt lat="44.73779" lon="3.80697">
        <ele>946.07</ele>
        <time>2025-07-24T16:35:13Z</time>
      </trkpt>
      <trkpt lat="44.73777" lon="3.80677">
        <ele>946.07</ele>
        <time>2025-07-24T16:35:23Z</time>
      </trkpt>
      <trkpt lat="44.73772" lon="3.80668">
        <ele>945.11</ele>
        <time>2025-07-24T16:35:32Z</time>
      </trkpt>
      <trkpt lat="44.73766" lon="3.80656">
        <ele>944.63</ele>
        <time>2025-07-24T16:35:48Z</time>
      </trkpt>
      <trkpt lat="44.73766" lon="3.80657">
        <ele>944.63</ele>
        <time>2025-07-24T16:36:08Z</time>
      </trkpt>
      <trkpt lat="44.73764" lon="3.80657">
        <ele>946.56</ele>
        <time>2025-07-24T16:36:27Z</time>
      </trkpt>
      <trkpt lat="44.73761" lon="3.80657">
        <ele>947.52</ele>
        <time>2025-07-24T16:36:45Z</time>
      </trkpt>
      <trkpt lat="44.73757" lon="3.80655">
        <ele>946.56</ele>
        <time>2025-07-24T16:37:00Z</time>
      </trkpt>
      <trkpt lat="44.73755" lon="3.80658">
        <ele>946.56</ele>
        <time>2025-07-24T16:37:04Z</time>
      </trkpt>
      <trkpt lat="44.7375" lon="3.80656">
        <ele>946.56</ele>
        <time>2025-07-24T16:37:09Z</time>
      </trkpt>
      <trkpt lat="44.73733" lon="3.80648">
        <ele>945.59</ele>
        <time>2025-07-24T16:37:25Z</time>
      </trkpt>
      <trkpt lat="44.73722" lon="3.80651">
        <ele>946.56</ele>
        <time>2025-07-24T16:37:41Z</time>
      </trkpt>
      <trkpt lat="44.73705" lon="3.80647">
        <ele>945.59</ele>
        <time>2025-07-24T16:37:55Z</time>
      </trkpt>
      <trkpt lat="44.73699" lon="3.80641">
        <ele>946.07</ele>
        <time>2025-07-24T16:38:09Z</time>
      </trkpt>
      <trkpt lat="44.73699" lon="3.80639">
        <ele>945.59</ele>
        <time>2025-07-24T16:38:22Z</time>
      </trkpt>
      <trkpt lat="44.73691" lon="3.80636">
        <ele>944.15</ele>
        <time>2025-07-24T16:38:35Z</time>
      </trkpt>
      <trkpt lat="44.73671" lon="3.80636">
        <ele>940.79</ele>
        <time>2025-07-24T16:38:52Z</time>
      </trkpt>
      <trkpt lat="44.7365" lon="3.80622">
        <ele>941.27</ele>
        <time>2025-07-24T16:39:09Z</time>
      </trkpt>
      <trkpt lat="44.73647" lon="3.80608">
        <ele>942.23</ele>
        <time>2025-07-24T16:39:17Z</time>
      </trkpt>
      <trkpt lat="44.73649" lon="3.80599">
        <ele>942.23</ele>
        <time>2025-07-24T16:39:21Z</time>
      </trkpt>
      <trkpt lat="44.73666" lon="3.80572">
        <ele>940.79</ele>
        <time>2025-07-24T16:39:37Z</time>
      </trkpt>
      <trkpt lat="44.73686" lon="3.80543">
        <ele>938.38</ele>
        <time>2025-07-24T16:39:55Z</time>
      </trkpt>
      <trkpt lat="44.73698" lon="3.80518">
        <ele>936.46</ele>
        <time>2025-07-24T16:40:11Z</time>
      </trkpt>
      <trkpt lat="44.73706" lon="3.80497">
        <ele>936.46</ele>
        <time>2025-07-24T16:40:24Z</time>
      </trkpt>
      <trkpt lat="44.73705" lon="3.80496">
        <ele>936.46</ele>
        <time>2025-07-24T16:40:25Z</time>
      </trkpt>
      <trkpt lat="44.73704" lon="3.80495">
        <ele>936.46</ele>
        <time>2025-07-24T16:40:26Z</time>
      </trkpt>
      <trkpt lat="44.73703" lon="3.80493">
        <ele>936.94</ele>
        <time>2025-07-24T16:40:27Z</time>
      </trkpt>
      <trkpt lat="44.73702" lon="3.80493">
        <ele>937.42</ele>
        <time>2025-07-24T16:40:28Z</time>
      </trkpt>
      <trkpt lat="44.737" lon="3.80492">
        <ele>937.9</ele>
        <time>2025-07-24T16:40:29Z</time>
      </trkpt>
      <trkpt lat="44.73699" lon="3.80491">
        <ele>938.38</ele>
        <time>2025-07-24T16:40:30Z</time>
      </trkpt>
      <trkpt lat="44.73698" lon="3.80489">
        <ele>938.38</ele>
        <time>2025-07-24T16:40:31Z</time>
      </trkpt>
      <trkpt lat="44.73697" lon="3.80488">
        <ele>938.86</ele>
        <time>2025-07-24T16:40:32Z</time>
      </trkpt>
      <trkpt lat="44.73696" lon="3.80487">
        <ele>939.35</ele>
        <time>2025-07-24T16:40:33Z</time>
      </trkpt>
      <trkpt lat="44.73695" lon="3.80485">
        <ele>939.35</ele>
        <time>2025-07-24T16:40:34Z</time>
      </trkpt>
      <trkpt lat="44.73678" lon="3.80472">
        <ele>943.19</ele>
        <time>2025-07-24T16:40:49Z</time>
      </trkpt>
      <trkpt lat="44.73676" lon="3.80469">
        <ele>945.11</ele>
        <time>2025-07-24T16:41:02Z</time>
      </trkpt>
      <trkpt lat="44.73669" lon="3.80462">
        <ele>946.07</ele>
        <time>2025-07-24T16:41:13Z</time>
      </trkpt>
      <trkpt lat="44.73669" lon="3.8046">
        <ele>946.07</ele>
        <time>2025-07-24T16:41:14Z</time>
      </trkpt>
      <trkpt lat="44.73668" lon="3.80422">
        <ele>942.23</ele>
        <time>2025-07-24T16:41:32Z</time>
      </trkpt>
      <trkpt lat="44.73668" lon="3.80414">
        <ele>940.79</ele>
        <time>2025-07-24T16:41:37Z</time>
      </trkpt>
      <trkpt lat="44.73668" lon="3.80412">
        <ele>940.79</ele>
        <time>2025-07-24T16:41:38Z</time>
      </trkpt>
      <trkpt lat="44.73664" lon="3.80398">
        <ele>939.83</ele>
        <time>2025-07-24T16:41:46Z</time>
      </trkpt>
      <trkpt lat="44.73664" lon="3.80396">
        <ele>939.83</ele>
        <time>2025-07-24T16:41:47Z</time>
      </trkpt>
      <trkpt lat="44.73665" lon="3.80394">
        <ele>939.35</ele>
        <time>2025-07-24T16:41:48Z</time>
      </trkpt>
      <trkpt lat="44.73687" lon="3.80375">
        <ele>939.83</ele>
        <time>2025-07-24T16:42:06Z</time>
      </trkpt>
      <trkpt lat="44.73688" lon="3.80375">
        <ele>939.83</ele>
        <time>2025-07-24T16:42:07Z</time>
      </trkpt>
      <trkpt lat="44.73705" lon="3.80373">
        <ele>941.75</ele>
        <time>2025-07-24T16:42:23Z</time>
      </trkpt>
      <trkpt lat="44.73704" lon="3.80374">
        <ele>945.59</ele>
        <time>2025-07-24T16:42:39Z</time>
      </trkpt>
      <trkpt lat="44.73707" lon="3.80374">
        <ele>947.52</ele>
        <time>2025-07-24T16:43:07Z</time>
      </trkpt>
      <trkpt lat="44.73713" lon="3.80375">
        <ele>948.48</ele>
        <time>2025-07-24T16:43:21Z</time>
      </trkpt>
      <trkpt lat="44.73719" lon="3.80374">
        <ele>951.36</ele>
        <time>2025-07-24T16:43:35Z</time>
      </trkpt>
      <trkpt lat="44.73724" lon="3.80382">
        <ele>953.77</ele>
        <time>2025-07-24T16:43:52Z</time>
      </trkpt>
      <trkpt lat="44.73732" lon="3.80386">
        <ele>954.25</ele>
        <time>2025-07-24T16:44:03Z</time>
      </trkpt>
      <trkpt lat="44.73742" lon="3.8038">
        <ele>950.88</ele>
        <time>2025-07-24T16:44:18Z</time>
      </trkpt>
      <trkpt lat="44.73753" lon="3.80379">
        <ele>951.36</ele>
        <time>2025-07-24T16:44:33Z</time>
      </trkpt>
      <trkpt lat="44.7376" lon="3.80389">
        <ele>951.84</ele>
        <time>2025-07-24T16:44:48Z</time>
      </trkpt>
      <trkpt lat="44.73763" lon="3.80396">
        <ele>949.44</ele>
        <time>2025-07-24T16:45:24Z</time>
      </trkpt>
      <trkpt lat="44.7376" lon="3.8039">
        <ele>947.52</ele>
        <time>2025-07-24T16:45:37Z</time>
      </trkpt>
      <trkpt lat="44.73755" lon="3.80387">
        <ele>948</ele>
        <time>2025-07-24T16:45:45Z</time>
      </trkpt>
      <trkpt lat="44.73747" lon="3.80387">
        <ele>948.96</ele>
        <time>2025-07-24T16:45:55Z</time>
      </trkpt>
      <trkpt lat="44.73744" lon="3.80391">
        <ele>948.96</ele>
        <time>2025-07-24T16:46:02Z</time>
      </trkpt>
      <trkpt lat="44.7374" lon="3.80398">
        <ele>947.52</ele>
        <time>2025-07-24T16:46:17Z</time>
      </trkpt>
      <trkpt lat="44.73741" lon="3.80401">
        <ele>947.04</ele>
        <time>2025-07-24T16:46:19Z</time>
      </trkpt>
      <trkpt lat="44.73753" lon="3.80406">
        <ele>949.92</ele>
        <time>2025-07-24T16:46:35Z</time>
      </trkpt>
      <trkpt lat="44.73755" lon="3.80406">
        <ele>949.92</ele>
        <time>2025-07-24T16:46:37Z</time>
      </trkpt>
      <trkpt lat="44.73764" lon="3.80402">
        <ele>950.88</ele>
        <time>2025-07-24T16:46:45Z</time>
      </trkpt>
      <trkpt lat="44.73785" lon="3.80382">
        <ele>947.52</ele>
        <time>2025-07-24T16:47:02Z</time>
      </trkpt>
      <trkpt lat="44.73795" lon="3.80363">
        <ele>945.11</ele>
        <time>2025-07-24T16:47:14Z</time>
      </trkpt>
      <trkpt lat="44.7381" lon="3.80341">
        <ele>942.71</ele>
        <time>2025-07-24T16:47:31Z</time>
      </trkpt>
      <trkpt lat="44.73829" lon="3.80324">
        <ele>943.19</ele>
        <time>2025-07-24T16:47:45Z</time>
      </trkpt>
      <trkpt lat="44.73833" lon="3.80316">
        <ele>944.15</ele>
        <time>2025-07-24T16:47:56Z</time>
      </trkpt>
      <trkpt lat="44.73832" lon="3.80324">
        <ele>944.63</ele>
        <time>2025-07-24T16:48:11Z</time>
      </trkpt>
      <trkpt lat="44.73832" lon="3.80327">
        <ele>945.59</ele>
        <time>2025-07-24T16:48:25Z</time>
      </trkpt>
      <trkpt lat="44.73836" lon="3.80327">
        <ele>947.04</ele>
        <time>2025-07-24T16:48:32Z</time>
      </trkpt>
      <trkpt lat="44.73844" lon="3.80321">
        <ele>947.04</ele>
        <time>2025-07-24T16:48:39Z</time>
      </trkpt>
      <trkpt lat="44.73857" lon="3.80301">
        <ele>945.11</ele>
        <time>2025-07-24T16:48:56Z</time>
      </trkpt>
      <trkpt lat="44.73868" lon="3.80288">
        <ele>943.67</ele>
        <time>2025-07-24T16:49:09Z</time>
      </trkpt>
      <trkpt lat="44.73872" lon="3.80281">
        <ele>943.19</ele>
        <time>2025-07-24T16:49:13Z</time>
      </trkpt>
      <trkpt lat="44.73894" lon="3.80264">
        <ele>942.23</ele>
        <time>2025-07-24T16:49:31Z</time>
      </trkpt>
      <trkpt lat="44.7391" lon="3.80243">
        <ele>942.23</ele>
        <time>2025-07-24T16:49:48Z</time>
      </trkpt>
      <trkpt lat="44.73917" lon="3.80232">
        <ele>940.31</ele>
        <time>2025-07-24T16:49:57Z</time>
      </trkpt>
      <trkpt lat="44.73918" lon="3.80223">
        <ele>940.31</ele>
        <time>2025-07-24T16:50:02Z</time>
      </trkpt>
      <trkpt lat="44.73919" lon="3.80198">
        <ele>940.31</ele>
        <time>2025-07-24T16:50:19Z</time>
      </trkpt>
      <trkpt lat="44.73916" lon="3.80192">
        <ele>940.31</ele>
        <time>2025-07-24T16:50:23Z</time>
      </trkpt>
      <trkpt lat="44.73904" lon="3.80181">
        <ele>941.27</ele>
        <time>2025-07-24T16:50:38Z</time>
      </trkpt>
      <trkpt lat="44.73888" lon="3.80179">
        <ele>942.23</ele>
        <time>2025-07-24T16:50:53Z</time>
      </trkpt>
      <trkpt lat="44.73869" lon="3.80177">
        <ele>939.83</ele>
        <time>2025-07-24T16:51:09Z</time>
      </trkpt>
      <trkpt lat="44.73853" lon="3.80176">
        <ele>937.9</ele>
        <time>2025-07-24T16:51:24Z</time>
      </trkpt>
      <trkpt lat="44.73841" lon="3.80172">
        <ele>939.83</ele>
        <time>2025-07-24T16:51:34Z</time>
      </trkpt>
      <trkpt lat="44.73821" lon="3.80159">
        <ele>937.42</ele>
        <time>2025-07-24T16:51:51Z</time>
      </trkpt>
      <trkpt lat="44.7382" lon="3.80159">
        <ele>936.94</ele>
        <time>2025-07-24T16:51:53Z</time>
      </trkpt>
      <trkpt lat="44.73812" lon="3.80131">
        <ele>937.42</ele>
        <time>2025-07-24T16:52:08Z</time>
      </trkpt>
      <trkpt lat="44.73828" lon="3.80111">
        <ele>938.38</ele>
        <time>2025-07-24T16:52:22Z</time>
      </trkpt>
      <trkpt lat="44.73844" lon="3.80093">
        <ele>938.38</ele>
        <time>2025-07-24T16:52:37Z</time>
      </trkpt>
      <trkpt lat="44.73865" lon="3.80078">
        <ele>943.19</ele>
        <time>2025-07-24T16:52:55Z</time>
      </trkpt>
      <trkpt lat="44.73883" lon="3.80062">
        <ele>943.67</ele>
        <time>2025-07-24T16:53:11Z</time>
      </trkpt>
      <trkpt lat="44.73902" lon="3.80041">
        <ele>942.71</ele>
        <time>2025-07-24T16:53:29Z</time>
      </trkpt>
      <trkpt lat="44.73915" lon="3.80021">
        <ele>942.23</ele>
        <time>2025-07-24T16:53:46Z</time>
      </trkpt>
      <trkpt lat="44.7391" lon="3.8001">
        <ele>942.23</ele>
        <time>2025-07-24T16:54:01Z</time>
      </trkpt>
      <trkpt lat="44.73913" lon="3.80005">
        <ele>942.71</ele>
        <time>2025-07-24T16:54:19Z</time>
      </trkpt>
      <trkpt lat="44.73907" lon="3.8">
        <ele>942.23</ele>
        <time>2025-07-24T16:54:27Z</time>
      </trkpt>
      <trkpt lat="44.73888" lon="3.79993">
        <ele>942.71</ele>
        <time>2025-07-24T16:54:44Z</time>
      </trkpt>
      <trkpt lat="44.73886" lon="3.79994">
        <ele>942.71</ele>
        <time>2025-07-24T16:54:46Z</time>
      </trkpt>
      <trkpt lat="44.73874" lon="3.79973">
        <ele>942.71</ele>
        <time>2025-07-24T16:55:03Z</time>
      </trkpt>
      <trkpt lat="44.73877" lon="3.79967">
        <ele>943.19</ele>
        <time>2025-07-24T16:55:12Z</time>
      </trkpt>
      <trkpt lat="44.73893" lon="3.79951">
        <ele>943.19</ele>
        <time>2025-07-24T16:55:30Z</time>
      </trkpt>
      <trkpt lat="44.73901" lon="3.79939">
        <ele>943.19</ele>
        <time>2025-07-24T16:55:42Z</time>
      </trkpt>
      <trkpt lat="44.73902" lon="3.79933">
        <ele>943.19</ele>
        <time>2025-07-24T16:55:46Z</time>
      </trkpt>
      <trkpt lat="44.73907" lon="3.79926">
        <ele>943.67</ele>
        <time>2025-07-24T16:55:52Z</time>
      </trkpt>
      <trkpt lat="44.73912" lon="3.79915">
        <ele>944.63</ele>
        <time>2025-07-24T16:55:59Z</time>
      </trkpt>
      <trkpt lat="44.73917" lon="3.79901">
        <ele>945.59</ele>
        <time>2025-07-24T16:56:09Z</time>
      </trkpt>
      <trkpt lat="44.73918" lon="3.79887">
        <ele>946.56</ele>
        <time>2025-07-24T16:56:16Z</time>
      </trkpt>
      <trkpt lat="44.73903" lon="3.79871">
        <ele>948</ele>
        <time>2025-07-24T16:56:33Z</time>
      </trkpt>
      <trkpt lat="44.73902" lon="3.79869">
        <ele>948</ele>
        <time>2025-07-24T16:56:35Z</time>
      </trkpt>
      <trkpt lat="44.739" lon="3.79863">
        <ele>948</ele>
        <time>2025-07-24T16:56:39Z</time>
      </trkpt>
      <trkpt lat="44.73896" lon="3.79832">
        <ele>948</ele>
        <time>2025-07-24T16:56:57Z</time>
      </trkpt>
      <trkpt lat="44.73889" lon="3.79803">
        <ele>948.48</ele>
        <time>2025-07-24T16:57:15Z</time>
      </trkpt>
      <trkpt lat="44.73887" lon="3.79784">
        <ele>949.92</ele>
        <time>2025-07-24T16:57:27Z</time>
      </trkpt>
      <trkpt lat="44.73883" lon="3.79771">
        <ele>952.32</ele>
        <time>2025-07-24T16:57:46Z</time>
      </trkpt>
      <trkpt lat="44.73885" lon="3.79769">
        <ele>952.32</ele>
        <time>2025-07-24T16:57:57Z</time>
      </trkpt>
      <trkpt lat="44.73892" lon="3.79794">
        <ele>949.44</ele>
        <time>2025-07-24T16:58:14Z</time>
      </trkpt>
      <trkpt lat="44.73893" lon="3.79811">
        <ele>946.07</ele>
        <time>2025-07-24T16:58:32Z</time>
      </trkpt>
      <trkpt lat="44.73897" lon="3.79815">
        <ele>943.67</ele>
        <time>2025-07-24T16:58:48Z</time>
      </trkpt>
      <trkpt lat="44.73901" lon="3.79819">
        <ele>943.67</ele>
        <time>2025-07-24T16:58:55Z</time>
      </trkpt>
      <trkpt lat="44.7391" lon="3.79825">
        <ele>943.19</ele>
        <time>2025-07-24T16:59:10Z</time>
      </trkpt>
      <trkpt lat="44.73914" lon="3.7982">
        <ele>942.23</ele>
        <time>2025-07-24T16:59:18Z</time>
      </trkpt>
      <trkpt lat="44.73904" lon="3.79793">
        <ele>943.67</ele>
        <time>2025-07-24T16:59:36Z</time>
      </trkpt>
      <trkpt lat="44.73892" lon="3.7977">
        <ele>946.07</ele>
        <time>2025-07-24T16:59:54Z</time>
      </trkpt>
      <trkpt lat="44.73889" lon="3.79743">
        <ele>949.44</ele>
        <time>2025-07-24T17:00:12Z</time>
      </trkpt>
      <trkpt lat="44.7389" lon="3.79714">
        <ele>950.4</ele>
        <time>2025-07-24T17:00:28Z</time>
      </trkpt>
      <trkpt lat="44.73894" lon="3.79684">
        <ele>948</ele>
        <time>2025-07-24T17:00:44Z</time>
      </trkpt>
      <trkpt lat="44.73895" lon="3.79683">
        <ele>948</ele>
        <time>2025-07-24T17:00:45Z</time>
      </trkpt>
      <trkpt lat="44.73895" lon="3.79657">
        <ele>946.56</ele>
        <time>2025-07-24T17:01:04Z</time>
      </trkpt>
      <trkpt lat="44.7389" lon="3.79639">
        <ele>947.52</ele>
        <time>2025-07-24T17:01:21Z</time>
      </trkpt>
      <trkpt lat="44.7389" lon="3.79638">
        <ele>947.52</ele>
        <time>2025-07-24T17:01:23Z</time>
      </trkpt>
      <trkpt lat="44.73894" lon="3.7963">
        <ele>947.04</ele>
        <time>2025-07-24T17:01:29Z</time>
      </trkpt>
      <trkpt lat="44.7391" lon="3.79632">
        <ele>947.52</ele>
        <time>2025-07-24T17:01:44Z</time>
      </trkpt>
      <trkpt lat="44.73918" lon="3.7964">
        <ele>948.48</ele>
        <time>2025-07-24T17:01:59Z</time>
      </trkpt>
      <trkpt lat="44.7392" lon="3.7964">
        <ele>946.07</ele>
        <time>2025-07-24T17:02:25Z</time>
      </trkpt>
      <trkpt lat="44.73921" lon="3.7964">
        <ele>945.59</ele>
        <time>2025-07-24T17:02:55Z</time>
      </trkpt>
      <trkpt lat="44.7392" lon="3.79642">
        <ele>948</ele>
        <time>2025-07-24T17:03:20Z</time>
      </trkpt>
      <trkpt lat="44.73922" lon="3.79646">
        <ele>946.56</ele>
        <time>2025-07-24T17:03:47Z</time>
      </trkpt>
      <trkpt lat="44.73921" lon="3.79643">
        <ele>946.56</ele>
        <time>2025-07-24T17:04:06Z</time>
      </trkpt>
      <trkpt lat="44.7392" lon="3.79643">
        <ele>946.56</ele>
        <time>2025-07-24T17:04:23Z</time>
      </trkpt>
      <trkpt lat="44.73922" lon="3.79641">
        <ele>945.11</ele>
        <time>2025-07-24T17:04:50Z</time>
      </trkpt>
      <trkpt lat="44.73921" lon="3.79644">
        <ele>947.04</ele>
        <time>2025-07-24T17:05:17Z</time>
      </trkpt>
      <trkpt lat="44.7392" lon="3.79646">
        <ele>949.92</ele>
        <time>2025-07-24T17:05:53Z</time>
      </trkpt>
      <trkpt lat="44.7392" lon="3.79645">
        <ele>947.52</ele>
        <time>2025-07-24T17:06:26Z</time>
      </trkpt>
      <trkpt lat="44.7392" lon="3.79644">
        <ele>948</ele>
        <time>2025-07-24T17:06:48Z</time>
      </trkpt>
      <trkpt lat="44.7392" lon="3.79644">
        <ele>948.48</ele>
        <time>2025-07-24T17:07:20Z</time>
      </trkpt>
      <trkpt lat="44.73921" lon="3.79643">
        <ele>949.44</ele>
        <time>2025-07-24T17:07:48Z</time>
      </trkpt>
      <trkpt lat="44.7392" lon="3.79644">
        <ele>946.56</ele>
        <time>2025-07-24T17:08:08Z</time>
      </trkpt>
      <trkpt lat="44.73917" lon="3.79638">
        <ele>945.59</ele>
        <time>2025-07-24T17:08:23Z</time>
      </trkpt>
      <trkpt lat="44.7392" lon="3.79634">
        <ele>944.63</ele>
        <time>2025-07-24T17:08:38Z</time>
      </trkpt>
      <trkpt lat="44.73919" lon="3.79632">
        <ele>944.15</ele>
        <time>2025-07-24T17:08:58Z</time>
      </trkpt>
      <trkpt lat="44.73918" lon="3.79634">
        <ele>945.11</ele>
        <time>2025-07-24T17:09:11Z</time>
      </trkpt>
      <trkpt lat="44.7392" lon="3.79636">
        <ele>946.07</ele>
        <time>2025-07-24T17:09:27Z</time>
      </trkpt>
      <trkpt lat="44.73918" lon="3.79633">
        <ele>947.04</ele>
        <time>2025-07-24T17:09:43Z</time>
      </trkpt>
      <trkpt lat="44.7392" lon="3.79633">
        <ele>946.56</ele>
        <time>2025-07-24T17:09:59Z</time>
      </trkpt>
      <trkpt lat="44.73922" lon="3.79632">
        <ele>948.48</ele>
        <time>2025-07-24T17:10:16Z</time>
      </trkpt>
      <trkpt lat="44.73925" lon="3.79637">
        <ele>949.44</ele>
        <time>2025-07-24T17:10:39Z</time>
      </trkpt>
      <trkpt lat="44.73923" lon="3.79636">
        <ele>947.52</ele>
        <time>2025-07-24T17:10:54Z</time>
      </trkpt>
      <trkpt lat="44.73925" lon="3.79638">
        <ele>948</ele>
        <time>2025-07-24T17:11:05Z</time>
      </trkpt>
      <trkpt lat="44.7394" lon="3.79653">
        <ele>949.92</ele>
        <time>2025-07-24T17:11:23Z</time>
      </trkpt>
      <trkpt lat="44.73967" lon="3.7966">
        <ele>948</ele>
        <time>2025-07-24T17:11:42Z</time>
      </trkpt>
      <trkpt lat="44.73987" lon="3.79652">
        <ele>949.44</ele>
        <time>2025-07-24T17:11:59Z</time>
      </trkpt>
      <trkpt lat="44.73991" lon="3.79647">
        <ele>949.44</ele>
        <time>2025-07-24T17:12:16Z</time>
      </trkpt>
      <trkpt lat="44.73992" lon="3.79647">
        <ele>949.92</ele>
        <time>2025-07-24T17:12:43Z</time>
      </trkpt>
      <trkpt lat="44.73995" lon="3.79646">
        <ele>949.92</ele>
        <time>2025-07-24T17:12:54Z</time>
      </trkpt>
      <trkpt lat="44.74003" lon="3.79635">
        <ele>951.36</ele>
        <time>2025-07-24T17:13:04Z</time>
      </trkpt>
      <trkpt lat="44.74007" lon="3.79633">
        <ele>952.32</ele>
        <time>2025-07-24T17:13:08Z</time>
      </trkpt>
      <trkpt lat="44.74016" lon="3.79613">
        <ele>954.25</ele>
        <time>2025-07-24T17:13:23Z</time>
      </trkpt>
      <trkpt lat="44.74025" lon="3.79585">
        <ele>954.73</ele>
        <time>2025-07-24T17:13:40Z</time>
      </trkpt>
      <trkpt lat="44.74035" lon="3.79551">
        <ele>955.21</ele>
        <time>2025-07-24T17:13:59Z</time>
      </trkpt>
      <trkpt lat="44.74044" lon="3.79514">
        <ele>953.77</ele>
        <time>2025-07-24T17:14:17Z</time>
      </trkpt>
      <trkpt lat="44.74051" lon="3.79481">
        <ele>953.28</ele>
        <time>2025-07-24T17:14:30Z</time>
      </trkpt>
      <trkpt lat="44.7406" lon="3.7946">
        <ele>953.77</ele>
        <time>2025-07-24T17:14:44Z</time>
      </trkpt>
      <trkpt lat="44.74075" lon="3.79436">
        <ele>954.73</ele>
        <time>2025-07-24T17:15:00Z</time>
      </trkpt>
      <trkpt lat="44.7409" lon="3.79407">
        <ele>954.73</ele>
        <time>2025-07-24T17:15:18Z</time>
      </trkpt>
      <trkpt lat="44.74092" lon="3.79402">
        <ele>954.73</ele>
        <time>2025-07-24T17:15:21Z</time>
      </trkpt>
      <trkpt lat="44.74092" lon="3.7938">
        <ele>960.49</ele>
        <time>2025-07-24T17:15:40Z</time>
      </trkpt>
      <trkpt lat="44.74091" lon="3.79376">
        <ele>961.94</ele>
        <time>2025-07-24T17:15:43Z</time>
      </trkpt>
      <trkpt lat="44.741" lon="3.79349">
        <ele>970.59</ele>
        <time>2025-07-24T17:16:01Z</time>
      </trkpt>
      <trkpt lat="44.74101" lon="3.79344">
        <ele>971.55</ele>
        <time>2025-07-24T17:16:06Z</time>
      </trkpt>
      <trkpt lat="44.74086" lon="3.79325">
        <ele>964.82</ele>
        <time>2025-07-24T17:16:22Z</time>
      </trkpt>
      <trkpt lat="44.74071" lon="3.79317">
        <ele>962.42</ele>
        <time>2025-07-24T17:16:37Z</time>
      </trkpt>
      <trkpt lat="44.74059" lon="3.79311">
        <ele>965.78</ele>
        <time>2025-07-24T17:16:52Z</time>
      </trkpt>
      <trkpt lat="44.7404" lon="3.79305">
        <ele>971.07</ele>
        <time>2025-07-24T17:17:09Z</time>
      </trkpt>
      <trkpt lat="44.74022" lon="3.79303">
        <ele>973.95</ele>
        <time>2025-07-24T17:17:26Z</time>
      </trkpt>
      <trkpt lat="44.74004" lon="3.79296">
        <ele>975.39</ele>
        <time>2025-07-24T17:17:42Z</time>
      </trkpt>
      <trkpt lat="44.73989" lon="3.79291">
        <ele>980.68</ele>
        <time>2025-07-24T17:17:58Z</time>
      </trkpt>
      <trkpt lat="44.73973" lon="3.79285">
        <ele>986.45</ele>
        <time>2025-07-24T17:18:11Z</time>
      </trkpt>
      <trkpt lat="44.73956" lon="3.79275">
        <ele>992.7</ele>
        <time>2025-07-24T17:18:26Z</time>
      </trkpt>
      <trkpt lat="44.73941" lon="3.79261">
        <ele>999.43</ele>
        <time>2025-07-24T17:18:45Z</time>
      </trkpt>
      <trkpt lat="44.73925" lon="3.79242">
        <ele>1003.27</ele>
        <time>2025-07-24T17:19:00Z</time>
      </trkpt>
      <trkpt lat="44.73909" lon="3.79226">
        <ele>1002.31</ele>
        <time>2025-07-24T17:19:14Z</time>
      </trkpt>
      <trkpt lat="44.73886" lon="3.7921">
        <ele>997.02</ele>
        <time>2025-07-24T17:19:29Z</time>
      </trkpt>
      <trkpt lat="44.73872" lon="3.79193">
        <ele>997.51</ele>
        <time>2025-07-24T17:19:43Z</time>
      </trkpt>
      <trkpt lat="44.73853" lon="3.79169">
        <ele>999.43</ele>
        <time>2025-07-24T17:20:00Z</time>
      </trkpt>
      <trkpt lat="44.73839" lon="3.79137">
        <ele>1004.72</ele>
        <time>2025-07-24T17:20:18Z</time>
      </trkpt>
      <trkpt lat="44.73826" lon="3.79117">
        <ele>1008.08</ele>
        <time>2025-07-24T17:20:34Z</time>
      </trkpt>
      <trkpt lat="44.73819" lon="3.79102">
        <ele>1011.93</ele>
        <time>2025-07-24T17:20:49Z</time>
      </trkpt>
      <trkpt lat="44.73808" lon="3.79087">
        <ele>1015.29</ele>
        <time>2025-07-24T17:21:05Z</time>
      </trkpt>
      <trkpt lat="44.73794" lon="3.79068">
        <ele>1020.1</ele>
        <time>2025-07-24T17:21:22Z</time>
      </trkpt>
      <trkpt lat="44.73775" lon="3.79052">
        <ele>1022.98</ele>
        <time>2025-07-24T17:21:38Z</time>
      </trkpt>
      <trkpt lat="44.73737" lon="3.79029">
        <ele>1015.77</ele>
        <time>2025-07-24T17:21:57Z</time>
      </trkpt>
      <trkpt lat="44.73724" lon="3.79008">
        <ele>1010</ele>
        <time>2025-07-24T17:22:06Z</time>
      </trkpt>
      <trkpt lat="44.73718" lon="3.78999">
        <ele>1007.12</ele>
        <time>2025-07-24T17:22:12Z</time>
      </trkpt>
      <trkpt lat="44.73715" lon="3.78995">
        <ele>1006.64</ele>
        <time>2025-07-24T17:22:15Z</time>
      </trkpt>
      <trkpt lat="44.73704" lon="3.78979">
        <ele>1008.08</ele>
        <time>2025-07-24T17:22:32Z</time>
      </trkpt>
      <trkpt lat="44.7369" lon="3.78962">
        <ele>1014.33</ele>
        <time>2025-07-24T17:22:48Z</time>
      </trkpt>
      <trkpt lat="44.73675" lon="3.78944">
        <ele>1022.5</ele>
        <time>2025-07-24T17:23:07Z</time>
      </trkpt>
      <trkpt lat="44.73653" lon="3.78917">
        <ele>1025.38</ele>
        <time>2025-07-24T17:23:25Z</time>
      </trkpt>
      <trkpt lat="44.73629" lon="3.78905">
        <ele>1033.55</ele>
        <time>2025-07-24T17:23:46Z</time>
      </trkpt>
      <trkpt lat="44.73619" lon="3.78901">
        <ele>1035.96</ele>
        <time>2025-07-24T17:23:53Z</time>
      </trkpt>
      <trkpt lat="44.7359" lon="3.78888">
        <ele>1040.28</ele>
        <time>2025-07-24T17:24:15Z</time>
      </trkpt>
      <trkpt lat="44.73569" lon="3.78869">
        <ele>1041.25</ele>
        <time>2025-07-24T17:24:32Z</time>
      </trkpt>
      <trkpt lat="44.7355" lon="3.78857">
        <ele>1047.97</ele>
        <time>2025-07-24T17:24:49Z</time>
      </trkpt>
      <trkpt lat="44.73547" lon="3.78855">
        <ele>1048.94</ele>
        <time>2025-07-24T17:24:51Z</time>
      </trkpt>
      <trkpt lat="44.73528" lon="3.78827">
        <ele>1049.9</ele>
        <time>2025-07-24T17:25:09Z</time>
      </trkpt>
      <trkpt lat="44.73523" lon="3.7878">
        <ele>1047.97</ele>
        <time>2025-07-24T17:25:26Z</time>
      </trkpt>
      <trkpt lat="44.73522" lon="3.78738">
        <ele>1047.49</ele>
        <time>2025-07-24T17:25:43Z</time>
      </trkpt>
      <trkpt lat="44.73524" lon="3.78707">
        <ele>1049.42</ele>
        <time>2025-07-24T17:25:58Z</time>
      </trkpt>
      <trkpt lat="44.73523" lon="3.78692">
        <ele>1050.86</ele>
        <time>2025-07-24T17:26:07Z</time>
      </trkpt>
      <trkpt lat="44.73522" lon="3.78666">
        <ele>1050.38</ele>
        <time>2025-07-24T17:26:20Z</time>
      </trkpt>
      <trkpt lat="44.7352" lon="3.78639">
        <ele>1052.78</ele>
        <time>2025-07-24T17:26:35Z</time>
      </trkpt>
      <trkpt lat="44.73516" lon="3.78617">
        <ele>1056.63</ele>
        <time>2025-07-24T17:26:48Z</time>
      </trkpt>
      <trkpt lat="44.73513" lon="3.78615">
        <ele>1058.07</ele>
        <time>2025-07-24T17:26:52Z</time>
      </trkpt>
      <trkpt lat="44.73506" lon="3.78623">
        <ele>1060.47</ele>
        <time>2025-07-24T17:27:01Z</time>
      </trkpt>
      <trkpt lat="44.73503" lon="3.78626">
        <ele>1061.91</ele>
        <time>2025-07-24T17:27:05Z</time>
      </trkpt>
      <trkpt lat="44.73501" lon="3.78631">
        <ele>1062.87</ele>
        <time>2025-07-24T17:27:22Z</time>
      </trkpt>
      <trkpt lat="44.73504" lon="3.78642">
        <ele>1058.55</ele>
        <time>2025-07-24T17:27:30Z</time>
      </trkpt>
      <trkpt lat="44.73496" lon="3.78659">
        <ele>1052.78</ele>
        <time>2025-07-24T17:27:49Z</time>
      </trkpt>
      <trkpt lat="44.73475" lon="3.78672">
        <ele>1053.26</ele>
        <time>2025-07-24T17:28:07Z</time>
      </trkpt>
      <trkpt lat="44.73468" lon="3.78673">
        <ele>1042.21</ele>
        <time>2025-07-24T17:28:22Z</time>
      </trkpt>
      <trkpt lat="44.7346" lon="3.78695">
        <ele>1046.05</ele>
        <time>2025-07-24T17:28:39Z</time>
      </trkpt>
      <trkpt lat="44.73444" lon="3.78705">
        <ele>1057.11</ele>
        <time>2025-07-24T17:28:57Z</time>
      </trkpt>
      <trkpt lat="44.73439" lon="3.78706">
        <ele>1059.03</ele>
        <time>2025-07-24T17:29:00Z</time>
      </trkpt>
      <trkpt lat="44.73386" lon="3.78717">
        <ele>1060.95</ele>
        <time>2025-07-24T17:29:18Z</time>
      </trkpt>
      <trkpt lat="44.73374" lon="3.78713">
        <ele>1064.32</ele>
        <time>2025-07-24T17:29:29Z</time>
      </trkpt>
      <trkpt lat="44.73359" lon="3.78694">
        <ele>1068.16</ele>
        <time>2025-07-24T17:29:45Z</time>
      </trkpt>
      <trkpt lat="44.73338" lon="3.78657">
        <ele>1063.84</ele>
        <time>2025-07-24T17:30:01Z</time>
      </trkpt>
      <trkpt lat="44.73332" lon="3.78649">
        <ele>1062.87</ele>
        <time>2025-07-24T17:30:07Z</time>
      </trkpt>
      <trkpt lat="44.73311" lon="3.78635">
        <ele>1064.32</ele>
        <time>2025-07-24T17:30:24Z</time>
      </trkpt>
      <trkpt lat="44.73285" lon="3.78612">
        <ele>1064.32</ele>
        <time>2025-07-24T17:30:44Z</time>
      </trkpt>
      <trkpt lat="44.73281" lon="3.78607">
        <ele>1063.84</ele>
        <time>2025-07-24T17:30:48Z</time>
      </trkpt>
      <trkpt lat="44.73258" lon="3.78577">
        <ele>1064.32</ele>
        <time>2025-07-24T17:31:08Z</time>
      </trkpt>
      <trkpt lat="44.7324" lon="3.78554">
        <ele>1062.87</ele>
        <time>2025-07-24T17:31:26Z</time>
      </trkpt>
      <trkpt lat="44.73223" lon="3.7853">
        <ele>1058.55</ele>
        <time>2025-07-24T17:31:42Z</time>
      </trkpt>
      <trkpt lat="44.73202" lon="3.78502">
        <ele>1058.55</ele>
        <time>2025-07-24T17:32:01Z</time>
      </trkpt>
      <trkpt lat="44.73193" lon="3.78486">
        <ele>1058.07</ele>
        <time>2025-07-24T17:32:12Z</time>
      </trkpt>
      <trkpt lat="44.73186" lon="3.7847">
        <ele>1055.67</ele>
        <time>2025-07-24T17:32:20Z</time>
      </trkpt>
      <trkpt lat="44.73176" lon="3.78441">
        <ele>1054.22</ele>
        <time>2025-07-24T17:32:37Z</time>
      </trkpt>
      <trkpt lat="44.7318" lon="3.78397">
        <ele>1052.3</ele>
        <time>2025-07-24T17:32:56Z</time>
      </trkpt>
      <trkpt lat="44.7318" lon="3.78375">
        <ele>1054.22</ele>
        <time>2025-07-24T17:33:09Z</time>
      </trkpt>
      <trkpt lat="44.73176" lon="3.78346">
        <ele>1056.15</ele>
        <time>2025-07-24T17:33:25Z</time>
      </trkpt>
      <trkpt lat="44.73179" lon="3.78325">
        <ele>1059.99</ele>
        <time>2025-07-24T17:33:36Z</time>
      </trkpt>
      <trkpt lat="44.73196" lon="3.78282">
        <ele>1063.36</ele>
        <time>2025-07-24T17:33:58Z</time>
      </trkpt>
      <trkpt lat="44.73203" lon="3.78243">
        <ele>1064.32</ele>
        <time>2025-07-24T17:34:17Z</time>
      </trkpt>
      <trkpt lat="44.73206" lon="3.78209">
        <ele>1064.8</ele>
        <time>2025-07-24T17:34:35Z</time>
      </trkpt>
      <trkpt lat="44.73205" lon="3.78182">
        <ele>1064.32</ele>
        <time>2025-07-24T17:34:51Z</time>
      </trkpt>
      <trkpt lat="44.73203" lon="3.78148">
        <ele>1067.2</ele>
        <time>2025-07-24T17:35:09Z</time>
      </trkpt>
      <trkpt lat="44.73212" lon="3.78126">
        <ele>1068.64</ele>
        <time>2025-07-24T17:35:21Z</time>
      </trkpt>
      <trkpt lat="44.73238" lon="3.78119">
        <ele>1058.07</ele>
        <time>2025-07-24T17:35:36Z</time>
      </trkpt>
      <trkpt lat="44.73257" lon="3.78112">
        <ele>1049.42</ele>
        <time>2025-07-24T17:35:53Z</time>
      </trkpt>
      <trkpt lat="44.73258" lon="3.78112">
        <ele>1044.13</ele>
        <time>2025-07-24T17:36:20Z</time>
      </trkpt>
      <trkpt lat="44.73258" lon="3.78111">
        <ele>1044.61</ele>
        <time>2025-07-24T17:36:45Z</time>
      </trkpt>
      <trkpt lat="44.73259" lon="3.78114">
        <ele>1044.61</ele>
        <time>2025-07-24T17:37:01Z</time>
      </trkpt>
      <trkpt lat="44.73258" lon="3.78115">
        <ele>1045.09</ele>
        <time>2025-07-24T17:37:14Z</time>
      </trkpt>
      <trkpt lat="44.73256" lon="3.78117">
        <ele>1045.57</ele>
        <time>2025-07-24T17:37:35Z</time>
      </trkpt>
      <trkpt lat="44.73257" lon="3.78118">
        <ele>1048.94</ele>
        <time>2025-07-24T17:37:54Z</time>
      </trkpt>
      <trkpt lat="44.73256" lon="3.78119">
        <ele>1049.9</ele>
        <time>2025-07-24T17:38:16Z</time>
      </trkpt>
      <trkpt lat="44.73257" lon="3.78121">
        <ele>1051.82</ele>
        <time>2025-07-24T17:38:36Z</time>
      </trkpt>
      <trkpt lat="44.73261" lon="3.78122">
        <ele>1048.94</ele>
        <time>2025-07-24T17:38:51Z</time>
      </trkpt>
      <trkpt lat="44.73257" lon="3.78119">
        <ele>1047.97</ele>
        <time>2025-07-24T17:39:07Z</time>
      </trkpt>
      <trkpt lat="44.73262" lon="3.78111">
        <ele>1050.38</ele>
        <time>2025-07-24T17:39:20Z</time>
      </trkpt>
      <trkpt lat="44.73265" lon="3.78109">
        <ele>1048.45</ele>
        <time>2025-07-24T17:39:35Z</time>
      </trkpt>
      <trkpt lat="44.73261" lon="3.78114">
        <ele>1045.09</ele>
        <time>2025-07-24T17:39:48Z</time>
      </trkpt>
      <trkpt lat="44.73259" lon="3.78114">
        <ele>1044.61</ele>
        <time>2025-07-24T17:40:00Z</time>
      </trkpt>
      <trkpt lat="44.73257" lon="3.78114">
        <ele>1044.13</ele>
        <time>2025-07-24T17:40:18Z</time>
      </trkpt>
      <trkpt lat="44.73256" lon="3.78117">
        <ele>1044.61</ele>
        <time>2025-07-24T17:40:32Z</time>
      </trkpt>
      <trkpt lat="44.73255" lon="3.78116">
        <ele>1047.97</ele>
        <time>2025-07-24T17:40:44Z</time>
      </trkpt>
      <trkpt lat="44.73256" lon="3.78113">
        <ele>1051.34</ele>
        <time>2025-07-24T17:40:57Z</time>
      </trkpt>
      <trkpt lat="44.73266" lon="3.78112">
        <ele>1051.34</ele>
        <time>2025-07-24T17:41:10Z</time>
      </trkpt>
      <trkpt lat="44.73265" lon="3.78111">
        <ele>1047.49</ele>
        <time>2025-07-24T17:41:23Z</time>
      </trkpt>
      <trkpt lat="44.73265" lon="3.7811">
        <ele>1045.57</ele>
        <time>2025-07-24T17:41:37Z</time>
      </trkpt>
      <trkpt lat="44.73261" lon="3.78113">
        <ele>1046.53</ele>
        <time>2025-07-24T17:41:54Z</time>
      </trkpt>
      <trkpt lat="44.73258" lon="3.78116">
        <ele>1047.97</ele>
        <time>2025-07-24T17:42:14Z</time>
      </trkpt>
      <trkpt lat="44.73257" lon="3.78116">
        <ele>1047.97</ele>
        <time>2025-07-24T17:42:33Z</time>
      </trkpt>
      <trkpt lat="44.73261" lon="3.78118">
        <ele>1048.45</ele>
        <time>2025-07-24T17:42:48Z</time>
      </trkpt>
      <trkpt lat="44.73256" lon="3.78122">
        <ele>1051.34</ele>
        <time>2025-07-24T17:43:09Z</time>
      </trkpt>
      <trkpt lat="44.73261" lon="3.78114">
        <ele>1050.38</ele>
        <time>2025-07-24T17:43:22Z</time>
      </trkpt>
      <trkpt lat="44.73268" lon="3.78112">
        <ele>1048.45</ele>
        <time>2025-07-24T17:43:38Z</time>
      </trkpt>
      <trkpt lat="44.73265" lon="3.7811">
        <ele>1047.49</ele>
        <time>2025-07-24T17:44:00Z</time>
      </trkpt>
      <trkpt lat="44.73261" lon="3.78116">
        <ele>1045.09</ele>
        <time>2025-07-24T17:44:16Z</time>
      </trkpt>
      <trkpt lat="44.7326" lon="3.78112">
        <ele>1043.17</ele>
        <time>2025-07-24T17:44:28Z</time>
      </trkpt>
      <trkpt lat="44.73263" lon="3.78109">
        <ele>1042.69</ele>
        <time>2025-07-24T17:44:43Z</time>
      </trkpt>
      <trkpt lat="44.73263" lon="3.78111">
        <ele>1045.57</ele>
        <time>2025-07-24T17:44:57Z</time>
      </trkpt>
      <trkpt lat="44.73261" lon="3.78111">
        <ele>1044.61</ele>
        <time>2025-07-24T17:45:18Z</time>
        <extensions>
          <visugpx:TrkExtension xmlns:visugpx="https://www.visugpx.com/editgpx/">
            <visugpx:node>1</visugpx:node>
            </visugpx:TrkExtension>
        </extensions>
      </trkpt>
    </trkseg>
  </trk>
</gpx>